[[{"header":{"parameterUnit":"m.s-1","parameterCategory":1,"la1":31.0,"la2":29.5877,"lo1":-88.7671,"lo2":-86.6584,"dy":0.0162,"dx":0.0185,"nx":115,"ny":88,"refTime":"2024-05-20T06:00:00:Z","depth":0,"parameterNumber":2,"parameterNumberName":"U-component_of_WINDS"},"data":[0.0,0.0,0.0,0.0,0.0,0.0,0.0,0.0,0.0,0.0,0.0,0.0,0.0,0.0,0.0,0.0,0.0,0.0,0.0,0.0,0.0,0.0,0.0,0.0,0.0,0.0,0.0,0.0,0.0,0.0,0.0,0.0,0.0,0.0,0.0,0.0,0.0,0.0,0.0,0.0,0.0,0.0,0.0,0.0,0.0,0.0,0.0,0.0,0.0,0.0,0.0,0.0,0.0,0.0,0.0,0.0,0.0,0.0,0.0,0.0,0.0,0.0,0.0,0.0,0.0,0.0,0.0,0.0,0.0,0.0,0.0,0.0,0.0,0.0,0.0,0.0,0.0,0.0,0.0,0.0,0.0,0.0,0.0,0.0,0.0,0.0,0.0,0.0,0.0,0.0,0.0,0.0,0.0,0.0,0.0,0.0,0.0,0.0,0.0,0.0,0.0,0.0,0.0,0.0,0.0,0.0,0.0,0.0,0.0,0.0,0.0,0.0,0.0,0.0,0.0,0.0,0.0,0.0,0.0,0.0,0.0,0.0,0.0,0.0,0.0,0.0,0.0,0.0,0.0,0.0,0.0,0.0,0.0,0.0,0.0,0.0,0.0,0.0,0.0,0.0,0.0,0.0,0.0,0.0,0.0,0.0,0.0,0.0,0.0,0.0,0.0,0.0,0.0,0.0,0.0,0.0,0.0,0.0,0.0,0.0,0.0,0.0,0.0,0.0,0.0,0.0,0.0,0.0,0.0,0.0,0.0,0.0,0.0,0.0,0.0,0.0,0.0,0.0,0.0,0.0,0.0,0.0,0.0,0.0,0.0,0.0,0.0,0.0,0.0,0.0,0.0,0.0,0.0,0.0,0.0,0.0,0.0,0.0,0.0,0.0,0.0,0.0,0.0,0.0,0.0,0.0,0.0,0.0,0.0,0.0,0.0,0.0,0.0,0.0,0.0,0.0,0.0,0.0,0.0,0.0,0.0,0.0,0.0,0.0,0.0,0.0,0.0,0.0,0.0,0.0,0.0,0.0,0.0,0.0,0.0,0.0,0.0,0.0,0.0,0.0,0.0,0.0,0.0,0.0,0.0,0.0,0.0,0.0,0.0,0.0,0.0,0.0,0.0,0.0,0.0,0.0,0.0,0.0,0.0,0.0,0.0,0.0,0.0,0.0,0.0,0.0,0.0,0.0,0.0,0.0,0.0,0.0,0.0,0.0,0.0,0.0,0.0,0.0,0.0,0.0,0.0,0.0,0.0,0.0,0.0,0.0,0.0,0.0,0.0,0.0,0.0,0.0,0.0,0.0,0.0,0.0,0.0,0.0,0.0,0.0,0.0,0.0,0.0,0.0,0.0,0.0,0.0,0.0,0.0,0.0,0.0,0.0,0.0,0.0,0.0,0.0,0.0,0.0,0.0,0.0,0.0,0.0,0.0,0.0,0.0,0.0,0.0,0.0,0.0,0.0,0.0,0.0,0.0,0.0,0.0,0.0,0.0,0.0,0.0,0.0,0.0,0.0,0.0,0.0,0.0,0.0,0.0,0.0,0.0,0.0,0.0,0.0,0.0,0.0,0.0,0.0,0.0,0.0,0.0,0.0,0.0,0.0,0.0,0.0,0.0,0.0,0.0,0.0,0.0,0.0,0.0,0.0,0.0,0.0,0.0,0.0,0.0,0.0,0.0,0.0,0.0,0.0,0.0,0.0,0.0,0.0,0.0,0.0,0.0,0.0,0.0,0.0,0.0,0.0,0.0,0.0,0.0,0.0,0.0,0.0,0.0,0.0,0.0,0.0,0.0,0.0,0.0,0.0,0.0,0.0,0.0,0.0,0.0,0.0,0.0,0.0,0.0,0.0,0.0,0.0,0.0,0.0,0.0,0.0,0.0,0.0,0.0,0.0,0.0,0.0,0.0,0.0,0.0,0.0,0.0,0.0,0.0,0.0,0.0,0.0,0.0,0.0,0.0,0.0,0.0,0.0,0.0,0.0,0.0,0.0,0.0,0.0,0.0,0.0,0.0,0.0,0.0,0.0,0.0,0.0,0.0,0.0,0.0,0.0,0.0,0.0,0.0,0.0,0.0,0.0,0.0,0.0,0.0,0.0,0.0,0.0,0.0,0.0,0.0,0.0,0.0,0.0,0.0,0.0,0.0,0.0,0.0,0.0,0.0,0.0,0.0,0.0,0.0,0.0,0.0,0.0,0.0,0.0,0.0,0.0,0.0,0.0,0.0,0.0,0.0,0.0,0.0,0.0,0.0,0.0,0.0,0.0,0.0,0.0,0.0,0.0,0.0,0.0,0.0,0.0,0.0,0.0,0.0,0.0,0.0,0.0,0.0,0.0,0.0,0.0,0.0,0.0,0.0,0.0,0.0,0.0,0.0,0.0,0.0,0.0,0.0,0.0,0.0,0.0,0.0,0.0,0.0,0.0,0.0,0.0,0.0,0.0,0.0,0.0,0.0,0.0,0.0,0.0,0.0,0.0,0.0,0.0,0.0,0.0,0.0,0.0,0.0,0.0,0.0,0.0,0.0,0.0,0.0,0.0,0.0,0.0,0.0,0.0,0.0,0.0,0.0,0.0,0.0,0.0,0.0,0.0,0.0,0.0,0.0,0.0,0.0,0.0,0.0,0.0,0.0,0.0,0.0,0.0,0.0,0.0,0.0,0.0,0.0,0.0,0.0,0.0,0.0,0.0,0.0,0.0,0.0,0.0,0.0,0.0,0.0,0.0,0.0,0.0,0.0,0.0,0.0,0.0,0.0,0.0,0.0,0.0,0.0,0.0,0.0,0.0,0.0,0.0,0.0,0.0,0.0,0.0,0.0,0.0,0.0,0.0,0.0,0.0,0.0,0.0,0.0,0.0,0.0,0.0,0.0,0.0,0.0,0.0,0.0,0.0,0.0,0.0,0.0,0.0,0.0,0.0,0.0,0.0,0.0,0.0,0.0,0.0,0.0,0.0,0.0,0.0,0.0,0.0,0.0,0.0,0.0,0.0,0.0,0.0,0.0,0.0,0.0,0.0,0.0,0.0,0.0,0.0,0.0,0.0,0.0,0.0,0.0,0.0,0.0,0.0,0.0,0.0,0.0,0.0,0.0,0.0,0.0,0.0,0.0,0.0,0.0,0.0,0.0,0.0,0.0,0.0,0.0,0.0,0.0,0.0,0.0,0.0,0.0,0.0,0.0,0.0,0.0,0.0,0.0,0.0,0.0,0.0,0.0,0.0,0.0,0.0,0.0,0.0,0.0,0.0,0.0,0.0,0.0,0.0,0.0,0.0,0.0,0.0,0.0,0.0,0.0,0.0,0.0,0.0,0.0,0.0,0.0,0.0,0.0,0.0,0.0,0.0,0.0,0.0,0.0,0.0,0.0,0.0,0.0,0.0,0.0,0.0,0.0,0.0,0.0,0.0,0.0,0.0,0.0,0.0,0.0,0.0,0.0,0.0,0.0,0.0,0.0,0.0,0.0,0.0,0.0,0.0,0.0,0.0,0.0,0.0,0.0,0.0,0.0,0.0,0.0,0.0,0.0,0.0,0.0,0.0,0.0,0.0,0.0,0.0,0.0,0.0,0.0,0.0,0.0,0.0,0.0,0.0,0.0,0.0,0.0,0.0,0.0,0.0,0.0,0.0,0.0,0.0,0.0,0.0,0.0,0.0,0.0,0.0,0.0,0.0,0.0,0.0,0.0,0.0,0.0,0.0,0.0,0.0,0.0,0.0,0.0,0.0,0.0,0.0,0.0,0.0,0.0,0.0,0.0,0.0,0.0,0.0,0.0,0.0,0.0,0.0,0.0,0.0,0.0,0.0,0.0,0.0,0.0,0.0,0.0,0.0,0.0,0.0,0.0,0.0,0.0,0.0,0.0,0.0,0.0,0.0,0.0,0.0,0.0,0.0,0.0,0.0,0.0,0.0,0.0,0.0,0.0,0.0,0.0,0.0,0.0,0.0,0.0,0.0,0.0,0.0,0.0,0.0,0.0,0.0,0.0,0.0,0.0,0.0,0.0,0.0,0.0,0.0,0.0,0.0,0.0,0.0,0.0,0.0,0.0,0.0,0.0,0.0,0.0,0.0,0.0,0.0,0.0,0.0,0.0,0.0,0.0,0.0,0.0,0.0,0.0,0.0,0.0,0.0,0.0,0.0,0.0,0.0,0.0,0.0,0.0,0.0,0.0,0.0,0.0,0.0,0.0,0.0,0.0,0.0,0.0,0.0,0.0,0.0,0.0,0.0,0.0,0.0,0.0,0.0,0.0,0.0,0.0,0.0,0.0,0.0,-1.0006,0.0,0.0,0.0,0.0,0.0,0.0,0.0,0.0,0.0,0.0,0.0,0.0,0.0,0.0,0.0,0.0,0.0,0.0,0.0,0.0,0.0,0.0,0.0,0.0,0.0,0.0,0.0,0.0,0.0,0.0,0.0,0.0,0.0,0.0,0.0,0.0,0.0,0.0,0.0,0.0,0.0,0.0,0.0,0.0,0.0,0.0,0.0,0.0,0.0,0.0,0.0,0.0,0.0,0.0,0.0,0.0,0.0,0.0,0.0,0.0,0.0,0.0,0.0,0.0,0.0,0.0,0.0,0.0,0.0,0.0,0.0,0.0,0.0,0.0,0.0,0.0,0.0,0.0,0.0,0.0,0.0,0.0,0.0,0.0,0.0,0.0,0.0,0.0,0.0,0.0,0.0,0.0,0.0,0.0,0.0,0.0,0.0,0.0,0.0,0.0,0.0,0.0,0.0,0.0,0.0,0.0,0.0,0.0,0.0,0.0,-1.016,-1.0102,-1.0076,-1.0035,-1.0008,0.0,0.0,0.0,0.0,0.0,0.0,0.0,0.0,0.0,0.0,0.0,0.0,0.0,0.0,0.0,0.0,0.0,0.0,0.0,0.0,0.0,0.0,0.0,0.0,0.0,0.0,0.0,0.0,0.0,0.0,0.0,0.0,0.0,0.0,0.0,0.0,0.0,0.0,0.0,0.0,0.0,0.0,0.0,0.0,0.0,0.0,0.0,0.0,0.0,0.0,0.0,0.0,0.0,0.0,0.0,0.0,0.0,0.0,0.0,0.0,0.0,0.0,0.0,0.0,0.0,0.0,0.0,0.0,0.0,0.0,0.0,0.0,0.0,0.0,0.0,0.0,0.0,0.0,0.0,0.0,0.0,0.0,0.0,0.0,0.0,0.0,0.0,0.0,0.0,0.0,0.0,0.0,0.0,0.0,0.0,0.0,0.0,0.0,0.0,0.0,0.0,0.0,0.0,0.0,0.0,0.0,0.0,0.0,0.0,0.0,0.0,0.0,-1.0096,-1.0069,-1.0037,0.0,0.0,0.0,0.0,0.0,0.0,0.0,0.0,0.0,0.0,0.0,0.0,0.0,0.0,0.0,0.0,0.0,0.0,0.0,0.0,0.0,0.0,0.0,0.0,0.0,0.0,0.0,0.0,0.0,0.0,0.0,0.0,0.0,0.0,0.0,0.0,0.0,0.0,0.0,0.0,0.0,0.0,0.0,0.0,0.0,0.0,0.0,0.0,0.0,0.0,0.0,0.0,0.0,0.0,0.0,0.0,0.0,0.0,0.0,0.0,0.0,0.0,0.0,0.0,0.0,0.0,0.0,0.0,0.0,0.0,0.0,0.0,0.0,0.0,0.0,0.0,0.0,0.0,0.0,0.0,0.0,0.0,0.0,0.0,0.0,0.0,0.0,0.0,0.0,0.0,0.0,0.0,0.0,0.0,0.0,0.0,0.0,0.0,0.0,0.0,0.0,0.0,0.0,0.0,0.0,0.0,0.0,0.0,0.0,0.0,-1.0187,-1.0188,-1.014,0.0,-1.0091,0.0,0.0,0.0,0.0,0.0,0.0,0.0,0.0,0.0,0.0,0.0,0.0,0.0,0.0,0.0,0.0,0.0,0.0,0.0,0.0,0.0,0.0,0.0,0.0,0.0,0.0,0.0,0.0,0.0,0.0,0.0,0.0,0.0,0.0,0.0,0.0,0.0,0.0,0.0,0.0,0.0,0.0,0.0,0.0,0.0,0.0,0.0,0.0,0.0,0.0,0.0,0.0,0.0,0.0,0.0,0.0,0.0,0.0,0.0,0.0,0.0,0.0,0.0,0.0,0.0,0.0,0.0,0.0,0.0,0.0,0.0,0.0,0.0,0.0,0.0,0.0,0.0,0.0,0.0,0.0,0.0,0.0,0.0,0.0,0.0,0.0,0.0,0.0,0.0,0.0,0.0,0.0,0.0,0.0,0.0,0.0,0.0,0.0,0.0,0.0,0.0,0.0,0.0,0.0,0.0,0.0,0.0,0.0,0.0,0.0,0.0,-1.0187,-1.0133,-1.0094,0.0,0.0,0.0,0.0,0.0,0.0,0.0,0.0,0.0,0.0,0.0,0.0,0.0,0.0,0.0,0.0,0.0,0.0,0.0,0.0,0.0,0.0,0.0,0.0,0.0,0.0,0.0,0.0,0.0,0.0,0.0,0.0,0.0,0.0,0.0,0.0,0.0,0.0,0.0,0.0,0.0,0.0,0.0,0.0,0.0,0.0,0.0,0.0,0.0,0.0,0.0,0.0,0.0,0.0,0.0,0.0,0.0,0.0,0.0,0.0,0.0,0.0,0.0,0.0,0.0,0.0,0.0,0.0,0.0,0.0,0.0,0.0,0.0,0.0,0.0,0.0,0.0,0.0,0.0,0.0,0.0,0.0,0.0,0.0,0.0,0.0,0.0,0.0,0.0,0.0,0.0,0.0,0.0,0.0,0.0,0.0,0.0,0.0,0.0,0.0,0.0,0.0,0.0,0.0,0.0,0.0,0.0,0.0,0.0,0.0,-1.032,0.0,-1.0188,-1.0154,-1.0125,-1.011,0.0,0.0,0.0,0.0,0.0,0.0,0.0,0.0,0.0,0.0,0.0,0.0,0.0,0.0,0.0,0.0,0.0,0.0,0.0,0.0,0.0,0.0,0.0,0.0,0.0,0.0,0.0,0.0,0.0,0.0,0.0,0.0,0.0,0.0,0.0,0.0,0.0,0.0,0.0,0.0,0.0,0.0,0.0,0.0,0.0,0.0,0.0,0.0,0.0,0.0,0.0,0.0,0.0,0.0,0.0,0.0,0.0,0.0,0.0,0.0,0.0,0.0,0.0,0.0,0.0,0.0,0.0,0.0,0.0,0.0,0.0,0.0,0.0,0.0,0.0,0.0,0.0,0.0,0.0,0.0,0.0,0.0,0.0,0.0,0.0,0.0,0.0,0.0,0.0,0.0,0.0,0.0,0.0,0.0,0.0,0.0,0.0,0.0,0.0,0.0,0.0,0.0,0.0,0.0,0.0,0.0,0.0,0.0,0.0,-1.0318,-1.0276,-1.0223,-1.0199,-1.0163,0.0,0.0,0.0,0.0,0.0,0.0,0.0,0.0,0.0,0.0,0.0,0.0,0.0,0.0,0.0,0.0,0.0,0.0,0.0,0.0,0.0,0.0,0.0,0.0,0.0,0.0,0.0,0.0,0.0,0.0,0.0,0.0,0.0,0.0,0.0,0.0,0.0,0.0,0.0,0.0,0.0,0.0,0.0,0.0,0.0,0.0,0.0,0.0,0.0,0.0,0.0,0.0,0.0,0.0,0.0,0.0,0.0,0.0,0.0,0.0,0.0,0.0,0.0,0.0,0.0,0.0,0.0,0.0,0.0,0.0,0.0,0.0,0.0,0.0,0.0,0.0,0.0,0.0,0.0,0.0,0.0,0.0,0.0,0.0,0.0,0.0,0.0,0.0,0.0,0.0,0.0,0.0,0.0,0.0,0.0,0.0,0.0,0.0,0.0,0.0,0.0,0.0,0.0,0.0,0.0,0.0,0.0,0.0,0.0,-1.0324,-1.0808,-1.105,0.0,-1.0977,-1.0717,0.0,0.0,0.0,0.0,0.0,0.0,0.0,0.0,0.0,0.0,0.0,0.0,0.0,0.0,0.0,0.0,0.0,0.0,0.0,0.0,0.0,0.0,0.0,0.0,0.0,0.0,0.0,0.0,0.0,0.0,0.0,0.0,0.0,0.0,0.0,0.0,0.0,0.0,0.0,0.0,0.0,0.0,0.0,0.0,0.0,0.0,0.0,0.0,0.0,0.0,0.0,0.0,0.0,0.0,0.0,0.0,0.0,0.0,0.0,0.0,0.0,0.0,0.0,0.0,0.0,0.0,0.0,0.0,0.0,0.0,0.0,0.0,0.0,0.0,0.0,0.0,0.0,0.0,0.0,0.0,0.0,0.0,0.0,0.0,0.0,0.0,0.0,0.0,0.0,0.0,0.0,0.0,0.0,0.0,0.0,0.0,0.0,0.0,0.0,0.0,0.0,0.0,0.0,0.0,0.0,0.0,0.0,0.0,0.0,-1.0732,0.0,-1.1925,0.0,-1.1597,-1.1162,0.0,0.0,0.0,0.0,0.0,0.0,0.0,0.0,0.0,0.0,0.0,0.0,0.0,0.0,0.0,0.0,0.0,0.0,0.0,0.0,0.0,0.0,0.0,0.0,0.0,0.0,0.0,0.0,0.0,0.0,0.0,0.0,0.0,0.0,0.0,0.0,0.0,0.0,0.0,0.0,0.0,0.0,0.0,0.0,0.0,0.0,0.0,0.0,0.0,0.0,0.0,0.0,0.0,0.0,0.0,0.0,0.0,0.0,0.0,0.0,0.0,0.0,0.0,0.0,0.0,0.0,0.0,0.0,0.0,0.0,0.0,0.0,0.0,0.0,0.0,0.0,0.0,0.0,0.0,0.0,0.0,0.0,0.0,0.0,0.0,0.0,0.0,0.0,0.0,0.0,0.0,0.0,0.0,0.0,0.0,0.0,0.0,0.0,0.0,0.0,0.0,0.0,0.0,0.0,0.0,0.0,0.0,0.0,-1.0757,-1.1587,-1.2396,-1.2807,-1.2796,-1.1996,-1.1514,0.0,0.0,0.0,0.0,0.0,0.0,0.0,0.0,0.0,0.0,0.0,0.0,0.0,0.0,0.0,0.0,0.0,0.0,0.0,0.0,0.0,0.0,0.0,0.0,0.0,0.0,0.0,0.0,0.0,0.0,0.0,0.0,0.0,0.0,0.0,0.0,0.0,0.0,0.0,0.0,0.0,0.0,0.0,0.0,0.0,0.0,0.0,0.0,0.0,0.0,0.0,0.0,0.0,0.0,0.0,0.0,0.0,0.0,0.0,0.0,0.0,0.0,0.0,0.0,0.0,0.0,0.0,0.0,0.0,0.0,0.0,0.0,0.0,0.0,0.0,0.0,0.0,0.0,0.0,0.0,0.0,0.0,0.0,0.0,0.0,0.0,0.0,0.0,0.0,0.0,0.0,0.0,0.0,0.0,0.0,0.0,0.0,0.0,0.0,0.0,0.0,0.0,0.0,0.0,0.0,0.0,0.0,0.0,0.0,-1.2447,-1.3257,-1.3697,-1.3666,-1.2855,-1.2123,0.0,0.0,0.0,0.0,0.0,0.0,0.0,0.0,0.0,0.0,0.0,0.0,0.0,0.0,0.0,0.0,0.0,0.0,0.0,0.0,0.0,0.0,0.0,0.0,0.0,0.0,0.0,0.0,0.0,0.0,0.0,0.0,0.0,0.0,0.0,0.0,0.0,0.0,0.0,0.0,0.0,0.0,0.0,0.0,0.0,0.0,0.0,0.0,0.0,0.0,0.0,0.0,0.0,0.0,0.0,0.0,0.0,0.0,0.0,0.0,0.0,0.0,0.0,0.0,0.0,0.0,0.0,0.0,0.0,0.0,0.0,0.0,0.0,0.0,0.0,0.0,0.0,0.0,0.0,0.0,0.0,0.0,0.0,0.0,0.0,0.0,0.0,0.0,0.0,0.0,0.0,0.0,0.0,0.0,0.0,0.0,0.0,0.0,0.0,0.0,0.0,0.0,0.0,0.0,0.0,0.0,0.0,0.0,0.0,-1.3763,-1.4303,-1.4745,-1.5069,-1.3618,-1.2555,-1.1981,0.0,0.0,0.0,0.0,0.0,0.0,0.0,0.0,0.0,0.0,0.0,0.0,0.0,0.0,0.0,0.0,0.0,0.0,0.0,0.0,0.0,0.0,0.0,0.0,0.0,0.0,0.0,0.0,0.0,0.0,0.0,0.0,0.0,0.0,0.0,0.0,0.0,0.0,0.0,0.0,0.0,0.0,0.0,0.0,0.0,0.0,0.0,0.0,0.0,0.0,0.0,0.0,0.0,0.0,0.0,0.0,0.0,0.0,0.0,0.0,0.0,0.0,0.0,0.0,0.0,0.0,0.0,0.0,0.0,0.0,0.0,0.0,0.0,0.0,0.0,0.0,0.0,0.0,0.0,0.0,0.0,0.0,0.0,0.0,0.0,0.0,0.0,0.0,0.0,0.0,0.0,0.0,0.0,0.0,0.0,0.0,0.0,0.0,0.0,0.0,0.0,0.0,0.0,0.0,0.0,0.0,0.0,0.0,-1.5527,-1.5564,-1.593,-1.6604,-1.4262,-1.291,0.0,0.0,0.0,0.0,0.0,0.0,0.0,0.0,0.0,0.0,0.0,0.0,0.0,0.0,0.0,0.0,0.0,0.0,0.0,0.0,0.0,0.0,0.0,0.0,0.0,0.0,0.0,0.0,0.0,0.0,0.0,0.0,0.0,0.0,0.0,0.0,0.0,0.0,0.0,0.0,0.0,0.0,0.0,0.0,0.0,0.0,0.0,0.0,0.0,0.0,0.0,0.0,0.0,0.0,0.0,0.0,0.0,0.0,0.0,0.0,0.0,0.0,0.0,0.0,0.0,0.0,0.0,0.0,0.0,0.0,0.0,0.0,0.0,0.0,0.0,0.0,0.0,0.0,0.0,0.0,0.0,0.0,0.0,0.0,0.0,0.0,0.0,0.0,0.0,0.0,0.0,0.0,0.0,0.0,0.0,0.0,0.0,0.0,0.0,0.0,0.0,0.0,0.0,0.0,0.0,0.0,0.0,0.0,0.0,-1.7207,-1.7304,-1.7108,-1.6694,-1.5425,-1.4113,0.0,0.0,0.0,0.0,0.0,0.0,0.0,0.0,0.0,0.0,0.0,0.0,0.0,0.0,0.0,0.0,0.0,0.0,0.0,0.0,0.0,0.0,0.0,0.0,0.0,0.0,0.0,0.0,0.0,0.0,0.0,0.0,0.0,0.0,0.0,0.0,0.0,0.0,0.0,0.0,0.0,0.0,0.0,0.0,0.0,0.0,0.0,0.0,0.0,0.0,0.0,0.0,0.0,0.0,0.0,0.0,0.0,0.0,0.0,0.0,0.0,0.0,0.0,0.0,0.0,0.0,0.0,0.0,0.0,0.0,0.0,0.0,0.0,0.0,0.0,0.0,0.0,0.0,0.0,0.0,0.0,0.0,0.0,0.0,0.0,0.0,0.0,0.0,0.0,0.0,0.0,0.0,0.0,0.0,0.0,0.0,0.0,0.0,0.0,0.0,0.0,0.0,0.0,0.0,0.0,0.0,0.0,0.0,-1.574,-1.7949,-1.8379,-1.832,-1.7811,-1.6229,-1.4762,0.0,0.0,0.0,0.0,0.0,0.0,0.0,0.0,0.0,0.0,0.0,0.0,0.0,0.0,0.0,0.0,0.0,0.0,0.0,0.0,0.0,0.0,0.0,0.0,0.0,0.0,0.0,0.0,0.0,0.0,0.0,0.0,0.0,0.0,0.0,0.0,0.0,0.0,0.0,0.0,0.0,0.0,0.0,0.0,0.0,0.0,0.0,0.0,0.0,0.0,0.0,0.0,0.0,0.0,0.0,0.0,0.0,0.0,0.0,0.0,0.0,0.0,0.0,0.0,0.0,0.0,0.0,0.0,0.0,0.0,0.0,0.0,0.0,0.0,0.0,0.0,0.0,0.0,0.0,0.0,0.0,0.0,0.0,0.0,0.0,0.0,0.0,0.0,0.0,0.0,0.0,0.0,0.0,0.0,0.0,0.0,0.0,0.0,0.0,0.0,0.0,0.0,0.0,0.0,0.0,0.0,0.0,0.0,-1.6384,-1.8105,-1.8984,-1.9433,-1.9374,-1.6991,-1.5173,0.0,0.0,0.0,0.0,0.0,0.0,0.0,0.0,0.0,0.0,0.0,0.0,0.0,0.0,0.0,0.0,0.0,0.0,0.0,0.0,0.0,0.0,0.0,0.0,0.0,0.0,0.0,0.0,0.0,0.0,0.0,0.0,0.0,0.0,0.0,0.0,0.0,0.0,0.0,0.0,0.0,0.0,0.0,0.0,0.0,0.0,0.0,0.0,0.0,0.0,0.0,0.0,0.0,0.0,0.0,0.0,0.0,0.0,0.0,0.0,0.0,0.0,0.0,0.0,0.0,0.0,0.0,0.0,0.0,0.0,0.0,0.0,0.0,0.0,0.0,0.0,0.0,0.0,0.0,0.0,0.0,0.0,0.0,0.0,0.0,0.0,0.0,0.0,0.0,0.0,0.0,0.0,0.0,0.0,0.0,0.0,0.0,0.0,0.0,0.0,0.0,0.0,0.0,0.0,0.0,0.0,0.0,0.0,-1.7261,-1.896,-1.9862,-2.0311,-2.0308,-1.8455,-1.6385,0.0,0.0,0.0,0.0,0.0,0.0,0.0,0.0,0.0,0.0,0.0,0.0,0.0,0.0,0.0,0.0,0.0,0.0,0.0,0.0,0.0,0.0,0.0,0.0,0.0,0.0,0.0,0.0,0.0,0.0,0.0,0.0,0.0,0.0,0.0,0.0,0.0,0.0,0.0,0.0,0.0,0.0,0.0,0.0,0.0,0.0,0.0,0.0,-0.4646,0.0,0.0,0.0,0.0,0.0,0.0,0.0,0.0,0.0,0.0,0.0,0.0,0.0,0.0,0.0,0.0,0.0,0.0,0.0,0.0,0.0,0.0,0.0,0.0,0.0,0.0,0.0,0.0,0.0,0.0,0.0,0.0,0.0,0.0,0.0,0.0,0.0,0.0,0.0,0.0,0.0,0.0,0.0,0.0,0.0,0.0,0.0,0.0,0.0,0.0,0.0,0.0,0.0,0.0,0.0,0.0,0.0,0.0,0.0,-1.7963,-1.9252,-2.0153,-2.0581,-2.0494,-1.8897,-1.6964,0.0,0.0,0.0,0.0,0.0,0.0,0.0,0.0,0.0,0.0,0.0,0.0,0.0,0.0,0.0,0.0,0.0,0.0,0.0,0.0,0.0,0.0,0.0,0.0,0.0,0.0,0.0,0.0,0.0,0.0,0.0,0.0,0.0,0.0,0.0,0.0,0.0,0.0,0.0,0.0,0.0,0.0,0.0,0.0,0.0,0.0,0.0,0.0,0.0,0.0,0.0,0.0,0.0,0.0,0.0,0.0,0.0,0.0,0.0,0.0,0.0,0.0,0.0,0.0,0.0,0.0,0.0,0.0,0.0,0.0,0.0,0.0,0.0,0.0,0.0,0.0,0.0,0.0,0.0,0.0,0.0,0.0,0.0,0.0,0.0,0.0,0.0,0.0,0.0,0.0,0.0,0.0,0.0,0.0,0.0,0.0,0.0,0.0,0.0,0.0,0.0,0.0,0.0,0.0,0.0,0.0,0.0,-1.6744,-1.8488,-1.9484,-2.0209,-2.0496,-2.0299,-1.8793,-1.7098,-1.5249,0.0,0.0,0.0,0.0,0.0,0.0,0.0,0.0,0.0,0.0,0.0,0.0,0.0,0.0,0.0,0.0,0.0,0.0,0.0,0.0,0.0,0.0,0.0,0.0,0.0,0.0,0.0,0.0,0.0,0.0,0.0,0.0,0.0,0.0,0.0,0.0,0.0,0.0,-0.7957,-0.7795,0.0,0.0,0.0,0.0,0.0,0.0,0.0,0.0,-0.5233,0.0,0.0,0.0,0.0,0.0,0.0,0.0,0.0,0.0,0.0,0.0,0.0,0.0,0.0,0.0,0.0,0.0,0.0,0.0,0.0,0.0,0.0,0.0,0.0,0.0,0.0,0.0,0.0,0.0,0.0,0.0,0.0,0.0,0.0,0.0,0.0,0.0,0.0,0.0,0.0,0.0,0.0,0.0,0.0,0.0,0.0,0.0,0.0,0.0,0.0,0.0,0.0,0.0,0.0,0.0,0.0,-1.5177,-1.7032,-1.8775,-2.0335,-2.0476,-2.0174,-1.9435,-1.8431,-1.6764,-1.4354,0.0,0.0,0.0,0.0,0.0,0.0,0.0,0.0,0.0,0.0,0.0,0.0,0.0,0.0,0.0,0.0,0.0,0.0,0.0,0.0,0.0,0.0,0.0,0.0,0.0,0.0,0.0,0.0,0.0,0.0,0.0,0.0,0.0,0.0,0.0,0.0,0.0,0.0,0.0,-0.8016,-0.7539,0.0,0.0,0.0,0.0,0.0,0.0,0.0,0.0,-0.5432,0.0,0.0,0.0,0.0,0.0,0.0,0.0,0.0,0.0,0.0,0.0,0.0,0.0,0.0,0.0,0.0,0.0,0.0,0.0,0.0,0.0,0.0,0.0,0.0,0.0,0.0,0.0,0.0,0.0,0.0,0.0,0.0,0.0,0.0,0.0,0.0,0.0,0.0,0.0,0.0,0.0,0.0,0.0,0.0,0.0,0.0,0.0,0.0,0.0,0.0,0.0,0.0,0.0,0.0,0.0,-1.5335,-1.7075,-1.88,-2.0475,-2.0498,-2.0094,-1.9229,-1.8332,-1.6642,0.0,0.0,0.0,0.0,0.0,0.0,0.0,0.0,0.0,0.0,0.0,0.0,0.0,0.0,0.0,0.0,0.0,0.0,0.0,0.0,0.0,0.0,0.0,0.0,0.0,0.0,0.0,0.0,0.0,0.0,0.0,0.0,0.0,0.0,0.0,0.0,0.0,0.0,0.0,0.0,-0.8231,-0.7722,-0.7357,0.0,0.0,0.0,0.0,0.0,0.0,-0.6845,-0.6584,0.0,0.0,0.0,0.0,0.0,0.0,0.0,0.0,0.0,0.0,0.0,0.0,0.0,0.0,0.0,0.0,0.0,0.0,0.0,0.0,0.0,0.0,0.0,0.0,0.0,0.0,0.0,0.0,0.0,0.0,0.0,0.0,0.0,0.0,0.0,0.0,0.0,0.0,0.0,0.0,0.0,0.0,0.0,0.0,0.0,0.0,0.0,0.0,0.0,0.0,0.0,0.0,0.0,0.0,0.0,-1.5269,-1.7015,-1.874,-2.0412,-2.0511,-1.9986,-1.8942,-1.8026,-1.6356,0.0,0.0,0.0,0.0,0.0,0.0,0.0,0.0,0.0,0.0,0.0,0.0,0.0,0.0,0.0,0.0,0.0,0.0,0.0,0.0,0.0,0.0,0.0,0.0,0.0,0.0,0.0,0.0,0.0,0.0,0.0,0.0,0.0,0.0,0.0,0.0,0.0,0.0,0.0,0.0,0.0,-0.829,-0.8147,-0.7894,0.0,0.0,0.0,0.0,-0.8588,-0.8221,0.0,0.0,0.0,0.0,0.0,0.0,0.0,0.0,0.0,0.0,0.0,0.0,0.0,0.0,0.0,0.0,0.0,0.0,0.0,0.0,0.0,0.0,0.0,0.0,0.0,0.0,0.0,0.0,0.0,0.0,0.0,0.0,0.0,0.0,0.0,0.0,0.0,0.0,0.0,0.0,0.0,0.0,0.0,0.0,0.0,0.0,0.0,0.0,0.0,0.0,0.0,0.0,0.0,0.0,0.0,0.0,-1.5278,-1.7009,-1.8753,-2.0398,-2.0506,-1.9709,-1.8011,-1.7173,-1.5514,0.0,0.0,0.0,0.0,0.0,0.0,0.0,0.0,0.0,0.0,0.0,0.0,0.0,0.0,0.0,0.0,0.0,0.0,0.0,0.0,0.0,0.0,0.0,0.0,0.0,0.0,0.0,0.0,0.0,0.0,0.0,0.0,0.0,0.0,0.0,0.0,0.0,0.0,0.0,0.0,0.0,-0.9753,-1.0179,-1.001,-0.9899,0.0,0.0,-1.0293,-1.0152,-0.9375,0.0,0.0,0.0,0.0,0.0,0.0,0.0,0.0,0.0,0.0,0.0,0.0,0.0,0.0,0.0,0.0,0.0,0.0,0.0,0.0,0.0,0.0,0.0,0.0,0.0,0.0,0.0,0.0,0.0,0.0,0.0,0.0,0.0,0.0,0.0,0.0,0.0,0.0,0.0,0.0,0.0,0.0,0.0,0.0,0.0,0.0,0.0,0.0,0.0,0.0,0.0,0.0,0.0,0.0,0.0,-1.3499,-1.5234,-1.6975,-1.8695,-2.0355,-1.9961,-1.9092,-1.7816,-1.6518,-1.4825,0.0,0.0,0.0,0.0,0.0,0.0,0.0,0.0,0.0,0.0,0.0,0.0,0.0,0.0,0.0,0.0,0.0,0.0,0.0,0.0,0.0,0.0,0.0,0.0,0.0,0.0,0.0,0.0,0.0,0.0,0.0,0.0,0.0,0.0,0.0,0.0,0.0,0.0,0.0,0.0,0.0,0.0,-1.0964,-1.0898,0.0,0.0,0.0,-1.1775,-1.171,0.0,0.0,0.0,0.0,0.0,0.0,0.0,0.0,0.0,0.0,0.0,0.0,0.0,0.0,0.0,0.0,0.0,0.0,0.0,0.0,0.0,0.0,0.0,0.0,0.0,0.0,0.0,0.0,0.0,0.0,0.0,0.0,0.0,0.0,0.0,0.0,0.0,0.0,0.0,0.0,0.0,0.0,0.0,0.0,0.0,0.0,0.0,0.0,0.0,0.0,0.0,0.0,0.0,0.0,0.0,0.0,0.0,-1.519,-1.6919,-1.8653,-2.0273,-1.9535,-1.8691,-1.7786,-1.5926,0.0,0.0,0.0,0.0,0.0,0.0,0.0,0.0,0.0,0.0,0.0,0.0,0.0,0.0,0.0,0.0,0.0,0.0,0.0,0.0,0.0,0.0,0.0,0.0,0.0,0.0,0.0,-0.4816,0.0,0.0,0.0,0.0,0.0,0.0,0.0,0.0,0.0,0.0,0.0,0.0,0.0,0.0,-1.1098,-1.1982,-1.2002,-1.2018,0.0,0.0,-1.319,-1.3166,-1.2622,-1.1637,0.0,0.0,0.0,0.0,0.0,0.0,0.0,0.0,0.0,0.0,0.0,0.0,0.0,0.0,0.0,0.0,0.0,0.0,0.0,0.0,0.0,0.0,0.0,0.0,0.0,0.0,0.0,0.0,0.0,0.0,0.0,0.0,0.0,0.0,0.0,0.0,0.0,0.0,0.0,0.0,0.0,0.0,0.0,0.0,0.0,0.0,0.0,0.0,0.0,0.0,0.0,0.0,0.0,0.0,0.0,-1.5176,-1.6925,-1.8622,-2.0201,-1.9526,-1.8692,-1.7793,-1.5383,-1.3614,0.0,0.0,0.0,0.0,0.0,0.0,0.0,0.0,0.0,0.0,0.0,0.0,0.0,0.0,0.0,0.0,0.0,0.0,0.0,0.0,0.0,0.0,0.0,0.0,0.0,0.0,0.0,0.0,0.0,0.0,0.0,0.0,0.0,0.0,0.0,0.0,0.0,0.0,0.0,0.0,0.0,-1.233,-1.3808,-1.4014,-1.4059,0.0,0.0,-1.4545,-1.4467,-1.3503,-1.2171,-1.0438,0.0,0.0,0.0,0.0,0.0,0.0,0.0,0.0,0.0,0.0,0.0,0.0,0.0,0.0,0.0,0.0,0.0,0.0,0.0,0.0,0.0,0.0,0.0,0.0,0.0,0.0,0.0,0.0,0.0,0.0,0.0,0.0,0.0,0.0,0.0,0.0,0.0,0.0,0.0,0.0,0.0,0.0,0.0,0.0,0.0,0.0,0.0,0.0,0.0,0.0,0.0,0.0,0.0,-1.3452,-1.519,-1.6878,-1.8566,-2.0181,-1.8943,-1.8072,-1.7754,-1.5281,-1.3522,0.0,0.0,0.0,0.0,0.0,0.0,0.0,0.0,0.0,0.0,0.0,0.0,0.0,0.0,0.0,0.0,0.0,0.0,0.0,0.0,0.0,0.0,0.0,0.0,0.0,0.0,0.0,0.0,-0.495,-0.4938,-0.4963,0.0,0.0,0.0,0.0,0.0,0.0,0.0,0.0,0.0,0.0,-1.3237,-1.4304,-1.4477,0.0,0.0,-1.4829,-1.4946,-1.4908,-1.4283,-1.3202,-1.1467,-0.9201,0.0,0.0,0.0,0.0,0.0,0.0,0.0,0.0,0.0,0.0,0.0,0.0,0.0,0.0,0.0,0.0,0.0,0.0,0.0,0.0,0.0,0.0,0.0,0.0,0.0,0.0,0.0,0.0,0.0,0.0,0.0,0.0,0.0,0.0,0.0,0.0,0.0,0.0,0.0,0.0,0.0,0.0,0.0,0.0,0.0,0.0,0.0,0.0,0.0,0.0,0.0,0.0,-1.3589,-1.5539,-1.6974,-1.8546,-2.025,-1.86,-1.7696,-1.7628,-1.5244,-1.3484,0.0,0.0,0.0,0.0,0.0,0.0,0.0,0.0,0.0,0.0,0.0,0.0,0.0,0.0,0.0,0.0,0.0,0.0,0.0,0.0,0.0,0.0,0.0,0.0,0.0,0.0,0.0,0.0,-0.4997,-0.5012,-0.5,0.0,0.0,0.0,0.0,0.0,0.0,0.0,0.0,0.0,0.0,-1.3761,-1.4533,-1.4738,-1.4825,-1.4935,-1.5058,-1.5133,-1.511,-1.4704,-1.3809,-1.2089,0.0,0.0,0.0,0.0,0.0,0.0,0.0,0.0,0.0,0.0,0.0,0.0,0.0,0.0,0.0,0.0,0.0,0.0,0.0,0.0,0.0,0.0,0.0,0.0,0.0,0.0,0.0,0.0,0.0,0.0,-1.0164,0.0,0.0,0.0,0.0,0.0,0.0,0.0,0.0,0.0,0.0,0.0,0.0,0.0,0.0,0.0,0.0,0.0,0.0,0.0,0.0,0.0,0.0,-1.3866,-1.6333,-1.7243,-1.8542,-2.0212,-1.86,-1.7708,-1.7649,-1.5245,-1.3517,-1.2606,0.0,0.0,0.0,0.0,0.0,0.0,0.0,0.0,0.0,0.0,0.0,0.0,0.0,0.0,0.0,0.0,0.0,0.0,0.0,0.0,0.0,0.0,0.0,0.0,0.0,0.0,-0.5088,-0.5039,-0.503,0.0,0.0,0.0,0.0,0.0,0.0,0.0,0.0,0.0,0.0,-1.3106,-1.3893,-1.4672,-1.4911,-1.5015,-1.5078,-1.5149,-1.5165,-1.5099,-1.4691,-1.3797,0.0,0.0,0.0,0.0,0.0,0.0,0.0,0.0,0.0,0.0,0.0,0.0,0.0,0.0,0.0,0.0,0.0,0.0,0.0,0.0,0.0,0.0,0.0,0.0,0.0,0.0,0.0,-1.2472,-1.2197,0.0,0.0,0.0,0.0,0.0,0.0,0.0,0.0,0.0,0.0,0.0,-1.5649,-1.5572,0.0,0.0,0.0,0.0,0.0,0.0,0.0,0.0,0.0,0.0,0.0,0.0,-1.4447,-1.6329,-1.7259,-1.8546,-2.0212,-1.8604,-1.7706,-1.7673,-1.5765,-1.4016,-1.2569,0.0,0.0,0.0,0.0,0.0,0.0,0.0,0.0,0.0,0.0,0.0,0.0,0.0,0.0,0.0,0.0,0.0,0.0,0.0,0.0,0.0,0.0,0.0,0.0,0.0,-0.5097,0.0,0.0,0.0,0.0,0.0,0.0,0.0,0.0,0.0,0.0,0.0,-1.2287,-1.3084,-1.3925,-1.456,-1.4824,-1.4944,-1.5015,0.0,0.0,0.0,0.0,0.0,0.0,0.0,0.0,0.0,0.0,0.0,0.0,0.0,0.0,0.9778,0.9459,0.9785,1.0166,1.0294,0.0,0.0,0.0,0.0,0.0,0.0,0.0,0.0,0.0,0.0,0.0,0.0,0.0,0.0,0.0,0.0,-1.3813,0.0,0.0,0.0,0.0,0.0,0.0,0.0,0.0,-1.7438,-1.8008,-1.8175,-1.8061,-1.7702,0.0,-1.6736,-1.579,0.0,0.0,0.0,0.0,0.0,0.0,0.0,0.0,-1.5151,-1.6773,-1.7661,-1.8785,-2.009,-1.8544,-1.7666,-1.7585,-1.5647,-1.3906,-1.2489,-1.049,-0.9174,0.0,0.0,0.0,0.0,0.0,0.0,0.0,0.0,0.0,0.0,0.0,0.0,0.0,0.0,0.0,0.0,0.0,0.0,0.0,0.0,0.0,0.0,0.0,-0.5534,0.0,0.0,0.0,0.0,0.0,0.0,0.0,0.0,0.0,-1.1104,-1.2157,-1.3055,-1.355,-1.4382,-1.4947,-1.4928,0.0,0.0,0.0,0.0,0.0,0.0,0.0,-1.3911,-1.2621,-1.0251,-0.7242,-0.3369,0.1496,0.5668,0.793,0.0,0.0,1.0357,1.0724,1.1084,1.1192,1.1161,1.1064,1.0877,1.107,1.1399,0.0,0.0,0.0,0.0,0.0,0.0,0.0,0.0,-1.7636,-1.7164,0.0,-1.6293,0.0,0.0,0.0,0.0,0.0,-1.6048,0.0,0.0,-1.8861,-1.9184,-1.9844,-1.9735,-1.964,-1.9527,-1.8713,-1.8322,-1.8137,-1.5197,0.0,0.0,0.0,0.0,0.0,0.0,-1.5987,-1.7596,-1.8386,-1.9201,-2.0017,-1.8455,-1.754,-1.7337,-1.494,-1.3213,-1.2326,-1.144,-1.0217,-0.8627,-0.8437,0.0,0.0,0.0,0.0,0.0,0.0,0.0,0.0,0.0,0.0,0.0,0.0,0.0,0.0,0.0,0.0,0.0,0.0,0.0,0.0,-0.5912,0.0,0.0,0.0,0.0,0.0,0.0,0.0,0.0,0.0,0.0,-1.131,-1.2719,-1.3743,-1.3815,0.0,0.0,0.0,0.0,-1.5203,-1.5817,-1.5745,-1.5744,-1.6146,-1.5476,-1.4374,-1.2756,0.0,0.0,0.0148,0.3643,0.6287,0.8327,0.9901,1.109,1.2068,1.265,1.3053,1.316,1.3063,1.3059,1.2815,1.2526,1.2498,-2.0895,0.0,0.0,0.0,0.0,-1.8846,-1.9018,-1.9232,-1.9241,-1.9076,-1.875,-1.8059,0.0,0.0,0.0,0.0,0.0,0.0,-1.9447,-2.0471,-2.1059,-2.14,-2.1497,-2.138,-2.1271,-2.119,-2.0907,-2.0478,-1.9884,-1.8435,-1.6811,-1.5081,0.0,0.0,0.0,0.0,-1.7283,-1.8331,-1.8612,-1.9149,-2.0007,-1.8398,-1.6895,-1.5617,-1.4246,-1.3113,-1.225,-1.1407,-1.0433,-0.9411,-0.8751,0.0,0.0,0.0,0.0,0.0,0.0,0.0,0.0,0.0,0.0,0.0,0.0,0.0,0.0,0.0,0.0,0.0,0.0,0.0,-0.5973,-0.6829,-0.7328,0.0,0.0,0.0,0.0,0.0,0.0,0.0,0.0,0.0,-1.3593,-1.4212,-1.4851,0.0,0.0,-1.6654,-1.6527,-1.6328,-1.6175,-1.6178,0.0,0.0,0.0,-1.4379,-1.3085,-1.1199,-0.6642,-0.1832,0.2338,0.5381,0.7934,0.9946,1.1434,1.2626,1.3387,1.3141,1.2858,1.2844,1.283,1.2692,1.244,1.2634,1.2866,-2.3038,-2.1678,-2.1002,-2.0702,-2.0714,-2.0753,-2.0766,-2.0778,-2.079,-2.0727,-2.0644,-2.0084,-1.9638,-1.9276,-1.8754,0.0,0.0,0.0,-2.1172,-2.1999,-2.2525,-2.2876,-2.3037,-2.2959,-2.2878,-2.28,-2.2454,-2.2023,-2.1534,-2.0731,-1.9697,-1.8392,0.0,0.0,-1.6564,-1.7367,-1.8046,-1.8569,-1.8906,-1.9349,-1.9849,-1.8248,-1.6537,-1.4825,-1.4216,-1.3392,-1.2216,-1.1654,-1.085,-0.9736,-0.918,-0.8745,0.0,0.0,0.0,0.0,0.0,0.0,0.0,0.0,0.0,0.0,0.0,-0.5549,0.0,0.0,0.0,0.0,-0.6091,-0.6353,-0.6867,-0.766,0.0,0.0,0.0,0.0,0.0,0.0,0.0,-1.2604,-1.3449,-1.4273,-1.5078,-1.5883,-1.6446,-1.6626,-1.7021,-1.7184,-1.6941,0.0,-1.6397,-1.6352,-1.588,-1.5391,-1.5019,-1.3874,-1.1857,-0.8266,-0.3471,0.1045,0.4335,0.7156,0.9581,1.1369,1.2729,1.3779,1.4477,1.4091,1.3656,1.351,1.3406,1.3228,1.2944,1.3113,1.3284,-2.4591,-2.4445,-2.2925,-2.2252,-2.226,-2.2286,-2.2286,-2.2286,-2.2286,-2.2244,-2.2187,-2.2118,-2.1586,-2.0788,-2.0788,0.0,-2.1009,-2.1759,-2.2571,-2.339,-2.3388,-2.3727,-2.4389,-2.4321,-2.4266,-2.4183,-2.3456,-2.3098,-2.3042,-2.2287,-2.1943,-2.189,-1.8969,-1.7473,-1.7504,-1.8149,-1.8479,-1.8497,-1.9263,-1.963,-1.9481,-1.7994,-1.6394,-1.4733,-1.4635,-1.3803,-1.2183,-1.2086,-1.1365,-0.9808,-0.9653,-0.9268,-0.8529,0.0,0.0,0.0,0.0,0.0,0.0,0.0,0.0,0.0,0.0,0.0,0.0,0.0,0.0,0.0,-0.7699,0.0,-0.7889,-0.8635,0.0,0.0,0.0,-1.1711,-1.2492,-1.2538,-1.2763,-1.3507,0.0,0.0,-1.5982,0.0,-1.8204,-1.754,-1.7341,-1.7144,-1.678,-1.6441,-1.6187,-1.6355,-1.5773,-1.5258,-1.4789,-1.3185,-1.0018,-0.4809,-0.0561,0.3003,0.6225,0.8945,1.1151,1.2799,1.3875,1.4717,1.5242,1.5418,1.5389,1.4926,1.4613,1.434,1.3992,1.3875,1.3776,-2.5273,-2.518,-2.4128,-2.3731,-2.3774,-2.3828,-2.3864,-2.3845,-2.3864,-2.3845,-2.3791,-2.3083,-2.233,-2.1542,-2.1539,-2.1896,-2.2484,-2.2792,-2.3336,-2.4113,-2.4133,-2.4226,-2.4375,-2.4284,-2.421,-2.4183,-2.4007,-2.3924,-2.3878,-2.3098,-2.2721,-2.2665,-2.134,-2.0409,-1.9881,-1.9459,-1.9233,-1.9242,-1.9441,-1.894,-1.777,-1.7331,-1.6293,-1.4593,-1.4526,-1.3761,-1.2173,-1.2076,-1.1365,-0.979,-0.9635,-0.9505,-0.9319,-0.8559,0.0,0.0,0.0,0.0,0.0,0.0,0.0,0.0,0.0,-0.6546,-0.734,0.0,-0.7537,0.0,-0.8217,-0.8899,-0.9548,-1.0321,0.0,0.0,-1.2134,-1.2509,-1.3259,-1.3269,-1.3761,-1.5062,-1.5399,-1.6077,-1.7482,-1.7969,-1.8322,-1.8621,-1.8669,-1.851,-1.8039,-1.7428,-1.6836,-1.6219,-1.5371,-1.4464,-1.3253,-0.9943,-0.6113,-0.2134,0.1571,0.5004,0.8137,1.0623,1.2746,1.4194,1.5198,1.5894,1.6397,1.6478,1.6402,1.6152,1.5506,1.4827,1.4422,1.434,1.4259,-2.5832,-2.5462,-2.4953,-2.4559,-2.4257,-2.4294,-2.4312,-2.4312,-2.4312,-2.4331,-2.4284,-2.3769,-2.329,-2.2877,-2.2868,-2.3097,-2.3548,-2.3612,-2.3879,-2.4312,-2.4294,-2.4312,-2.4312,-2.4238,-2.4209,-2.4191,-2.4199,-2.4199,-2.4181,-2.3749,-2.3547,-2.3511,-2.2721,-2.2124,-2.1686,-2.0536,-1.977,-1.9413,-1.9413,-1.8804,-1.7598,-1.721,-1.638,-1.5086,-1.4694,-1.3734,-1.215,-1.2076,-1.1342,-0.9794,-0.9653,-0.9619,-0.9601,-0.884,-0.8395,0.0,0.0,0.0,0.0,0.0,0.0,0.0,0.0,0.0,0.0,0.0,-0.8821,0.0,-0.9727,-1.0355,-1.125,-1.1697,-1.2231,-1.3013,-1.3057,-1.3323,-1.4052,-1.4373,-1.4871,-1.5655,-1.6417,-1.7179,-1.8023,-1.8331,-1.858,-1.8841,-1.8735,-1.8479,-1.8069,-1.7433,-1.663,-1.5644,-1.4555,-1.296,-1.0743,-0.7024,-0.3333,0.0021,0.3489,0.6807,0.976,1.2154,1.4154,1.5509,1.6403,1.7015,1.7394,1.7433,1.7329,1.7064,1.662,1.5984,1.5286,1.5062,1.4926,-2.6446,-2.5784,-2.5615,-2.5172,-2.4502,-2.4502,-2.4392,-2.4199,-2.4199,-2.4199,-2.4199,-2.4199,-2.4199,-2.4199,-2.4199,-2.4199,-2.4199,-2.4199,-2.4199,-2.4199,-2.4199,-2.4199,-2.4199,-2.4199,-2.4199,-2.4199,-2.4199,-2.4199,-2.4199,-2.4199,-2.4199,-2.4171,-2.3501,-2.3098,-2.2933,-2.1447,-2.0225,-1.9315,-1.9279,-1.8904,-1.8108,-1.7312,-1.6505,-1.571,-1.4909,-1.3809,-1.2324,-1.2145,-1.1388,-0.9944,-0.9696,-0.9611,-0.9593,-0.8924,-0.8555,0.0,-0.7959,0.0,0.0,0.0,0.0,0.0,0.0,0.0,0.0,-1.0316,-1.0733,-1.148,-1.1566,-1.1903,-1.2755,-1.2752,-1.3014,-1.3732,-1.3838,-1.4111,-1.4873,-1.5498,-1.5916,-1.598,-1.7284,-1.8122,-1.8149,-1.8598,-1.8824,-1.8539,-1.8108,-1.7709,-1.7346,-1.6722,-1.5884,-1.4793,-1.3316,-1.097,-0.7686,-0.4575,-0.1516,0.1807,0.5112,0.834,1.1164,1.3449,1.5324,1.6618,1.7446,1.8,1.8278,1.8278,1.8133,1.791,1.7735,1.7306,1.6346,1.5941,1.5774,-2.7497,-2.7295,-2.666,-2.6282,-2.6153,-2.6153,-2.5401,-2.4199,-2.4199,-2.4199,-2.4199,-2.4199,-2.4199,-2.4199,-2.4199,-2.4199,-2.4199,-2.4199,-2.4199,-2.4199,-2.4199,-2.4199,-2.4199,-2.4199,-2.4199,-2.4199,-2.4199,-2.4199,-2.4199,-2.4199,-2.4199,-2.4199,-2.4043,-2.3657,-2.2988,0.0,0.0,0.0,-1.9279,-1.8904,-1.8108,-1.7312,-1.6517,-1.5704,-1.4928,0.0,-1.3043,-1.2355,-1.1579,-1.064,-0.9949,0.0,0.0,0.0,0.0,0.0,0.0,0.0,0.0,0.0,0.0,0.0,-1.068,-1.0807,-1.0967,-1.1681,-1.221,-1.2355,-1.2377,-1.2669,-1.3433,-1.3452,-1.3726,-1.4478,-1.4527,-1.4815,-1.5583,-1.5781,-1.6233,-1.7449,-1.7804,-1.8141,-1.8544,-1.8627,-1.8455,-1.8083,-1.7631,-1.7007,-1.6186,-1.5802,-1.5139,-1.3847,-1.1354,-0.8512,-0.5775,-0.2954,-0.0043,0.3204,0.6342,0.9318,1.208,1.4195,1.5967,1.7343,1.8203,1.8744,1.8978,1.8967,1.8855,1.8691,1.8572,1.8188,1.7167,1.6926,1.6848,-2.8172,0.0,-2.7365,-2.6979,0.0,-2.6602,-2.6135,-2.5373,-2.5373,-2.5162,-2.4805,-2.4787,-2.4585,-2.4199,-2.4199,-2.4199,-2.4199,-2.4199,-2.4199,-2.4199,-2.4199,-2.4199,-2.4199,-2.4199,-2.4199,-2.4199,-2.4199,-2.4199,-2.4199,-2.4199,-2.4199,-2.4199,-2.4199,-2.3978,-2.3528,-2.2328,-2.0926,-1.9315,-1.9292,-1.9101,-1.8683,-1.7881,-1.7055,-1.6278,0.0,0.0,0.0,0.0,0.0,0.0,0.0,0.0,0.0,0.0,0.0,-0.9563,-0.9995,-1.0266,-1.0312,-1.0707,-1.1181,-1.1615,-1.2098,-1.2239,-1.1873,-1.2271,-1.2731,-1.3141,-1.3167,-1.3461,-1.4198,-1.4241,-1.4335,-1.4671,-1.498,-1.5358,-1.5753,-1.6401,-1.7118,-1.7768,-1.8187,-1.8457,-1.8607,-1.8385,-1.8035,-1.7608,-1.7044,-1.6338,-1.5418,-1.5004,-1.4131,-1.1883,-0.9388,-0.6764,-0.4312,-0.1625,0.119,0.4223,0.7204,1.005,1.2735,1.4805,1.6526,1.7823,1.8664,1.9208,1.9408,1.9439,1.9388,1.928,1.9175,1.898,1.8412,1.8079,1.781,-2.8601,-2.8007,-2.8007,-2.764,-2.7024,-2.7024,-2.7005,-2.7005,0.0,0.0,0.0,-2.5613,-2.5172,-2.442,-2.442,-2.4337,-2.4199,-2.4199,-2.4199,-2.4199,-2.4199,-2.4199,-2.4199,-2.4199,-2.4199,-2.4199,-2.4199,-2.4199,-2.4199,-2.4199,-2.4199,-2.4208,-2.4208,-2.4078,-2.3772,-2.2464,-2.0997,-1.9528,-1.9337,-1.9266,-1.9248,-1.8416,-1.766,-1.6972,-1.5986,-1.4792,-1.3441,-1.3112,-1.2341,-1.1068,-1.0838,-1.0486,-0.991,-0.987,-0.9906,-0.9938,-1.059,-1.1018,-1.1095,-1.176,-1.2257,-1.2404,-1.3264,-1.3481,-1.2734,-1.2835,-1.3211,-1.3913,-1.3937,-1.4168,-1.4789,-1.4944,-1.491,-1.4809,-1.5435,-1.5866,-1.6064,-1.7034,-1.7818,-1.7989,-1.8387,-1.8648,-1.8398,-1.8037,-1.7591,-1.7089,-1.6444,-1.5474,-1.4379,-1.37,-1.2511,-0.9839,-0.7617,-0.5418,-0.3002,-0.0413,0.232,0.5051,0.7913,1.0636,1.3061,1.5178,1.6855,1.8121,1.8945,1.9428,1.9676,1.9774,1.9792,1.9693,1.9613,1.9594,1.9538,1.9162,1.8797,-2.8913,-2.8822,-2.884,-2.8767,-2.8656,-2.8656,-2.8656,-2.8546,-2.7207,-2.6528,-2.6447,-2.6429,-2.5988,-2.5227,-2.5237,-2.486,-2.4218,-2.4199,-2.4199,0.0,-2.4199,-2.4199,-2.4199,-2.4199,-2.4199,-2.4199,-2.4199,-2.4199,-2.4199,-2.4199,-2.4199,-2.419,-2.4151,-2.3725,-2.2943,-2.2544,-2.1601,-2.0102,-1.9437,-1.9123,-1.9105,-1.8272,-1.7748,-1.7529,-1.6074,-1.5156,-1.4901,-1.3551,-1.271,-1.2406,-1.1735,-1.1353,-1.13,-1.1316,-1.1426,-1.1479,-1.1628,-1.1768,-1.1834,-1.2039,-1.2479,-1.3277,-1.4078,-1.4227,-1.3542,-1.4132,-1.4577,-1.4675,-1.463,-1.4649,-1.4766,-1.5251,-1.5539,-1.5508,-1.6085,-1.6725,-1.7302,-1.7542,-1.7879,-1.8358,-1.8409,-1.8259,-1.7997,-1.7636,-1.7126,-1.6499,-1.5632,-1.4432,-1.2345,-1.1366,-1.0323,-0.8402,-0.6335,-0.4149,-0.1768,0.0697,0.3316,0.5922,0.8546,1.1082,1.3392,1.5293,1.6915,1.8165,1.9002,1.9523,1.9821,1.9995,2.0011,1.9944,1.9915,1.9934,1.9911,1.9829,1.9712,-2.8987,-2.8987,-2.8987,-2.8987,-2.8987,-2.8987,-2.8987,-2.8932,-2.8182,-2.7585,-2.7218,-2.7149,-2.6688,-2.5931,-2.5474,-2.51,-2.4724,-2.4333,-2.4151,-2.4151,-2.417,-2.4199,-2.4199,-2.4199,-2.4199,-2.4199,-2.4199,-2.4199,-2.419,-2.4161,-2.4151,-2.4141,-2.3958,-2.3635,-2.3166,-2.2625,-2.1753,-2.0664,-1.9938,-1.9381,-1.8931,-1.8511,-1.8021,-1.7507,-1.6321,-1.5504,-1.4986,-1.3894,-1.306,-1.2599,-1.2244,-1.1882,-1.1519,-1.1557,-1.163,-1.1759,-1.2226,-1.2522,-1.2601,-1.3088,-1.3593,-1.4065,-1.4438,-1.4514,-1.4167,-1.4541,-1.478,-1.4761,-1.5088,-1.5316,-1.526,-1.5888,-1.6267,-1.6152,-1.6733,-1.7258,-1.7541,-1.7896,-1.8128,-1.8281,-1.8156,-1.791,-1.7618,-1.7175,-1.6583,-1.5846,-1.4539,-1.2621,-1.0475,-0.9067,-0.7958,-0.6715,-0.4789,-0.2611,-0.0394,0.2004,0.4452,0.6888,0.9312,1.1632,1.376,1.5576,1.7018,1.822,1.905,1.9588,1.9899,2.0069,2.0127,2.0157,2.0161,2.0173,2.0211,2.0234,2.0157,-2.9215,-2.9227,-2.9032,-2.897,-2.8982,-2.8959,-2.897,-2.8952,-2.8875,-2.8481,-2.7964,-2.7868,-2.7389,-2.6613,-2.5976,-2.5492,-2.512,-2.46,-2.4247,-2.4064,-2.4113,-2.4161,-2.417,-2.417,-2.418,-2.4208,-2.418,-2.417,-2.417,-2.4094,-2.4044,-2.3994,-2.3742,-2.3598,-2.3504,-2.2757,-2.1876,-2.0914,-2.0364,-1.9672,-1.8787,-1.8659,-1.8255,-1.7552,-1.6763,-1.5941,-1.5046,-1.4295,-1.3545,-1.2785,-1.2714,-1.2475,-1.1954,-1.1962,-1.2058,-1.2237,-1.2835,-1.3274,-1.3401,-1.4064,-1.4584,-1.4835,-1.4864,-1.4944,-1.511,-1.5189,-1.5118,-1.5054,-1.5599,-1.5993,-1.6009,-1.6547,-1.6928,-1.6856,-1.7345,-1.77,-1.7632,-1.7987,-1.8194,-1.8001,-1.78,-1.7526,-1.7163,-1.668,-1.5904,-1.4705,-1.2918,-1.0941,-0.9113,-0.7195,-0.5756,-0.4495,-0.2968,-0.1027,0.1116,0.3369,0.5649,0.7893,1.0076,1.2182,1.412,1.5829,1.7195,1.8265,1.906,1.96,1.9925,2.0115,2.0219,2.0282,2.0312,2.0329,2.039,2.04,2.0374,-2.9892,-2.9788,-2.915,-2.8858,-2.8887,-2.8834,-2.8846,-2.8881,-2.8767,-2.8669,-2.8492,-2.856,-2.8118,-2.7453,-2.7206,-2.6355,-2.5106,-2.502,-2.4598,-2.3971,-2.3986,-2.4064,-2.4094,-2.4103,-2.4123,-2.417,-2.4141,-2.4103,-2.4112,-2.3986,-2.3863,-2.3714,-2.3533,-2.336,-2.3223,-2.294,-2.2096,-2.0599,-2.0431,-1.9787,-1.8688,-1.8438,-1.8303,-1.8216,-1.7292,-1.648,-1.5723,-1.4949,-1.417,-1.3503,-1.3384,-1.3389,-1.3373,-1.3453,-1.3529,-1.3657,-1.3807,-1.398,-1.4154,-1.4338,-1.4776,-1.5502,-1.5662,-1.5968,-1.6619,-1.6761,-1.6423,-1.5967,-1.6289,-1.6629,-1.6588,-1.7134,-1.7468,-1.7383,-1.7835,-1.8186,-1.8011,-1.7913,-1.7794,-1.7658,-1.742,-1.7101,-1.6709,-1.613,-1.5035,-1.3301,-1.1622,-0.9791,-0.784,-0.587,-0.3856,-0.2168,-0.0749,0.0614,0.2645,0.4734,0.6812,0.8838,1.0817,1.2733,1.4485,1.5953,1.7235,1.8265,1.9006,1.9541,1.9877,2.0102,2.0254,2.0354,2.0388,2.0405,2.0482,2.0495,2.046,-3.0308,-2.9855,-2.9528,-2.9136,-2.8748,-2.8687,-2.8687,-2.8712,-2.8569,-2.851,-2.8476,-2.8335,-2.8174,-2.7923,-2.7371,-2.6478,-2.5404,-2.4991,-2.4401,-2.3772,-2.3785,-2.3847,-2.3917,-2.3947,-2.3996,-2.4016,-2.4026,-2.4016,-2.3966,-2.3821,-2.3638,-2.3464,-2.3247,-2.3107,-2.2952,-2.2816,-2.1927,-2.0386,-2.0293,-1.9619,-1.8402,-1.8211,-1.8142,-1.7992,-1.7274,-1.6693,-1.6254,-1.5188,-1.4397,-1.4083,-1.3676,-1.3453,-1.3486,-1.3591,-1.3677,-1.3788,-1.3919,-1.4057,-1.4174,-1.4678,-1.5174,-1.5629,-1.6143,-1.6603,-1.6917,-1.7381,-1.7449,-1.7133,-1.7289,-1.7403,-1.7311,-1.7772,-1.8071,-1.7972,-1.8062,-1.8035,-1.7833,-1.7664,-1.7496,-1.7276,-1.7039,-1.6735,-1.6215,-1.5212,-1.3807,-1.2101,-1.0456,-0.8661,-0.6625,-0.4594,-0.2498,-0.0463,0.1123,0.25,0.4001,0.5866,0.7876,0.9753,1.1615,1.3398,1.4919,1.6284,1.7439,1.8339,1.8964,1.9476,1.9868,2.0088,2.0258,2.0363,2.0451,2.0485,2.0501,2.0509,2.0501,-3.0804,-3.0246,-2.9832,-2.9179,-2.8484,-2.8497,-2.8497,-2.8515,-2.8367,-2.8318,-2.8277,-2.8028,-2.7954,-2.7978,-2.738,-2.6666,-2.5866,-2.5139,-2.442,-2.3808,-2.3683,-2.3657,-2.3728,-2.3792,-2.3834,-2.3837,-2.3894,-2.3845,-2.375,-2.3553,-2.3365,-2.3193,-2.2977,-2.2842,-2.2729,-2.2609,-2.1865,-2.0615,-2.0296,-1.9517,-1.8421,-1.8107,-1.7977,-1.7871,-1.7362,-1.6957,-1.6682,-1.5663,-1.4892,-1.4511,-1.3972,-1.3616,-1.3412,-1.3493,-1.3659,-1.3971,-1.4161,-1.4384,-1.4684,-1.5311,-1.5829,-1.6203,-1.6841,-1.7285,-1.7581,-1.806,-1.8317,-1.8221,-1.8195,-1.8078,-1.8003,-1.8222,-1.8336,-1.816,-1.796,-1.7743,-1.7507,-1.7325,-1.713,-1.6876,-1.6644,-1.6256,-1.5521,-1.4185,-1.2667,-1.1131,-0.9404,-0.7516,-0.5466,-0.3438,-0.1435,0.0575,0.2427,0.3916,0.505,0.6796,0.8759,1.0487,1.2242,1.3797,1.5315,1.6498,1.7524,1.8288,1.8922,1.9414,1.9762,2.0007,2.0238,2.0349,2.0446,2.0508,2.0516,2.0506,2.0498,-3.144,-3.1206,-2.9822,-2.8866,-2.825,-2.8219,-2.8242,-2.8286,-2.815,-2.8085,-2.8,-2.7736,-2.7587,-2.7557,-2.75,-2.711,-2.632,-2.5655,-2.4892,-2.4115,-2.3667,-2.3471,-2.3497,-2.3582,-2.3631,-2.3689,-2.3714,-2.3623,-2.343,-2.3229,-2.3057,-2.2902,-2.2725,-2.2579,-2.2528,-2.246,-2.1987,-2.1115,-2.0458,-1.965,-1.8872,-1.8178,-1.789,-1.7872,-1.7794,-1.7399,-1.6807,-1.6654,-1.5977,-1.4571,-1.4487,-1.4158,-1.3532,-1.348,-1.3896,-1.4631,-1.4819,-1.525,-1.597,-1.6246,-1.6679,-1.7469,-1.7718,-1.8198,-1.8765,-1.8947,-1.898,-1.9005,-1.8753,-1.8591,-1.8398,-1.8246,-1.8114,-1.7844,-1.7589,-1.7361,-1.7138,-1.6901,-1.6712,-1.6485,-1.6176,-1.5492,-1.4367,-1.3171,-1.1732,-1.0098,-0.8319,-0.6437,-0.4436,-0.249,-0.0664,0.1086,0.2876,0.4539,0.602,0.7548,0.9301,1.0941,1.2435,1.3953,1.5242,1.6449,1.7387,1.8223,1.8823,1.931,1.9632,1.9917,2.0157,2.0308,2.0442,2.0484,2.049,2.0501,2.0469,-3.1616,-3.0987,-2.9444,-2.8684,-2.8478,-2.8035,-2.785,-2.7904,-2.7777,-2.7707,-2.763,-2.7402,-2.7277,-2.7263,-2.7168,-2.6786,-2.6154,-2.5875,-2.5109,-2.4039,-2.3794,-2.3525,-2.3193,-2.3247,-2.3342,-2.3429,-2.3499,-2.3407,-2.3199,-2.302,-2.2855,-2.2712,-2.2538,-2.246,-2.2436,-2.238,-2.1952,-2.1241,-2.0873,-2.0162,-1.9029,-1.8623,-1.8313,-1.7861,-1.7822,-1.7693,-1.7422,-1.6959,-1.6445,-1.59,-1.547,-1.5097,-1.4862,-1.4856,-1.5013,-1.5326,-1.545,-1.5652,-1.6054,-1.6633,-1.7161,-1.7634,-1.8237,-1.8673,-1.904,-1.9069,-1.8991,-1.8941,-1.8751,-1.8516,-1.8283,-1.8114,-1.7899,-1.763,-1.7325,-1.7055,-1.6815,-1.6581,-1.6382,-1.608,-1.5507,-1.4601,-1.3519,-1.233,-1.0891,-0.9138,-0.7388,-0.5556,-0.3673,-0.1816,-0.0111,0.1532,0.3212,0.4851,0.6401,0.7985,0.9613,1.1145,1.2633,1.4019,1.5345,1.6397,1.7358,1.8142,1.8753,1.9237,1.9573,1.9934,2.0148,2.0266,2.0391,2.0429,2.0447,2.042,2.0352,-3.1514,-3.0612,-2.94,-2.874,-2.8459,-2.7761,-2.7509,-2.7522,-2.7432,-2.7388,-2.7308,-2.7152,-2.7039,-2.7006,-2.6875,-2.662,-2.6221,-2.5982,-2.5347,-2.4428,-2.4029,-2.3607,-2.3267,-2.3066,-2.304,-2.3151,-2.3217,-2.3156,-2.3008,-2.2803,-2.2663,-2.2525,-2.2419,-2.2349,-2.2366,-2.2307,-2.2023,-2.1613,-2.1343,-2.0649,-1.9701,-1.9142,-1.8691,-1.8217,-1.7918,-1.7789,-1.7783,-1.7304,-1.6925,-1.6682,-1.6214,-1.5859,-1.5656,-1.5651,-1.579,-1.5962,-1.6099,-1.6267,-1.6595,-1.7209,-1.766,-1.7843,-1.8414,-1.8843,-1.8923,-1.8861,-1.8825,-1.8769,-1.8582,-1.8338,-1.8125,-1.7877,-1.7641,-1.738,-1.7064,-1.6779,-1.6488,-1.6258,-1.591,-1.5433,-1.4754,-1.3835,-1.2721,-1.1446,-0.9916,-0.8206,-0.6502,-0.4746,-0.2964,-0.1378,0.0223,0.1757,0.3281,0.4825,0.6331,0.7891,0.9535,1.1082,1.2465,1.392,1.5198,1.6262,1.7228,1.8004,1.8636,1.9125,1.954,1.9907,2.0093,2.0204,2.0275,2.0321,2.0305,2.0295,2.0204,-3.1148,-3.0407,-2.9676,-2.8973,-2.8287,-2.7613,-2.7231,-2.723,-2.7133,-2.7119,-2.712,-2.6975,-2.6892,-2.6876,-2.6758,-2.6691,-2.6555,-2.6078,-2.5721,-2.5429,-2.4374,-2.3793,-2.3584,-2.3068,-2.2842,-2.2906,-2.2919,-2.285,-2.279,-2.2605,-2.2474,-2.2422,-2.2335,-2.231,-2.231,-2.2296,-2.2279,-2.2093,-2.1617,-2.119,-2.1021,-1.9802,-1.9029,-1.8775,-1.8205,-1.7856,-1.78,-1.7766,-1.7422,-1.6857,-1.6739,-1.6377,-1.59,-1.5808,-1.6001,-1.6604,-1.6764,-1.7173,-1.7761,-1.799,-1.8107,-1.8256,-1.8497,-1.8584,-1.8622,-1.8612,-1.8593,-1.8563,-1.8426,-1.8225,-1.8035,-1.7676,-1.7349,-1.7113,-1.6841,-1.653,-1.6232,-1.5882,-1.5404,-1.469,-1.4025,-1.317,-1.1933,-1.0612,-0.9096,-0.743,-0.5775,-0.4148,-0.2551,-0.1136,0.029,0.1738,0.3174,0.463,0.6156,0.7706,0.9351,1.0945,1.2289,1.3638,1.4871,1.5965,1.6959,1.7802,1.8616,1.9111,1.9518,1.9851,1.9965,2.0073,2.0142,2.0171,2.0139,2.0114,1.9988,-3.1172,-3.0881,-3.0187,-2.9495,-2.8782,-2.8049,-2.7502,-2.7089,-2.6974,-2.6975,-2.6942,-2.6825,-2.6775,-2.6759,-2.6725,-2.6708,-2.6674,-2.6471,-2.6132,-2.5624,-2.518,-2.446,-2.3687,-2.334,-2.3065,-2.2758,-2.2681,-2.2659,-2.2579,-2.2487,-2.2391,-2.2338,-2.231,-2.2313,-2.2313,-2.2313,-2.2313,-2.2262,-2.2076,-2.1718,-2.1258,-2.0733,-1.998,-1.8923,-1.8591,-1.8259,-1.7703,-1.7755,-1.7681,-1.7428,-1.7456,-1.7337,-1.7141,-1.7068,-1.7126,-1.7294,-1.7328,-1.7395,-1.7659,-1.7839,-1.7992,-1.8159,-1.8229,-1.831,-1.8371,-1.8351,-1.832,-1.8318,-1.8184,-1.8048,-1.785,-1.7502,-1.7216,-1.7055,-1.6701,-1.6355,-1.601,-1.5521,-1.4862,-1.4168,-1.345,-1.2489,-1.127,-0.9935,-0.8512,-0.6946,-0.5411,-0.3898,-0.2487,-0.1226,0.0089,0.1515,0.2948,0.4352,0.5838,0.7314,0.8873,1.0463,1.1879,1.3268,1.4505,1.566,1.6655,1.767,1.8486,1.9064,1.9469,1.9707,1.9809,1.9912,1.9952,1.9962,1.9952,1.9858,1.9711,-3.119,-3.1123,-3.0412,-2.9856,-2.9336,-2.8387,-2.7708,-2.7283,-2.6944,-2.6842,-2.6809,-2.6725,-2.6708,-2.6708,-2.6708,-2.6708,-2.6708,-2.6708,-2.6455,-2.5965,-2.5644,-2.5052,-2.4199,-2.3655,-2.3133,-2.262,-2.2528,-2.2501,-2.246,-2.2408,-2.2338,-2.231,-2.2313,-2.2313,-2.2313,-2.2313,-2.2313,-2.2313,-2.2296,-2.2062,-2.1623,-2.1272,-2.0625,-1.963,-1.9014,-1.8463,-1.794,-1.7716,-1.7647,-1.7732,-1.7755,-1.7777,-1.776,-1.767,-1.7607,-1.7514,-1.7462,-1.7462,-1.7455,-1.7594,-1.7726,-1.7883,-1.7943,-1.8012,-1.8114,-1.8121,-1.81,-1.81,-1.8031,-1.7911,-1.7738,-1.7432,-1.7142,-1.6942,-1.657,-1.6165,-1.574,-1.5135,-1.4517,-1.3809,-1.3049,-1.1997,-1.0786,-0.9455,-0.8077,-0.6609,-0.525,-0.3949,-0.2645,-0.145,-0.0156,0.1158,0.2576,0.4014,0.5487,0.6933,0.8395,0.9906,1.1417,1.2805,1.4142,1.5301,1.6375,1.7597,1.855,1.893,1.9309,1.9499,1.9611,1.9688,1.9751,1.9707,1.9651,1.9491,1.9327,-3.119,-3.1106,-3.0463,-3.0159,-2.9888,-2.8636,-2.7977,-2.7672,-2.7114,-2.6793,-2.6708,-2.6691,-2.6708,-2.6708,-2.6708,-2.6708,-2.6708,-2.6691,-2.6624,-2.6337,-2.59,-2.5413,-2.5124,-2.3943,-2.3071,-2.2632,-2.2459,-2.2377,-2.2363,-2.2324,-2.2282,-2.2265,-2.2268,-2.2282,-2.2268,-2.2282,-2.2251,-2.2268,-2.2268,-2.2206,-2.2082,-2.1465,-2.0927,-2.0608,-1.9482,-1.8658,-1.8243,-1.7634,-1.738,-1.7549,-1.7641,-1.7676,-1.7676,-1.7618,-1.7519,-1.732,-1.7296,-1.7236,-1.7228,-1.7288,-1.742,-1.7549,-1.7641,-1.7738,-1.7839,-1.7872,-1.7883,-1.7944,-1.7911,-1.7816,-1.7658,-1.7384,-1.7064,-1.6776,-1.6382,-1.5912,-1.5269,-1.4782,-1.4262,-1.3555,-1.2714,-1.1752,-1.0541,-0.9187,-0.7859,-0.6573,-0.5298,-0.4099,-0.2956,-0.1804,-0.0624,0.0712,0.2133,0.3581,0.5036,0.6518,0.7954,0.9396,1.0879,1.2301,1.3853,1.511,1.6253,1.7479,1.8365,1.8762,1.9058,1.9227,1.9361,1.9423,1.9438,1.9409,1.9257,1.9089,1.8837,-3.119,-3.1173,-3.0987,-3.0598,-3.0106,-2.9616,-2.8804,-2.7858,-2.7604,-2.7182,-2.681,-2.6708,-2.6708,-2.6708,-2.6708,-2.6708,-2.6674,-2.6657,-2.6572,-2.6418,-2.6075,-2.5662,-2.5096,-2.3843,-2.3117,-2.2965,-2.2541,-2.2254,-2.2257,-2.2242,-2.2166,-2.2087,-2.2089,-2.2073,-2.2087,-2.2073,-2.2073,-2.2073,-2.2073,-2.2061,-2.1972,-2.1732,-2.1232,-2.056,-2.0023,-1.916,-1.82,-1.7403,-1.715,-1.7432,-1.7509,-1.7584,-1.7612,-1.7502,-1.7372,-1.724,-1.7113,-1.7072,-1.7054,-1.7047,-1.7101,-1.7211,-1.7296,-1.7396,-1.7531,-1.7584,-1.763,-1.7681,-1.7681,-1.763,-1.7531,-1.7272,-1.6901,-1.6439,-1.6109,-1.5711,-1.5164,-1.4674,-1.4149,-1.3353,-1.2526,-1.1527,-1.0397,-0.9167,-0.7908,-0.6755,-0.5604,-0.4461,-0.3378,-0.2273,-0.1137,0.0223,0.1622,0.3074,0.4561,0.6047,0.7487,0.8904,1.032,1.1735,1.3428,1.511,1.6286,1.749,1.7999,1.8424,1.8699,1.892,1.9023,1.9091,1.9048,1.8971,1.8762,1.8582,1.828,-3.119,-3.119,-3.119,-3.0954,-3.0531,-3.0243,-2.9414,-2.8383,-2.7908,-2.7384,-2.6826,-2.6708,-2.6708,-2.6708,-2.6674,-2.6657,-2.664,-2.6538,-2.6383,-2.6189,-2.5848,-2.5455,-2.4925,-2.4083,-2.36,-2.3122,-2.2735,-2.2381,-2.2116,-2.2051,-2.1988,-2.1928,-2.1899,-2.1899,-2.1911,-2.1884,-2.1899,-2.1897,-2.1913,-2.1868,-2.1783,-2.1693,-2.1361,-2.0722,-2.0298,-1.9363,-1.823,-1.7484,-1.7174,-1.7252,-1.7325,-1.7396,-1.742,-1.732,-1.7199,-1.7055,-1.6904,-1.6818,-1.6795,-1.6751,-1.6799,-1.6914,-1.7005,-1.7105,-1.7216,-1.7313,-1.7356,-1.7467,-1.7479,-1.7444,-1.7377,-1.7126,-1.6722,-1.6303,-1.5984,-1.5624,-1.5134,-1.4688,-1.41,-1.3357,-1.2508,-1.1557,-1.0513,-0.9295,-0.8154,-0.7085,-0.6012,-0.4952,-0.3909,-0.278,-0.1627,-0.0312,0.109,0.2549,0.404,0.5535,0.7155,0.8573,1.0273,1.1575,1.3108,1.4917,1.602,1.6987,1.7557,1.8027,1.8251,1.8457,1.855,1.8578,1.8559,1.8409,1.8186,1.7906,1.7631,-3.119,-3.1188,-3.119,-3.119,-3.1052,-3.0478,-2.9837,-2.9061,-2.8332,-2.7571,-2.6979,-2.6742,-2.6691,-2.6691,-2.6623,-2.6589,-2.6537,-2.6365,-2.6066,-2.5793,-2.5441,-2.5091,-2.481,-2.4631,-2.4098,-2.3405,-2.3087,-2.2571,-2.2126,-2.1898,-2.1753,-2.1693,-2.1648,-2.1646,-2.163,-2.1648,-2.1678,-2.1708,-2.1723,-2.1631,-2.151,-2.1387,-2.1166,-2.0831,-2.002,-1.9311,-1.8486,-1.7834,-1.7412,-1.7155,-1.7165,-1.7154,-1.7167,-1.7113,-1.7005,-1.6828,-1.6686,-1.6554,-1.6501,-1.6488,-1.6501,-1.6617,-1.6712,-1.6802,-1.693,-1.7014,-1.7113,-1.7211,-1.7276,-1.724,-1.7154,-1.6876,-1.6552,-1.622,-1.5998,-1.5683,-1.5239,-1.4735,-1.4181,-1.3564,-1.2631,-1.1704,-1.0733,-0.9649,-0.846,-0.7481,-0.6404,-0.5384,-0.4365,-0.3287,-0.2111,-0.089,0.0555,0.2023,0.3534,0.5019,0.6689,0.8294,1.0263,1.178,1.3006,1.4489,1.559,1.646,1.697,1.7396,1.7732,1.7896,1.7978,1.7939,1.784,1.7687,1.7483,1.7152,1.6851,-3.1131,-3.1035,-3.1151,-3.1131,-3.1055,-3.0982,-3.0531,-2.9786,-2.9059,-2.828,-2.7553,-2.6962,-2.6708,-2.664,-2.6588,-2.6486,-2.6277,-2.6064,-2.574,-2.5153,-2.5005,-2.4819,-2.4622,-2.4489,-2.4333,-2.3893,-2.3063,-2.254,-2.2278,-2.1756,-2.1433,-2.1341,-2.1294,-2.1246,-2.1182,-2.1261,-2.1294,-2.1324,-2.1371,-2.134,-2.1183,-2.1023,-2.0844,-2.0565,-1.9756,-1.9189,-1.883,-1.8266,-1.793,-1.7741,-1.7302,-1.7043,-1.7091,-1.7068,-1.6962,-1.6775,-1.6559,-1.6409,-1.6342,-1.626,-1.6234,-1.6315,-1.6436,-1.6514,-1.6591,-1.6725,-1.6812,-1.6901,-1.6952,-1.6939,-1.6837,-1.6657,-1.6421,-1.615,-1.5941,-1.5726,-1.5374,-1.489,-1.4324,-1.3622,-1.2807,-1.1879,-1.0973,-0.9913,-0.8824,-0.7839,-0.682,-0.5808,-0.4769,-0.3748,-0.2576,-0.1379,0.0,0.1489,0.3099,0.4751,0.6647,0.8171,0.9992,1.152,1.2756,1.3863,1.487,1.5662,1.6316,1.6706,1.7044,1.7166,1.7221,1.7166,1.7065,1.6851,1.6636,1.6338,1.6068,-3.0915,-3.0855,-3.0875,-3.0855,-3.0875,-3.0918,-3.0572,-2.9955,-2.9517,-2.8912,-2.8118,-2.7361,-2.7023,-2.6919,-2.6495,-2.6152,-2.5919,-2.5589,-2.5188,-2.4771,-2.4564,-2.4446,-2.4395,-2.4255,-2.42,-2.4147,-2.3275,-2.2648,-2.2116,-2.152,-2.1023,-2.0957,-2.0876,-2.0811,-2.0763,-2.0844,-2.0893,-2.0957,-2.1023,-2.099,-2.0826,-2.0695,-2.046,-2.0222,-1.9678,-1.9392,-1.931,-1.8755,-1.8469,-1.8262,-1.7806,-1.746,-1.749,-1.7355,-1.7155,-1.6972,-1.6536,-1.6292,-1.6165,-1.6109,-1.6067,-1.6109,-1.6191,-1.6262,-1.6315,-1.6409,-1.649,-1.6554,-1.662,-1.6633,-1.6567,-1.6474,-1.6301,-1.6109,-1.5927,-1.5741,-1.5433,-1.5014,-1.4517,-1.3871,-1.3118,-1.2259,-1.1297,-1.0234,-0.9193,-0.8187,-0.7182,-0.617,-0.5147,-0.4103,-0.3001,-0.1781,-0.049,0.0978,0.2634,0.4526,0.671,0.8204,0.9651,1.0902,1.1997,1.3048,1.4068,1.4853,1.5621,1.5963,1.6249,1.6356,1.6404,1.6309,1.6173,1.597,1.5776,1.5505,1.5257,-3.063,-3.0605,-3.0468,-3.0526,-3.0589,-3.063,-3.0342,-2.9869,-2.9688,-2.9218,-2.8629,-2.784,-2.7468,-2.7243,-2.6644,-2.608,-2.5599,-2.5052,-2.463,-2.4421,-2.4255,-2.4135,-2.409,-2.406,-2.4065,-2.3941,-2.3354,-2.2706,-2.1992,-2.1212,-2.0815,-2.0624,-2.0444,-2.041,-2.0426,-2.0427,-2.051,-2.0594,-2.0678,-2.0645,-2.0477,-2.0375,-2.0168,-1.9889,-1.977,-1.9674,-1.9549,-1.9221,-1.8953,-1.8908,-1.856,-1.848,-1.8393,-1.7972,-1.755,-1.7404,-1.6808,-1.6415,-1.6254,-1.6089,-1.5955,-1.5968,-1.6039,-1.6083,-1.6095,-1.6151,-1.6205,-1.626,-1.6313,-1.6369,-1.6342,-1.6287,-1.6163,-1.6025,-1.5913,-1.577,-1.5507,-1.5179,-1.4751,-1.4149,-1.3391,-1.2567,-1.1649,-1.0638,-0.9591,-0.8541,-0.7529,-0.651,-0.5492,-0.4452,-0.3331,-0.214,-0.0825,0.1001,0.2706,0.4235,0.6443,0.7837,0.9237,1.0263,1.1249,1.2206,1.3209,1.4178,1.4865,1.5182,1.5404,1.5506,1.5505,1.5433,1.5286,1.5093,1.4897,1.4665,1.4503,-3.0262,-3.0124,-3.021,-3.0189,-3.013,-3.0284,-3.0269,-3.0112,-2.9661,-2.931,-2.9012,-2.83,-2.781,-2.7546,-2.745,-2.6752,-2.5693,-2.4891,-2.4343,-2.4124,-2.4024,-2.3946,-2.3888,-2.3931,-2.3981,-2.3871,-2.348,-2.2898,-2.217,-2.1491,-2.0764,-2.031,-2.0152,-2.0133,-2.0115,-2.0133,-2.0187,-2.0237,-2.034,-2.0323,-2.0202,-2.0113,-1.9975,-1.9744,-1.9726,-1.9726,-1.9708,-1.9618,-1.9576,-1.9546,-1.9527,-1.9489,-1.9275,-1.8588,-1.8145,-1.7838,-1.7304,-1.6833,-1.6713,-1.6232,-1.5932,-1.5842,-1.6035,-1.6033,-1.6047,-1.6074,-1.6283,-1.6249,-1.6261,-1.6228,-1.6166,-1.6201,-1.6041,-1.5927,-1.5842,-1.5726,-1.5522,-1.5269,-1.492,-1.4292,-1.3606,-1.2876,-1.1959,-1.1046,-1.0021,-0.8984,-0.797,-0.6868,-0.5792,-0.4752,-0.3683,-0.2423,-0.1116,0.0889,0.2909,0.4348,0.6031,0.7231,0.8496,0.9552,1.0503,1.1383,1.2342,1.3226,1.3933,1.4379,1.4537,1.4632,1.4571,1.4481,1.4351,1.4232,1.4106,1.3992,1.3986,-2.9722,-2.9627,-2.9643,-2.9643,-2.9649,-2.9744,-2.9832,-2.9832,-2.9567,-2.9415,-2.914,-2.8537,-2.8019,-2.7711,-2.7222,-2.6455,-2.5505,-2.4875,-2.4316,-2.4003,-2.3818,-2.3775,-2.3696,-2.3775,-2.3797,-2.3728,-2.351,-2.298,-2.2144,-2.1337,-2.0691,-2.0109,-1.9922,-1.9869,-1.9866,-1.9904,-1.994,-1.9975,-2.0061,-2.0078,-1.9975,-1.9884,-1.978,-1.9726,-1.9723,-1.9723,-1.9723,-1.9723,-1.9708,-1.9693,-1.9711,-1.9744,-1.9602,-1.9308,-1.8803,-1.844,-1.7833,-1.7392,-1.7314,-1.6937,-1.6862,-1.6817,-1.6788,-1.6833,-1.6848,-1.6909,-1.6834,-1.691,-1.694,-1.6833,-1.659,-1.6485,-1.6275,-1.5902,-1.5785,-1.5684,-1.5477,-1.5298,-1.4957,-1.4492,-1.3914,-1.3193,-1.2342,-1.1401,-1.0437,-0.9432,-0.8431,-0.7314,-0.6196,-0.5133,-0.4112,-0.249,-0.1115,0.0712,0.2622,0.4004,0.54,0.6603,0.7736,0.8807,0.9747,1.06,1.1345,1.2116,1.277,1.3395,1.3676,1.3766,1.365,1.3563,1.3513,1.3441,1.3399,1.3344,1.3408,-2.9129,-2.9098,-2.9006,-2.9029,-2.9098,-2.9129,-2.9182,-2.9296,-2.9303,-2.9271,-2.921,-2.8604,-2.8185,-2.7832,-2.7098,-2.6195,-2.5255,-2.4964,-2.4415,-2.3859,-2.3674,-2.3616,-2.3595,-2.3595,-2.3616,-2.3638,-2.3578,-2.3101,-2.2259,-2.1465,-2.0685,-2.017,-1.9876,-1.9723,-1.9741,-1.978,-1.9795,-1.983,-1.9884,-1.9884,-1.9797,-1.9744,-1.9723,-1.9723,-1.9723,-1.9723,-1.9723,-1.9723,-1.9723,-1.9723,-1.9723,-1.9723,-1.9723,-1.9708,-1.9504,-1.9032,-1.837,-1.8033,-1.7879,-1.7654,-1.7504,-1.7474,-1.7639,-1.7669,-1.7639,-1.7505,-1.7642,-1.7781,-1.7721,-1.7526,-1.7135,-1.7044,-1.6713,-1.6234,-1.601,-1.5875,-1.5693,-1.5518,-1.5396,-1.4899,-1.4286,-1.3645,-1.292,-1.2133,-1.1238,-1.0433,-0.9427,-0.8067,-0.6915,-0.5721,-0.4475,-0.2613,-0.098,0.0668,0.2224,0.3438,0.4721,0.5861,0.6987,0.8044,0.8953,0.9805,1.0475,1.1127,1.1685,1.2271,1.2584,1.2876,1.2829,1.2777,1.2731,1.2726,1.2779,1.2913,1.3012,-2.8558,-2.8501,-2.8493,-2.8493,-2.8525,-2.859,-2.8606,-2.863,-2.8748,-2.8709,-2.8669,-2.8505,-2.8309,-2.7979,-2.7322,-2.6502,-2.5719,-2.5108,-2.4454,-2.3758,-2.3595,-2.3595,-2.3595,-2.3595,-2.3595,-2.3595,-2.3595,-2.3242,-2.2579,-2.1884,-2.1205,-2.0572,-1.9962,-1.9723,-1.9723,-1.9708,-1.9726,-1.9726,-1.9744,-1.9744,-1.9726,-1.9726,-1.9708,-1.9723,-1.9723,-1.9723,-1.9723,-1.9723,-1.9723,-1.9723,-1.9723,-1.9723,-1.9723,-1.9723,-1.9693,-1.9438,-1.9034,-1.8583,-1.8523,-1.8207,-1.7936,-1.7966,-1.7876,-1.7743,-1.789,-1.7905,-1.7905,-1.7699,-1.7788,-1.7773,-1.7669,-1.7609,-1.7203,-1.6931,-1.6717,-1.6482,-1.6202,-1.5882,-1.5726,-1.5463,-1.4893,-1.4343,-1.3721,-1.2919,-1.2115,-1.1288,-1.036,-0.8971,-0.7488,-0.6169,-0.4656,-0.2754,-0.1294,0.029,0.1582,0.2841,0.4007,0.5137,0.6228,0.7287,0.8093,0.8913,0.952,1.0147,1.0695,1.1234,1.1685,1.1923,1.2,1.2036,1.2036,1.2144,1.2252,1.2437,1.2627,-2.8073,-2.8192,-2.8168,-2.8177,-2.8192,-2.821,-2.822,-2.822,-2.8268,-2.8268,-2.822,-2.822,-2.8122,-2.7898,-2.7493,-2.6702,-2.5828,-2.5355,-2.4627,-2.3781,-2.3595,-2.3595,-2.3595,-2.3595,-2.3595,-2.3595,-2.358,-2.3535,-2.2936,-2.2173,-2.1365,-2.0718,-2.0079,-1.9723,-1.9723,-1.9723,-1.9723,-1.9723,-1.9723,-1.9723,-1.9723,-1.9723,-1.9723,-1.9723,-1.9723,-1.9723,-1.9708,-1.9723,-1.9723,-1.9723,-1.9723,-1.9723,-1.9723,-1.9723,-1.9708,-1.9663,-1.9468,-1.9288,-1.9228,-1.8942,-1.8758,-1.8738,-1.8735,-1.879,-1.871,-1.8634,-1.8619,-1.8675,-1.8661,-1.85,-1.8174,-1.81,-1.768,-1.7359,-1.724,-1.6905,-1.6582,-1.6348,-1.6103,-1.5823,-1.5532,-1.5018,-1.4465,-1.3739,-1.2943,-1.2139,-1.1056,-0.9649,-0.7888,-0.6093,-0.4505,-0.2751,-0.1474,-0.0246,0.0914,0.2091,0.324,0.4374,0.5529,0.6482,0.7245,0.7962,0.8662,0.9202,0.9697,1.0234,1.0762,1.1084,1.1252,1.1319,1.1356,1.1542,1.1726,1.2018,1.2228,-2.774,-2.7905,-2.7905,-2.789,-2.7905,-2.7905,-2.7905,-2.7905,-2.789,-2.789,-2.7905,-2.789,-2.784,-2.7765,-2.753,-2.6861,-2.563,-2.56,-2.4777,-2.3999,-2.3595,-2.3595,-2.3595,-2.3595,-2.3595,-2.3595,-2.3595,-2.3565,-2.3191,-2.2398,-2.144,-2.0917,-2.0127,-1.9783,-1.9723,-1.9723,-1.9723,-1.9723,-1.9723,-1.9723,-1.9723,-1.9723,-1.9723,-1.9723,-1.9723,-1.9723,-1.969,-1.9687,-1.9687,-1.9669,-1.9632,-1.9614,-1.9614,-1.9614,-1.9614,-1.9599,-1.9492,-1.9525,-1.9528,-1.9468,-1.9636,-1.9611,-1.9556,-1.9309,-1.9328,-1.9395,-1.9362,-1.92,-1.9247,-1.8994,-1.8737,-1.8608,-1.8186,-1.778,-1.749,-1.7143,-1.6832,-1.6692,-1.6556,-1.6356,-1.6079,-1.5764,-1.52,-1.4541,-1.3786,-1.2978,-1.1762,-1.0323,-0.838,-0.6321,-0.4738,-0.3126,-0.1954,-0.0855,0.0224,0.1362,0.2492,0.362,0.4752,0.5722,0.6489,0.7231,0.7936,0.8415,0.8809,0.9171,0.9688,1.0108,1.0534,1.0668,1.0821,1.101,1.1226,1.1542,1.1818,-2.7625,-2.7625,-2.7625,-2.765,-2.765,-2.7625,-2.7625,-2.765,-2.765,-2.765,-2.765,-2.765,-2.765,-2.7625,-2.7505,-2.6881,-2.5591,-2.56,-2.4747,-2.3984,-2.3595,-2.3595,-2.3595,-2.3595,-2.3595,-2.3595,-2.3595,-2.3595,-2.3325,-2.2473,-2.1844,-2.147,-2.0292,-1.9872,-1.9705,-1.9705,-1.9705,-1.9687,-1.9672,-1.9672,-1.969,-1.969,-1.969,-1.969,-1.969,-1.969,-1.9675,-1.9614,-1.9574,-1.9574,-1.9468,-1.9431,-1.9431,-1.9431,-1.9417,-1.9431,-1.9417,-1.9431,-1.9431,-1.9523,-1.956,-1.9556,-1.945,-1.9321,-1.928,-1.9317,-1.9302,-1.9213,-1.9172,-1.9143,-1.9041,-1.9012,-1.8505,-1.8117,-1.7735,-1.752,-1.7276,-1.7149,-1.7008,-1.6871,-1.6553,-1.6128,-1.5731,-1.5059,-1.4415,-1.3603,-1.2085,-1.0632,-0.8693,-0.6744,-0.525,-0.3794,-0.2584,-0.1472,-0.0474,0.063,0.1745,0.2859,0.3998,0.4923,0.5776,0.6495,0.7259,0.7682,0.8075,0.8329,0.8594,0.9082,0.955,0.9991,1.0273,1.0457,1.0772,1.1151,1.1375,-2.7585,-2.7585,-2.7585,-2.7585,-2.7585,-2.7585,-2.7585,-2.7585,-2.7585,-2.7585,-2.7585,-2.7585,-2.7585,-2.7585,-2.751,-2.6841,-2.5711,-2.56,-2.4717,-2.3984,-2.3595,-2.3595,-2.3595,-2.3573,-2.3595,-2.3588,-2.3595,-2.3595,-2.3475,-2.2637,-2.2119,-2.146,-2.0359,-1.9902,-1.9705,-1.965,-1.9632,-1.9629,-1.9578,-1.9541,-1.9632,-1.9632,-1.9632,-1.9647,-1.9632,-1.9596,-1.9523,-1.9431,-1.9413,-1.9358,-1.9265,-1.9209,-1.9191,-1.9176,-1.9176,-1.9191,-1.9176,-1.9191,-1.9228,-1.9339,-1.9413,-1.9246,-1.9097,-1.8984,-1.9017,-1.8889,-1.8812,-1.8793,-1.8812,-1.8779,-1.8741,-1.8726,-1.8503,-1.8212,-1.7957,-1.7763,-1.7538,-1.7333,-1.711,-1.6811,-1.6591,-1.6314,-1.5915,-1.5509,-1.4881,-1.4157,-1.2541,-1.088,-0.9004,-0.7327,-0.5887,-0.4578,-0.3357,-0.2203,-0.1182,-0.0094,0.1021,0.2157,0.3298,0.426,0.5215,0.5867,0.6543,0.6972,0.7342,0.7558,0.782,0.8141,0.8618,0.9219,0.9617,0.9873,1.0273,1.0696,1.0848,-2.7473,-2.7473,-2.7524,-2.7575,-2.7585,-2.7585,-2.7585,-2.7585,-2.7585,-2.7585,-2.7585,-2.7585,-2.7585,-2.7555,-2.7315,-2.6707,-2.5764,-2.5315,-2.4545,-2.394,-2.3545,-2.3545,-2.3523,-2.3501,-2.348,-2.3523,-2.3545,-2.3545,-2.3471,-2.2903,-2.2241,-2.1431,-2.0527,-2.0005,-1.965,-1.956,-1.9505,-1.9483,-1.9409,-1.9391,-1.9483,-1.9501,-1.9501,-1.9483,-1.9465,-1.9358,-1.9232,-1.912,-1.9049,-1.8993,-1.8936,-1.8874,-1.8855,-1.8855,-1.8836,-1.8836,-1.8855,-1.8874,-1.8931,-1.9116,-1.9176,-1.9026,-1.8851,-1.8716,-1.86,-1.8484,-1.8459,-1.8372,-1.8366,-1.8347,-1.8327,-1.8347,-1.8274,-1.7952,-1.778,-1.7585,-1.736,-1.7136,-1.6926,-1.6671,-1.6479,-1.6241,-1.5702,-1.5232,-1.4433,-1.3684,-1.2355,-1.0906,-0.9564,-0.7999,-0.6695,-0.5413,-0.4186,-0.304,-0.1924,-0.0735,0.0482,0.1759,0.286,0.3841,0.4709,0.5353,0.5908,0.6391,0.6693,0.6828,0.7007,0.7231,0.7841,0.8533,0.8938,0.935,0.9657,1.004,1.0137,-2.7192,-2.7233,-2.735,-2.7463,-2.7549,-2.7585,-2.7585,-2.7575,-2.7575,-2.7575,-2.7549,-2.7549,-2.7549,-2.7415,-2.7026,-2.6309,-2.5583,-2.4955,-2.4261,-2.3695,-2.3451,-2.3407,-2.3341,-2.3319,-2.3282,-2.3341,-2.3385,-2.3385,-2.3304,-2.2882,-2.2209,-2.1453,-2.0646,-1.9982,-1.9616,-1.9395,-1.9302,-1.9284,-1.9157,-1.9172,-1.9228,-1.9246,-1.9246,-1.9228,-1.9139,-1.9011,-1.8898,-1.8712,-1.8635,-1.8572,-1.8436,-1.8358,-1.8338,-1.8274,-1.8248,-1.8248,-1.8299,-1.8324,-1.8358,-1.8755,-1.8851,-1.8765,-1.8586,-1.8517,-1.8445,-1.8301,-1.8123,-1.7996,-1.7962,-1.7955,-1.7969,-1.7949,-1.7835,-1.7693,-1.7502,-1.737,-1.7128,-1.6939,-1.6714,-1.6513,-1.6297,-1.6013,-1.5446,-1.48,-1.3933,-1.3006,-1.194,-1.0839,-0.9796,-0.8654,-0.7369,-0.6154,-0.4935,-0.3737,-0.2538,-0.1295,-0.005,0.1252,0.2407,0.3365,0.4204,0.4867,0.538,0.5827,0.5985,0.6072,0.6177,0.6295,0.6944,0.7613,0.8382,0.8849,0.9139,0.9328,0.9419,-2.6881,-2.6881,-2.7052,-2.7144,-2.7207,-2.7401,-2.7463,-2.7463,-2.7386,-2.7321,-2.7321,-2.7346,-2.7321,-2.7153,-2.6698,-2.6069,-2.5429,-2.4842,-2.4164,-2.3547,-2.3319,-2.3216,-2.3127,-2.3038,-2.3016,-2.3061,-2.3164,-2.3164,-2.3024,-2.2805,-2.2417,-2.1703,-2.0512,-1.9793,-1.9407,-1.9153,-1.8969,-1.895,-1.8817,-1.8741,-1.8836,-1.8855,-1.8841,-1.8841,-1.8731,-1.8616,-1.8481,-1.8285,-1.8167,-1.8101,-1.7962,-1.7868,-1.7821,-1.7754,-1.7754,-1.7774,-1.7828,-1.7942,-1.8029,-1.8242,-1.8333,-1.8319,-1.8313,-1.8202,-1.8069,-1.7821,-1.7679,-1.7591,-1.7537,-1.7509,-1.7468,-1.7447,-1.7365,-1.7261,-1.7128,-1.7036,-1.6867,-1.6693,-1.65,-1.6297,-1.6091,-1.5614,-1.5062,-1.4524,-1.3708,-1.3016,-1.2073,-1.1141,-1.0138,-0.916,-0.8039,-0.6823,-0.5606,-0.4401,-0.3161,-0.1893,-0.0625,0.0651,0.1789,0.2792,0.3587,0.4322,0.4758,0.5142,0.5231,0.5316,0.5482,0.5696,0.606,0.6649,0.7398,0.8088,0.8423,0.8574,0.8635,-2.6392,-2.6418,-2.6553,-2.6647,-2.6753,-2.7093,-2.7222,-2.7155,-2.7078,-2.7037,-2.7037,-2.7037,-2.7037,-2.6814,-2.6242,-2.5761,-2.518,-2.4422,-2.3895,-2.3297,-2.3068,-2.2867,-2.2754,-2.2663,-2.2549,-2.2632,-2.27,-2.2723,-2.264,-2.2791,-2.2298,-2.134,-2.0175,-1.942,-1.9032,-1.8784,-1.8548,-1.8489,-1.8372,-1.8313,-1.8378,-1.8417,-1.8383,-1.8364,-1.8285,-1.8161,-1.8022,-1.7861,-1.7679,-1.7598,-1.7516,-1.7413,-1.7352,-1.731,-1.7303,-1.7331,-1.7393,-1.7529,-1.7625,-1.7666,-1.776,-1.7848,-1.7814,-1.7801,-1.772,-1.7515,-1.735,-1.7233,-1.7149,-1.7128,-1.7107,-1.7094,-1.7052,-1.696,-1.6876,-1.6803,-1.6718,-1.6556,-1.6349,-1.6144,-1.5814,-1.5289,-1.4731,-1.4176,-1.3563,-1.2929,-1.228,-1.1392,-1.0482,-0.9521,-0.8527,-0.7347,-0.6185,-0.4946,-0.3721,-0.2478,-0.1217,0.0054,0.1139,0.2144,0.2981,0.3674,0.4056,0.4379,0.4451,0.4577,0.4843,0.5118,0.5437,0.5803,0.6352,0.6986,0.7599,0.7786,0.7827,-2.5757,-2.5866,-2.5866,-2.5948,-2.6152,-2.6621,-2.6765,-2.6657,-2.6657,-2.663,-2.663,-2.659,-2.659,-2.6396,-2.5508,-2.5005,-2.4723,-2.381,-2.3288,-2.2918,-2.2686,-2.2472,-2.224,-2.2077,-2.203,-2.203,-2.21,-2.2194,-2.217,-2.2217,-2.1801,-2.094,-1.9842,-1.9117,-1.8699,-1.8392,-1.8159,-1.8037,-1.7935,-1.7895,-1.7922,-1.7962,-1.7948,-1.7888,-1.7787,-1.7659,-1.7529,-1.7365,-1.7261,-1.7178,-1.7073,-1.7031,-1.6968,-1.6918,-1.6897,-1.6918,-1.6989,-1.7094,-1.7233,-1.7261,-1.7261,-1.7385,-1.7502,-1.7494,-1.7412,-1.7233,-1.7099,-1.6973,-1.6897,-1.6897,-1.6876,-1.6876,-1.6876,-1.6791,-1.674,-1.6675,-1.6611,-1.6461,-1.6219,-1.5935,-1.5603,-1.5119,-1.4512,-1.3952,-1.3454,-1.2973,-1.2387,-1.1726,-1.0795,-0.9814,-0.8817,-0.7753,-0.6595,-0.546,-0.4258,-0.3119,-0.1932,-0.0686,0.0386,0.1386,0.2235,0.2893,0.3242,0.3495,0.3647,0.3832,0.4066,0.4387,0.4753,0.514,0.5416,0.6033,0.6664,0.6888,0.6951,-2.5132,-2.5258,-2.5258,-2.5342,-2.5481,-2.5564,-2.5729,-2.5961,-2.5851,-2.5797,-2.5769,-2.5755,-2.5878,-2.5861,-2.4807,-2.4501,-2.4028,-2.3416,-2.2879,-2.2518,-2.2263,-2.1983,-2.1746,-2.1554,-2.1471,-2.1496,-2.153,-2.1626,-2.1602,-2.1626,-2.1193,-2.0321,-1.9793,-1.9078,-1.8473,-1.8043,-1.7845,-1.7649,-1.7521,-1.7468,-1.7468,-1.7488,-1.7475,-1.7434,-1.7331,-1.722,-1.7136,-1.7044,-1.696,-1.6854,-1.6812,-1.6748,-1.665,-1.6629,-1.6629,-1.674,-1.6803,-1.6833,-1.696,-1.6981,-1.6981,-1.6981,-1.7086,-1.7128,-1.7065,-1.696,-1.6825,-1.6761,-1.6663,-1.6641,-1.6641,-1.6641,-1.6599,-1.6556,-1.6491,-1.6448,-1.6374,-1.6144,-1.5913,-1.5558,-1.5244,-1.4731,-1.4174,-1.3787,-1.3286,-1.2934,-1.2471,-1.1893,-1.115,-1.0174,-0.9216,-0.8151,-0.7117,-0.6009,-0.4972,-0.3856,-0.267,-0.1505,-0.0502,0.0391,0.1137,0.1755,0.228,0.2637,0.2841,0.3053,0.3242,0.3592,0.3928,0.4104,0.4395,0.5065,0.5647,0.584,0.6012,-2.4534,-2.4635,-2.4591,-2.4635,-2.4736,-2.4635,-2.4763,-2.4977,-2.5034,-2.5049,-2.5035,-2.5049,-2.5161,-2.5163,-2.4277,-2.378,-2.3859,-2.2802,-2.2184,-2.203,-2.1769,-2.1506,-2.1264,-2.1044,-2.0921,-2.0921,-2.097,-2.1019,-2.1044,-2.0944,-2.0571,-2.0298,-1.9943,-1.9216,-1.8644,-1.8274,-1.7858,-1.751,-1.7234,-1.7104,-1.7086,-1.7086,-1.7086,-1.7065,-1.696,-1.6897,-1.6876,-1.6791,-1.6705,-1.662,-1.662,-1.6599,-1.6522,-1.65,-1.6509,-1.662,-1.662,-1.665,-1.6714,-1.6748,-1.6727,-1.6705,-1.6705,-1.6663,-1.665,-1.6586,-1.6577,-1.6568,-1.647,-1.6383,-1.6383,-1.6383,-1.6318,-1.6241,-1.6219,-1.6188,-1.6013,-1.5814,-1.5491,-1.5142,-1.4697,-1.4233,-1.3821,-1.3488,-1.32,-1.291,-1.2603,-1.2175,-1.1435,-1.0558,-0.9633,-0.8659,-0.7652,-0.661,-0.5601,-0.4646,-0.3644,-0.2619,-0.1729,-0.0837,-0.0056,0.0583,0.1123,0.1625,0.2082,0.2221,0.2336,0.2705,0.301,0.3146,0.3248,0.3697,0.4282,0.4783,0.4935,-2.3923,-2.4044,-2.3923,-2.3982,-2.4015,-2.3966,-2.392,-2.3891,-2.4247,-2.4408,-2.4423,-2.4423,-2.4523,-2.4506,-2.373,-2.3309,-2.3072,-2.2314,-2.1701,-2.152,-2.124,-2.0995,-2.0759,-2.051,-2.0447,-2.0397,-2.0422,-2.0548,-2.0535,-2.0485,-2.0409,-2.0321,-1.9796,-1.9251,-1.8962,-1.8632,-1.8187,-1.7679,-1.725,-1.7021,-1.6893,-1.6854,-1.6888,-1.6854,-1.6761,-1.6675,-1.6641,-1.6577,-1.6479,-1.6479,-1.65,-1.65,-1.65,-1.6513,-1.6522,-1.6522,-1.6522,-1.6522,-1.6543,-1.6543,-1.6457,-1.6414,-1.6349,-1.6241,-1.6197,-1.6306,-1.6362,-1.6297,-1.6188,-1.6144,-1.6144,-1.6122,-1.6078,-1.5979,-1.5913,-1.5802,-1.5591,-1.5334,-1.4994,-1.4662,-1.428,-1.3844,-1.357,-1.3258,-1.3162,-1.2895,-1.2676,-1.2357,-1.1843,-1.099,-1.0141,-0.9242,-0.8316,-0.7364,-0.6448,-0.5519,-0.4666,-0.3754,-0.2896,-0.2147,-0.142,-0.0749,-0.0055,0.0431,0.0921,0.1217,0.1417,0.1686,0.1881,0.2038,0.2147,0.231,0.2779,0.3363,0.3774,-2.3611,-2.3704,-2.3688,-2.3688,-2.3717,-2.3582,-2.3522,-2.3522,-2.3437,-2.359,-2.378,-2.3822,-2.391,-2.3984,-2.34,-2.2973,-2.2578,-2.1978,-2.1384,-2.104,-2.0747,-2.0573,-2.0372,-2.022,-2.0105,-2.0093,-2.0118,-2.0169,-2.0245,-2.0182,-2.0093,-2.0067,-1.9737,-1.951,-1.917,-1.8881,-1.8567,-1.8003,-1.7609,-1.7147,-1.6809,-1.667,-1.6607,-1.6586,-1.6534,-1.647,-1.6426,-1.634,-1.6297,-1.6275,-1.6371,-1.6436,-1.6479,-1.65,-1.6513,-1.6513,-1.6457,-1.6448,-1.6392,-1.6349,-1.6262,-1.6076,-1.5979,-1.5834,-1.5834,-1.6022,-1.6044,-1.5969,-1.5903,-1.5881,-1.5859,-1.5836,-1.5792,-1.5703,-1.558,-1.5367,-1.5164,-1.4823,-1.45,-1.4163,-1.3834,-1.3583,-1.3306,-1.3148,-1.3051,-1.2905,-1.2774,-1.2529,-1.2258,-1.161,-1.0821,-0.9943,-0.9086,-0.8157,-0.7251,-0.6475,-0.5678,-0.4941,-0.4168,-0.3448,-0.2758,-0.2027,-0.13,-0.0742,-0.0271,-0.0027,0.0209,0.0431,0.0622,0.0815,0.099,0.1125,0.125,0.1707,0.2262,-2.333,-2.3378,-2.3378,-2.3378,-2.336,-2.33,-2.3271,-2.3271,-2.3138,-2.3198,-2.3348,-2.339,-2.348,-2.3551,-2.3055,-2.2603,-2.224,-2.1628,-2.103,-2.059,-2.0346,-2.0233,-2.008,-1.9978,-1.9939,-1.9914,-1.9926,-1.9978,-2.0016,-1.9965,-1.9914,-1.9888,-1.9799,-1.966,-1.9334,-1.9296,-1.9058,-1.8556,-1.8157,-1.7695,-1.7072,-1.6773,-1.6464,-1.6371,-1.6284,-1.6241,-1.6175,-1.61,-1.6035,-1.6057,-1.6144,-1.6197,-1.6241,-1.6262,-1.625,-1.625,-1.625,-1.6262,-1.6219,-1.6132,-1.6001,-1.5758,-1.5546,-1.539,-1.5131,-1.5266,-1.5367,-1.5311,-1.5345,-1.5345,-1.5255,-1.5198,-1.5176,-1.5085,-1.5028,-1.4891,-1.4605,-1.4303,-1.4022,-1.3776,-1.3525,-1.3334,-1.3113,-1.2954,-1.2832,-1.2725,-1.2603,-1.2529,-1.2308,-1.211,-1.136,-1.0668,-0.9814,-0.9014,-0.819,-0.7444,-0.6713,-0.6032,-0.5355,-0.4639,-0.392,-0.3226,-0.2552,-0.2014,-0.1594,-0.1315,-0.1073,-0.0812,-0.0596,-0.0411,-0.0251,-0.0097,0.0024,0.0119,0.0469,-2.3108,-2.3095,-2.3108,-2.3095,-2.3095,-2.3095,-2.3095,-2.3108,-2.3095,-2.3095,-2.3125,-2.3138,-2.3228,-2.3111,-2.2866,-2.2331,-2.1852,-2.1511,-2.0898,-2.0271,-2.0067,-2.0003,-1.9939,-1.9888,-1.9824,-1.9824,-1.9837,-1.9837,-1.985,-1.9824,-1.9824,-1.9798,-1.9798,-1.9786,-1.9798,-1.9748,-1.951,-1.9121,-1.8758,-1.8461,-1.7792,-1.7035,-1.6596,-1.6301,-1.6059,-1.5935,-1.5879,-1.5802,-1.5726,-1.5748,-1.578,-1.5891,-1.5935,-1.5944,-1.5957,-1.5957,-1.5957,-1.5935,-1.5869,-1.5736,-1.5513,-1.5289,-1.5096,-1.4846,-1.4569,-1.4523,-1.4651,-1.4663,-1.4709,-1.4766,-1.4663,-1.4617,-1.457,-1.4489,-1.443,-1.4348,-1.4033,-1.3773,-1.3549,-1.3324,-1.319,-1.3031,-1.2861,-1.27,-1.2578,-1.2446,-1.2372,-1.2323,-1.2224,-1.2026,-1.1594,-1.1108,-1.0541,-0.9762,-0.9014,-0.8323,-0.7599,-0.7074,-0.6421,-0.5741,-0.5085,-0.4391,-0.3809,-0.3337,-0.2966,-0.2569,-0.2259,-0.2005,-0.1801,-0.1571,-0.1453,-0.1313,-0.1229,-0.1168,-0.1251,-2.3095,-2.3095,-2.3095,-2.3095,-2.3095,-2.3095,-2.3095,-2.3095,-2.3095,-2.3095,-2.3095,-2.3095,-2.3138,-2.3168,-2.3092,-2.2598,-2.1797,-2.1456,-2.0734,-1.9988,-1.9926,-1.9875,-1.9837,-1.9811,-1.9798,-1.9773,-1.9773,-1.9773,-1.9734,-1.9747,-1.9798,-1.9773,-1.9773,-1.9773,-1.9773,-1.9747,-1.971,-1.9408,-1.9045,-1.8672,-1.8142,-1.747,-1.686,-1.6431,-1.5974,-1.5674,-1.5434,-1.53,-1.5187,-1.5164,-1.5289,-1.5446,-1.5513,-1.5536,-1.5558,-1.5536,-1.5536,-1.5491,-1.5401,-1.5266,-1.504,-1.4743,-1.4535,-1.4269,-1.4046,-1.3881,-1.3928,-1.3871,-1.3931,-1.4142,-1.4107,-1.4131,-1.4095,-1.3918,-1.3834,-1.3658,-1.342,-1.3238,-1.3055,-1.291,-1.2764,-1.2593,-1.2421,-1.2274,-1.2126,-1.2002,-1.1868,-1.1828,-1.1852,-1.1803,-1.1694,-1.1368,-1.0989,-1.049,-0.9736,-0.9112,-0.8448,-0.7984,-0.7429,-0.6669,-0.6046,-0.5591,-0.5034,-0.4446,-0.4061,-0.3666,-0.3404,-0.3064,-0.2897,-0.2701,-0.262,-0.2519,-0.2453,-0.2455,-0.2524]},{"header":{"parameterUnit":"m.s-1","parameterCategory":1,"la1":31.0,"la2":29.5877,"lo1":-88.7671,"lo2":-86.6584,"dy":0.0162,"dx":0.0185,"nx":115,"ny":88,"refTime":"2024-05-20T06:00:00:Z","depth":0,"parameterNumber":3,"parameterNumberName":"V-component_of_WINDS"},"data":[0.0,0.0,0.0,0.0,0.0,0.0,0.0,0.0,0.0,0.0,0.0,0.0,0.0,0.0,0.0,0.0,0.0,0.0,0.0,0.0,0.0,0.0,0.0,0.0,0.0,0.0,0.0,0.0,0.0,0.0,0.0,0.0,0.0,0.0,0.0,0.0,0.0,0.0,0.0,0.0,0.0,0.0,0.0,0.0,0.0,0.0,0.0,0.0,0.0,0.0,0.0,0.0,0.0,0.0,0.0,0.0,0.0,0.0,0.0,0.0,0.0,0.0,0.0,0.0,0.0,0.0,0.0,0.0,0.0,0.0,0.0,0.0,0.0,0.0,0.0,0.0,0.0,0.0,0.0,0.0,0.0,0.0,0.0,0.0,0.0,0.0,0.0,0.0,0.0,0.0,0.0,0.0,0.0,0.0,0.0,0.0,0.0,0.0,0.0,0.0,0.0,0.0,0.0,0.0,0.0,0.0,0.0,0.0,0.0,0.0,0.0,0.0,0.0,0.0,0.0,0.0,0.0,0.0,0.0,0.0,0.0,0.0,0.0,0.0,0.0,0.0,0.0,0.0,0.0,0.0,0.0,0.0,0.0,0.0,0.0,0.0,0.0,0.0,0.0,0.0,0.0,0.0,0.0,0.0,0.0,0.0,0.0,0.0,0.0,0.0,0.0,0.0,0.0,0.0,0.0,0.0,0.0,0.0,0.0,0.0,0.0,0.0,0.0,0.0,0.0,0.0,0.0,0.0,0.0,0.0,0.0,0.0,0.0,0.0,0.0,0.0,0.0,0.0,0.0,0.0,0.0,0.0,0.0,0.0,0.0,0.0,0.0,0.0,0.0,0.0,0.0,0.0,0.0,0.0,0.0,0.0,0.0,0.0,0.0,0.0,0.0,0.0,0.0,0.0,0.0,0.0,0.0,0.0,0.0,0.0,0.0,0.0,0.0,0.0,0.0,0.0,0.0,0.0,0.0,0.0,0.0,0.0,0.0,0.0,0.0,0.0,0.0,0.0,0.0,0.0,0.0,0.0,0.0,0.0,0.0,0.0,0.0,0.0,0.0,0.0,0.0,0.0,0.0,0.0,0.0,0.0,0.0,0.0,0.0,0.0,0.0,0.0,0.0,0.0,0.0,0.0,0.0,0.0,0.0,0.0,0.0,0.0,0.0,0.0,0.0,0.0,0.0,0.0,0.0,0.0,0.0,0.0,0.0,0.0,0.0,0.0,0.0,0.0,0.0,0.0,0.0,0.0,0.0,0.0,0.0,0.0,0.0,0.0,0.0,0.0,0.0,0.0,0.0,0.0,0.0,0.0,0.0,0.0,0.0,0.0,0.0,0.0,0.0,0.0,0.0,0.0,0.0,0.0,0.0,0.0,0.0,0.0,0.0,0.0,0.0,0.0,0.0,0.0,0.0,0.0,0.0,0.0,0.0,0.0,0.0,0.0,0.0,0.0,0.0,0.0,0.0,0.0,0.0,0.0,0.0,0.0,0.0,0.0,0.0,0.0,0.0,0.0,0.0,0.0,0.0,0.0,0.0,0.0,0.0,0.0,0.0,0.0,0.0,0.0,0.0,0.0,0.0,0.0,0.0,0.0,0.0,0.0,0.0,0.0,0.0,0.0,0.0,0.0,0.0,0.0,0.0,0.0,0.0,0.0,0.0,0.0,0.0,0.0,0.0,0.0,0.0,0.0,0.0,0.0,0.0,0.0,0.0,0.0,0.0,0.0,0.0,0.0,0.0,0.0,0.0,0.0,0.0,0.0,0.0,0.0,0.0,0.0,0.0,0.0,0.0,0.0,0.0,0.0,0.0,0.0,0.0,0.0,0.0,0.0,0.0,0.0,0.0,0.0,0.0,0.0,0.0,0.0,0.0,0.0,0.0,0.0,0.0,0.0,0.0,0.0,0.0,0.0,0.0,0.0,0.0,0.0,0.0,0.0,0.0,0.0,0.0,0.0,0.0,0.0,0.0,0.0,0.0,0.0,0.0,0.0,0.0,0.0,0.0,0.0,0.0,0.0,0.0,0.0,0.0,0.0,0.0,0.0,0.0,0.0,0.0,0.0,0.0,0.0,0.0,0.0,0.0,0.0,0.0,0.0,0.0,0.0,0.0,0.0,0.0,0.0,0.0,0.0,0.0,0.0,0.0,0.0,0.0,0.0,0.0,0.0,0.0,0.0,0.0,0.0,0.0,0.0,0.0,0.0,0.0,0.0,0.0,0.0,0.0,0.0,0.0,0.0,0.0,0.0,0.0,0.0,0.0,0.0,0.0,0.0,0.0,0.0,0.0,0.0,0.0,0.0,0.0,0.0,0.0,0.0,0.0,0.0,0.0,0.0,0.0,0.0,0.0,0.0,0.0,0.0,0.0,0.0,0.0,0.0,0.0,0.0,0.0,0.0,0.0,0.0,0.0,0.0,0.0,0.0,0.0,0.0,0.0,0.0,0.0,0.0,0.0,0.0,0.0,0.0,0.0,0.0,0.0,0.0,0.0,0.0,0.0,0.0,0.0,0.0,0.0,0.0,0.0,0.0,0.0,0.0,0.0,0.0,0.0,0.0,0.0,0.0,0.0,0.0,0.0,0.0,0.0,0.0,0.0,0.0,0.0,0.0,0.0,0.0,0.0,0.0,0.0,0.0,0.0,0.0,0.0,0.0,0.0,0.0,0.0,0.0,0.0,0.0,0.0,0.0,0.0,0.0,0.0,0.0,0.0,0.0,0.0,0.0,0.0,0.0,0.0,0.0,0.0,0.0,0.0,0.0,0.0,0.0,0.0,0.0,0.0,0.0,0.0,0.0,0.0,0.0,0.0,0.0,0.0,0.0,0.0,0.0,0.0,0.0,0.0,0.0,0.0,0.0,0.0,0.0,0.0,0.0,0.0,0.0,0.0,0.0,0.0,0.0,0.0,0.0,0.0,0.0,0.0,0.0,0.0,0.0,0.0,0.0,0.0,0.0,0.0,0.0,0.0,0.0,0.0,0.0,0.0,0.0,0.0,0.0,0.0,0.0,0.0,0.0,0.0,0.0,0.0,0.0,0.0,0.0,0.0,0.0,0.0,0.0,0.0,0.0,0.0,0.0,0.0,0.0,0.0,0.0,0.0,0.0,0.0,0.0,0.0,0.0,0.0,0.0,0.0,0.0,0.0,0.0,0.0,0.0,0.0,0.0,0.0,0.0,0.0,0.0,0.0,0.0,0.0,0.0,0.0,0.0,0.0,0.0,0.0,0.0,0.0,0.0,0.0,0.0,0.0,0.0,0.0,0.0,0.0,0.0,0.0,0.0,0.0,0.0,0.0,0.0,0.0,0.0,0.0,0.0,0.0,0.0,0.0,0.0,0.0,0.0,0.0,0.0,0.0,0.0,0.0,0.0,0.0,0.0,0.0,0.0,0.0,0.0,0.0,0.0,0.0,0.0,0.0,0.0,0.0,0.0,0.0,0.0,0.0,0.0,0.0,0.0,0.0,0.0,0.0,0.0,0.0,0.0,0.0,0.0,0.0,0.0,0.0,0.0,0.0,0.0,0.0,0.0,0.0,0.0,0.0,0.0,0.0,0.0,0.0,0.0,0.0,0.0,0.0,0.0,0.0,0.0,0.0,0.0,0.0,0.0,0.0,0.0,0.0,0.0,0.0,0.0,0.0,0.0,0.0,0.0,0.0,0.0,0.0,0.0,0.0,0.0,0.0,0.0,0.0,0.0,0.0,0.0,0.0,0.0,0.0,0.0,0.0,0.0,0.0,0.0,0.0,0.0,0.0,0.0,0.0,0.0,0.0,0.0,0.0,0.0,0.0,0.0,0.0,0.0,0.0,0.0,0.0,0.0,0.0,0.0,0.0,0.0,0.0,0.0,0.0,0.0,0.0,0.0,0.0,0.0,0.0,0.0,0.0,0.0,0.0,0.0,0.0,0.0,0.0,0.0,0.0,0.0,0.0,0.0,0.0,0.0,0.0,0.0,0.0,0.0,0.0,0.0,0.0,0.0,0.0,0.0,0.0,0.0,0.0,0.0,0.0,0.0,0.0,0.0,0.0,0.0,0.0,0.0,0.0,0.0,0.0,0.0,0.0,0.0,0.0,0.0,0.0,0.0,0.0,0.0,0.0,0.0,0.0,0.0,0.0,0.0,0.0,0.0,0.0,0.0,0.0,0.0,0.0,0.0,0.0,0.0,0.0,0.0,0.0,0.0,0.0,0.0,0.0,0.0,0.0,0.0,0.0,0.0,0.0,0.0,0.0,0.0,0.0,0.0,0.0,0.0,0.0,0.0,0.0,0.0,0.2414,0.0,0.0,0.0,0.0,0.0,0.0,0.0,0.0,0.0,0.0,0.0,0.0,0.0,0.0,0.0,0.0,0.0,0.0,0.0,0.0,0.0,0.0,0.0,0.0,0.0,0.0,0.0,0.0,0.0,0.0,0.0,0.0,0.0,0.0,0.0,0.0,0.0,0.0,0.0,0.0,0.0,0.0,0.0,0.0,0.0,0.0,0.0,0.0,0.0,0.0,0.0,0.0,0.0,0.0,0.0,0.0,0.0,0.0,0.0,0.0,0.0,0.0,0.0,0.0,0.0,0.0,0.0,0.0,0.0,0.0,0.0,0.0,0.0,0.0,0.0,0.0,0.0,0.0,0.0,0.0,0.0,0.0,0.0,0.0,0.0,0.0,0.0,0.0,0.0,0.0,0.0,0.0,0.0,0.0,0.0,0.0,0.0,0.0,0.0,0.0,0.0,0.0,0.0,0.0,0.0,0.0,0.0,0.0,0.0,0.0,0.1383,0.1759,0.2004,0.2202,0.2322,0.0,0.0,0.0,0.0,0.0,0.0,0.0,0.0,0.0,0.0,0.0,0.0,0.0,0.0,0.0,0.0,0.0,0.0,0.0,0.0,0.0,0.0,0.0,0.0,0.0,0.0,0.0,0.0,0.0,0.0,0.0,0.0,0.0,0.0,0.0,0.0,0.0,0.0,0.0,0.0,0.0,0.0,0.0,0.0,0.0,0.0,0.0,0.0,0.0,0.0,0.0,0.0,0.0,0.0,0.0,0.0,0.0,0.0,0.0,0.0,0.0,0.0,0.0,0.0,0.0,0.0,0.0,0.0,0.0,0.0,0.0,0.0,0.0,0.0,0.0,0.0,0.0,0.0,0.0,0.0,0.0,0.0,0.0,0.0,0.0,0.0,0.0,0.0,0.0,0.0,0.0,0.0,0.0,0.0,0.0,0.0,0.0,0.0,0.0,0.0,0.0,0.0,0.0,0.0,0.0,0.0,0.0,0.0,0.0,0.0,0.0,0.0,0.1792,0.2037,0.2191,0.0,0.0,0.0,0.0,0.0,0.0,0.0,0.0,0.0,0.0,0.0,0.0,0.0,0.0,0.0,0.0,0.0,0.0,0.0,0.0,0.0,0.0,0.0,0.0,0.0,0.0,0.0,0.0,0.0,0.0,0.0,0.0,0.0,0.0,0.0,0.0,0.0,0.0,0.0,0.0,0.0,0.0,0.0,0.0,0.0,0.0,0.0,0.0,0.0,0.0,0.0,0.0,0.0,0.0,0.0,0.0,0.0,0.0,0.0,0.0,0.0,0.0,0.0,0.0,0.0,0.0,0.0,0.0,0.0,0.0,0.0,0.0,0.0,0.0,0.0,0.0,0.0,0.0,0.0,0.0,0.0,0.0,0.0,0.0,0.0,0.0,0.0,0.0,0.0,0.0,0.0,0.0,0.0,0.0,0.0,0.0,0.0,0.0,0.0,0.0,0.0,0.0,0.0,0.0,0.0,0.0,0.0,0.0,0.0,0.0,0.0981,0.1319,0.1651,0.0,0.1927,0.0,0.0,0.0,0.0,0.0,0.0,0.0,0.0,0.0,0.0,0.0,0.0,0.0,0.0,0.0,0.0,0.0,0.0,0.0,0.0,0.0,0.0,0.0,0.0,0.0,0.0,0.0,0.0,0.0,0.0,0.0,0.0,0.0,0.0,0.0,0.0,0.0,0.0,0.0,0.0,0.0,0.0,0.0,0.0,0.0,0.0,0.0,0.0,0.0,0.0,0.0,0.0,0.0,0.0,0.0,0.0,0.0,0.0,0.0,0.0,0.0,0.0,0.0,0.0,0.0,0.0,0.0,0.0,0.0,0.0,0.0,0.0,0.0,0.0,0.0,0.0,0.0,0.0,0.0,0.0,0.0,0.0,0.0,0.0,0.0,0.0,0.0,0.0,0.0,0.0,0.0,0.0,0.0,0.0,0.0,0.0,0.0,0.0,0.0,0.0,0.0,0.0,0.0,0.0,0.0,0.0,0.0,0.0,0.0,0.0,0.0,0.1172,0.1571,0.1803,0.0,0.0,0.0,0.0,0.0,0.0,0.0,0.0,0.0,0.0,0.0,0.0,0.0,0.0,0.0,0.0,0.0,0.0,0.0,0.0,0.0,0.0,0.0,0.0,0.0,0.0,0.0,0.0,0.0,0.0,0.0,0.0,0.0,0.0,0.0,0.0,0.0,0.0,0.0,0.0,0.0,0.0,0.0,0.0,0.0,0.0,0.0,0.0,0.0,0.0,0.0,0.0,0.0,0.0,0.0,0.0,0.0,0.0,0.0,0.0,0.0,0.0,0.0,0.0,0.0,0.0,0.0,0.0,0.0,0.0,0.0,0.0,0.0,0.0,0.0,0.0,0.0,0.0,0.0,0.0,0.0,0.0,0.0,0.0,0.0,0.0,0.0,0.0,0.0,0.0,0.0,0.0,0.0,0.0,0.0,0.0,0.0,0.0,0.0,0.0,0.0,0.0,0.0,0.0,0.0,0.0,0.0,0.0,0.0,0.0,0.0507,0.0,0.1161,0.1563,0.174,0.1714,0.0,0.0,0.0,0.0,0.0,0.0,0.0,0.0,0.0,0.0,0.0,0.0,0.0,0.0,0.0,0.0,0.0,0.0,0.0,0.0,0.0,0.0,0.0,0.0,0.0,0.0,0.0,0.0,0.0,0.0,0.0,0.0,0.0,0.0,0.0,0.0,0.0,0.0,0.0,0.0,0.0,0.0,0.0,0.0,0.0,0.0,0.0,0.0,0.0,0.0,0.0,0.0,0.0,0.0,0.0,0.0,0.0,0.0,0.0,0.0,0.0,0.0,0.0,0.0,0.0,0.0,0.0,0.0,0.0,0.0,0.0,0.0,0.0,0.0,0.0,0.0,0.0,0.0,0.0,0.0,0.0,0.0,0.0,0.0,0.0,0.0,0.0,0.0,0.0,0.0,0.0,0.0,0.0,0.0,0.0,0.0,0.0,0.0,0.0,0.0,0.0,0.0,0.0,0.0,0.0,0.0,0.0,0.0,0.0,0.0541,0.0865,0.1357,0.1524,0.1632,0.0,0.0,0.0,0.0,0.0,0.0,0.0,0.0,0.0,0.0,0.0,0.0,0.0,0.0,0.0,0.0,0.0,0.0,0.0,0.0,0.0,0.0,0.0,0.0,0.0,0.0,0.0,0.0,0.0,0.0,0.0,0.0,0.0,0.0,0.0,0.0,0.0,0.0,0.0,0.0,0.0,0.0,0.0,0.0,0.0,0.0,0.0,0.0,0.0,0.0,0.0,0.0,0.0,0.0,0.0,0.0,0.0,0.0,0.0,0.0,0.0,0.0,0.0,0.0,0.0,0.0,0.0,0.0,0.0,0.0,0.0,0.0,0.0,0.0,0.0,0.0,0.0,0.0,0.0,0.0,0.0,0.0,0.0,0.0,0.0,0.0,0.0,0.0,0.0,0.0,0.0,0.0,0.0,0.0,0.0,0.0,0.0,0.0,0.0,0.0,0.0,0.0,0.0,0.0,0.0,0.0,0.0,0.0,0.0,0.0406,0.0827,0.1186,0.0,0.1604,0.1626,0.0,0.0,0.0,0.0,0.0,0.0,0.0,0.0,0.0,0.0,0.0,0.0,0.0,0.0,0.0,0.0,0.0,0.0,0.0,0.0,0.0,0.0,0.0,0.0,0.0,0.0,0.0,0.0,0.0,0.0,0.0,0.0,0.0,0.0,0.0,0.0,0.0,0.0,0.0,0.0,0.0,0.0,0.0,0.0,0.0,0.0,0.0,0.0,0.0,0.0,0.0,0.0,0.0,0.0,0.0,0.0,0.0,0.0,0.0,0.0,0.0,0.0,0.0,0.0,0.0,0.0,0.0,0.0,0.0,0.0,0.0,0.0,0.0,0.0,0.0,0.0,0.0,0.0,0.0,0.0,0.0,0.0,0.0,0.0,0.0,0.0,0.0,0.0,0.0,0.0,0.0,0.0,0.0,0.0,0.0,0.0,0.0,0.0,0.0,0.0,0.0,0.0,0.0,0.0,0.0,0.0,0.0,0.0,0.0,0.0469,0.0,0.1267,0.0,0.154,0.1556,0.0,0.0,0.0,0.0,0.0,0.0,0.0,0.0,0.0,0.0,0.0,0.0,0.0,0.0,0.0,0.0,0.0,0.0,0.0,0.0,0.0,0.0,0.0,0.0,0.0,0.0,0.0,0.0,0.0,0.0,0.0,0.0,0.0,0.0,0.0,0.0,0.0,0.0,0.0,0.0,0.0,0.0,0.0,0.0,0.0,0.0,0.0,0.0,0.0,0.0,0.0,0.0,0.0,0.0,0.0,0.0,0.0,0.0,0.0,0.0,0.0,0.0,0.0,0.0,0.0,0.0,0.0,0.0,0.0,0.0,0.0,0.0,0.0,0.0,0.0,0.0,0.0,0.0,0.0,0.0,0.0,0.0,0.0,0.0,0.0,0.0,0.0,0.0,0.0,0.0,0.0,0.0,0.0,0.0,0.0,0.0,0.0,0.0,0.0,0.0,0.0,0.0,0.0,0.0,0.0,0.0,0.0,0.0,0.0317,0.0582,0.0799,0.1064,0.1387,0.134,0.1426,0.0,0.0,0.0,0.0,0.0,0.0,0.0,0.0,0.0,0.0,0.0,0.0,0.0,0.0,0.0,0.0,0.0,0.0,0.0,0.0,0.0,0.0,0.0,0.0,0.0,0.0,0.0,0.0,0.0,0.0,0.0,0.0,0.0,0.0,0.0,0.0,0.0,0.0,0.0,0.0,0.0,0.0,0.0,0.0,0.0,0.0,0.0,0.0,0.0,0.0,0.0,0.0,0.0,0.0,0.0,0.0,0.0,0.0,0.0,0.0,0.0,0.0,0.0,0.0,0.0,0.0,0.0,0.0,0.0,0.0,0.0,0.0,0.0,0.0,0.0,0.0,0.0,0.0,0.0,0.0,0.0,0.0,0.0,0.0,0.0,0.0,0.0,0.0,0.0,0.0,0.0,0.0,0.0,0.0,0.0,0.0,0.0,0.0,0.0,0.0,0.0,0.0,0.0,0.0,0.0,0.0,0.0,0.0,0.0,0.0598,0.0796,0.0958,0.1106,0.1195,0.1247,0.0,0.0,0.0,0.0,0.0,0.0,0.0,0.0,0.0,0.0,0.0,0.0,0.0,0.0,0.0,0.0,0.0,0.0,0.0,0.0,0.0,0.0,0.0,0.0,0.0,0.0,0.0,0.0,0.0,0.0,0.0,0.0,0.0,0.0,0.0,0.0,0.0,0.0,0.0,0.0,0.0,0.0,0.0,0.0,0.0,0.0,0.0,0.0,0.0,0.0,0.0,0.0,0.0,0.0,0.0,0.0,0.0,0.0,0.0,0.0,0.0,0.0,0.0,0.0,0.0,0.0,0.0,0.0,0.0,0.0,0.0,0.0,0.0,0.0,0.0,0.0,0.0,0.0,0.0,0.0,0.0,0.0,0.0,0.0,0.0,0.0,0.0,0.0,0.0,0.0,0.0,0.0,0.0,0.0,0.0,0.0,0.0,0.0,0.0,0.0,0.0,0.0,0.0,0.0,0.0,0.0,0.0,0.0,0.0,0.0421,0.0609,0.0789,0.0922,0.0967,0.1029,0.1101,0.0,0.0,0.0,0.0,0.0,0.0,0.0,0.0,0.0,0.0,0.0,0.0,0.0,0.0,0.0,0.0,0.0,0.0,0.0,0.0,0.0,0.0,0.0,0.0,0.0,0.0,0.0,0.0,0.0,0.0,0.0,0.0,0.0,0.0,0.0,0.0,0.0,0.0,0.0,0.0,0.0,0.0,0.0,0.0,0.0,0.0,0.0,0.0,0.0,0.0,0.0,0.0,0.0,0.0,0.0,0.0,0.0,0.0,0.0,0.0,0.0,0.0,0.0,0.0,0.0,0.0,0.0,0.0,0.0,0.0,0.0,0.0,0.0,0.0,0.0,0.0,0.0,0.0,0.0,0.0,0.0,0.0,0.0,0.0,0.0,0.0,0.0,0.0,0.0,0.0,0.0,0.0,0.0,0.0,0.0,0.0,0.0,0.0,0.0,0.0,0.0,0.0,0.0,0.0,0.0,0.0,0.0,0.0,0.0102,0.0272,0.0487,0.0761,0.0654,0.0719,0.0,0.0,0.0,0.0,0.0,0.0,0.0,0.0,0.0,0.0,0.0,0.0,0.0,0.0,0.0,0.0,0.0,0.0,0.0,0.0,0.0,0.0,0.0,0.0,0.0,0.0,0.0,0.0,0.0,0.0,0.0,0.0,0.0,0.0,0.0,0.0,0.0,0.0,0.0,0.0,0.0,0.0,0.0,0.0,0.0,0.0,0.0,0.0,0.0,0.0,0.0,0.0,0.0,0.0,0.0,0.0,0.0,0.0,0.0,0.0,0.0,0.0,0.0,0.0,0.0,0.0,0.0,0.0,0.0,0.0,0.0,0.0,0.0,0.0,0.0,0.0,0.0,0.0,0.0,0.0,0.0,0.0,0.0,0.0,0.0,0.0,0.0,0.0,0.0,0.0,0.0,0.0,0.0,0.0,0.0,0.0,0.0,0.0,0.0,0.0,0.0,0.0,0.0,0.0,0.0,0.0,0.0,0.0,0.0,0.0094,0.0094,0.0205,0.0419,0.0387,0.0477,0.0,0.0,0.0,0.0,0.0,0.0,0.0,0.0,0.0,0.0,0.0,0.0,0.0,0.0,0.0,0.0,0.0,0.0,0.0,0.0,0.0,0.0,0.0,0.0,0.0,0.0,0.0,0.0,0.0,0.0,0.0,0.0,0.0,0.0,0.0,0.0,0.0,0.0,0.0,0.0,0.0,0.0,0.0,0.0,0.0,0.0,0.0,0.0,0.0,0.0,0.0,0.0,0.0,0.0,0.0,0.0,0.0,0.0,0.0,0.0,0.0,0.0,0.0,0.0,0.0,0.0,0.0,0.0,0.0,0.0,0.0,0.0,0.0,0.0,0.0,0.0,0.0,0.0,0.0,0.0,0.0,0.0,0.0,0.0,0.0,0.0,0.0,0.0,0.0,0.0,0.0,0.0,0.0,0.0,0.0,0.0,0.0,0.0,0.0,0.0,0.0,0.0,0.0,0.0,0.0,0.0,0.0,0.0,0.024,0.0098,0.004,0.008,0.0233,0.0248,0.0322,0.0,0.0,0.0,0.0,0.0,0.0,0.0,0.0,0.0,0.0,0.0,0.0,0.0,0.0,0.0,0.0,0.0,0.0,0.0,0.0,0.0,0.0,0.0,0.0,0.0,0.0,0.0,0.0,0.0,0.0,0.0,0.0,0.0,0.0,0.0,0.0,0.0,0.0,0.0,0.0,0.0,0.0,0.0,0.0,0.0,0.0,0.0,0.0,0.0,0.0,0.0,0.0,0.0,0.0,0.0,0.0,0.0,0.0,0.0,0.0,0.0,0.0,0.0,0.0,0.0,0.0,0.0,0.0,0.0,0.0,0.0,0.0,0.0,0.0,0.0,0.0,0.0,0.0,0.0,0.0,0.0,0.0,0.0,0.0,0.0,0.0,0.0,0.0,0.0,0.0,0.0,0.0,0.0,0.0,0.0,0.0,0.0,0.0,0.0,0.0,0.0,0.0,0.0,0.0,0.0,0.0,0.0,0.0,0.0304,0.0138,0.0062,0.0085,0.0232,0.0222,0.0265,0.0,0.0,0.0,0.0,0.0,0.0,0.0,0.0,0.0,0.0,0.0,0.0,0.0,0.0,0.0,0.0,0.0,0.0,0.0,0.0,0.0,0.0,0.0,0.0,0.0,0.0,0.0,0.0,0.0,0.0,0.0,0.0,0.0,0.0,0.0,0.0,0.0,0.0,0.0,0.0,0.0,0.0,0.0,0.0,0.0,0.0,0.0,0.0,0.0,0.0,0.0,0.0,0.0,0.0,0.0,0.0,0.0,0.0,0.0,0.0,0.0,0.0,0.0,0.0,0.0,0.0,0.0,0.0,0.0,0.0,0.0,0.0,0.0,0.0,0.0,0.0,0.0,0.0,0.0,0.0,0.0,0.0,0.0,0.0,0.0,0.0,0.0,0.0,0.0,0.0,0.0,0.0,0.0,0.0,0.0,0.0,0.0,0.0,0.0,0.0,0.0,0.0,0.0,0.0,0.0,0.0,0.0,0.0,0.0395,0.0414,0.0238,0.0244,0.0443,0.0242,0.0214,0.0,0.0,0.0,0.0,0.0,0.0,0.0,0.0,0.0,0.0,0.0,0.0,0.0,0.0,0.0,0.0,0.0,0.0,0.0,0.0,0.0,0.0,0.0,0.0,0.0,0.0,0.0,0.0,0.0,0.0,0.0,0.0,0.0,0.0,0.0,0.0,0.0,0.0,0.0,0.0,0.0,0.0,0.0,0.0,0.0,0.0,0.0,0.0,0.9119,0.0,0.0,0.0,0.0,0.0,0.0,0.0,0.0,0.0,0.0,0.0,0.0,0.0,0.0,0.0,0.0,0.0,0.0,0.0,0.0,0.0,0.0,0.0,0.0,0.0,0.0,0.0,0.0,0.0,0.0,0.0,0.0,0.0,0.0,0.0,0.0,0.0,0.0,0.0,0.0,0.0,0.0,0.0,0.0,0.0,0.0,0.0,0.0,0.0,0.0,0.0,0.0,0.0,0.0,0.0,0.0,0.0,0.0,0.0,0.0451,0.0483,0.0352,0.0449,0.076,0.0598,0.0537,0.0,0.0,0.0,0.0,0.0,0.0,0.0,0.0,0.0,0.0,0.0,0.0,0.0,0.0,0.0,0.0,0.0,0.0,0.0,0.0,0.0,0.0,0.0,0.0,0.0,0.0,0.0,0.0,0.0,0.0,0.0,0.0,0.0,0.0,0.0,0.0,0.0,0.0,0.0,0.0,0.0,0.0,0.0,0.0,0.0,0.0,0.0,0.0,0.0,0.0,0.0,0.0,0.0,0.0,0.0,0.0,0.0,0.0,0.0,0.0,0.0,0.0,0.0,0.0,0.0,0.0,0.0,0.0,0.0,0.0,0.0,0.0,0.0,0.0,0.0,0.0,0.0,0.0,0.0,0.0,0.0,0.0,0.0,0.0,0.0,0.0,0.0,0.0,0.0,0.0,0.0,0.0,0.0,0.0,0.0,0.0,0.0,0.0,0.0,0.0,0.0,0.0,0.0,0.0,0.0,0.0,0.0,0.0676,0.0545,0.0574,0.0485,0.0693,0.1153,0.1149,0.1027,0.0866,0.0,0.0,0.0,0.0,0.0,0.0,0.0,0.0,0.0,0.0,0.0,0.0,0.0,0.0,0.0,0.0,0.0,0.0,0.0,0.0,0.0,0.0,0.0,0.0,0.0,0.0,0.0,0.0,0.0,0.0,0.0,0.0,0.0,0.0,0.0,0.0,0.0,0.0,0.3913,0.5586,0.0,0.0,0.0,0.0,0.0,0.0,0.0,0.0,0.884,0.0,0.0,0.0,0.0,0.0,0.0,0.0,0.0,0.0,0.0,0.0,0.0,0.0,0.0,0.0,0.0,0.0,0.0,0.0,0.0,0.0,0.0,0.0,0.0,0.0,0.0,0.0,0.0,0.0,0.0,0.0,0.0,0.0,0.0,0.0,0.0,0.0,0.0,0.0,0.0,0.0,0.0,0.0,0.0,0.0,0.0,0.0,0.0,0.0,0.0,0.0,0.0,0.0,0.0,0.0,0.0,0.1078,0.0799,0.0738,0.0821,0.0715,0.0925,0.1487,0.1552,0.1559,0.1509,0.0,0.0,0.0,0.0,0.0,0.0,0.0,0.0,0.0,0.0,0.0,0.0,0.0,0.0,0.0,0.0,0.0,0.0,0.0,0.0,0.0,0.0,0.0,0.0,0.0,0.0,0.0,0.0,0.0,0.0,0.0,0.0,0.0,0.0,0.0,0.0,0.0,0.0,0.0,0.5945,0.6863,0.0,0.0,0.0,0.0,0.0,0.0,0.0,0.0,0.8651,0.0,0.0,0.0,0.0,0.0,0.0,0.0,0.0,0.0,0.0,0.0,0.0,0.0,0.0,0.0,0.0,0.0,0.0,0.0,0.0,0.0,0.0,0.0,0.0,0.0,0.0,0.0,0.0,0.0,0.0,0.0,0.0,0.0,0.0,0.0,0.0,0.0,0.0,0.0,0.0,0.0,0.0,0.0,0.0,0.0,0.0,0.0,0.0,0.0,0.0,0.0,0.0,0.0,0.0,0.0,0.1308,0.1082,0.1026,0.1163,0.1097,0.1317,0.183,0.1967,0.197,0.0,0.0,0.0,0.0,0.0,0.0,0.0,0.0,0.0,0.0,0.0,0.0,0.0,0.0,0.0,0.0,0.0,0.0,0.0,0.0,0.0,0.0,0.0,0.0,0.0,0.0,0.0,0.0,0.0,0.0,0.0,0.0,0.0,0.0,0.0,0.0,0.0,0.0,0.0,0.0,0.5644,0.6566,0.7058,0.0,0.0,0.0,0.0,0.0,0.0,0.8304,0.8562,0.0,0.0,0.0,0.0,0.0,0.0,0.0,0.0,0.0,0.0,0.0,0.0,0.0,0.0,0.0,0.0,0.0,0.0,0.0,0.0,0.0,0.0,0.0,0.0,0.0,0.0,0.0,0.0,0.0,0.0,0.0,0.0,0.0,0.0,0.0,0.0,0.0,0.0,0.0,0.0,0.0,0.0,0.0,0.0,0.0,0.0,0.0,0.0,0.0,0.0,0.0,0.0,0.0,0.0,0.0,0.1588,0.1376,0.1352,0.1517,0.1502,0.1705,0.2137,0.2233,0.2208,0.0,0.0,0.0,0.0,0.0,0.0,0.0,0.0,0.0,0.0,0.0,0.0,0.0,0.0,0.0,0.0,0.0,0.0,0.0,0.0,0.0,0.0,0.0,0.0,0.0,0.0,0.0,0.0,0.0,0.0,0.0,0.0,0.0,0.0,0.0,0.0,0.0,0.0,0.0,0.0,0.0,0.6232,0.6851,0.717,0.0,0.0,0.0,0.0,0.78,0.7991,0.0,0.0,0.0,0.0,0.0,0.0,0.0,0.0,0.0,0.0,0.0,0.0,0.0,0.0,0.0,0.0,0.0,0.0,0.0,0.0,0.0,0.0,0.0,0.0,0.0,0.0,0.0,0.0,0.0,0.0,0.0,0.0,0.0,0.0,0.0,0.0,0.0,0.0,0.0,0.0,0.0,0.0,0.0,0.0,0.0,0.0,0.0,0.0,0.0,0.0,0.0,0.0,0.0,0.0,0.0,0.0,0.1859,0.1657,0.1682,0.1919,0.1817,0.1941,0.2351,0.228,0.2163,0.0,0.0,0.0,0.0,0.0,0.0,0.0,0.0,0.0,0.0,0.0,0.0,0.0,0.0,0.0,0.0,0.0,0.0,0.0,0.0,0.0,0.0,0.0,0.0,0.0,0.0,0.0,0.0,0.0,0.0,0.0,0.0,0.0,0.0,0.0,0.0,0.0,0.0,0.0,0.0,0.0,0.6065,0.6947,0.7256,0.7308,0.0,0.0,0.7058,0.7192,0.7193,0.0,0.0,0.0,0.0,0.0,0.0,0.0,0.0,0.0,0.0,0.0,0.0,0.0,0.0,0.0,0.0,0.0,0.0,0.0,0.0,0.0,0.0,0.0,0.0,0.0,0.0,0.0,0.0,0.0,0.0,0.0,0.0,0.0,0.0,0.0,0.0,0.0,0.0,0.0,0.0,0.0,0.0,0.0,0.0,0.0,0.0,0.0,0.0,0.0,0.0,0.0,0.0,0.0,0.0,0.0,0.2289,0.2192,0.2141,0.2233,0.2499,0.234,0.2365,0.2623,0.245,0.2282,0.0,0.0,0.0,0.0,0.0,0.0,0.0,0.0,0.0,0.0,0.0,0.0,0.0,0.0,0.0,0.0,0.0,0.0,0.0,0.0,0.0,0.0,0.0,0.0,0.0,0.0,0.0,0.0,0.0,0.0,0.0,0.0,0.0,0.0,0.0,0.0,0.0,0.0,0.0,0.0,0.0,0.0,0.6203,0.6435,0.0,0.0,0.0,0.6228,0.6308,0.0,0.0,0.0,0.0,0.0,0.0,0.0,0.0,0.0,0.0,0.0,0.0,0.0,0.0,0.0,0.0,0.0,0.0,0.0,0.0,0.0,0.0,0.0,0.0,0.0,0.0,0.0,0.0,0.0,0.0,0.0,0.0,0.0,0.0,0.0,0.0,0.0,0.0,0.0,0.0,0.0,0.0,0.0,0.0,0.0,0.0,0.0,0.0,0.0,0.0,0.0,0.0,0.0,0.0,0.0,0.0,0.0,0.2474,0.2547,0.2704,0.2962,0.2745,0.271,0.2817,0.2576,0.0,0.0,0.0,0.0,0.0,0.0,0.0,0.0,0.0,0.0,0.0,0.0,0.0,0.0,0.0,0.0,0.0,0.0,0.0,0.0,0.0,0.0,0.0,0.0,0.0,0.0,0.0,0.167,0.0,0.0,0.0,0.0,0.0,0.0,0.0,0.0,0.0,0.0,0.0,0.0,0.0,0.0,0.4941,0.5683,0.5822,0.57,0.0,0.0,0.5363,0.542,0.602,0.6719,0.0,0.0,0.0,0.0,0.0,0.0,0.0,0.0,0.0,0.0,0.0,0.0,0.0,0.0,0.0,0.0,0.0,0.0,0.0,0.0,0.0,0.0,0.0,0.0,0.0,0.0,0.0,0.0,0.0,0.0,0.0,0.0,0.0,0.0,0.0,0.0,0.0,0.0,0.0,0.0,0.0,0.0,0.0,0.0,0.0,0.0,0.0,0.0,0.0,0.0,0.0,0.0,0.0,0.0,0.0,0.2676,0.2756,0.2908,0.3177,0.294,0.2835,0.2898,0.2505,0.2309,0.0,0.0,0.0,0.0,0.0,0.0,0.0,0.0,0.0,0.0,0.0,0.0,0.0,0.0,0.0,0.0,0.0,0.0,0.0,0.0,0.0,0.0,0.0,0.0,0.0,0.0,0.0,0.0,0.0,0.0,0.0,0.0,0.0,0.0,0.0,0.0,0.0,0.0,0.0,0.0,0.0,0.4935,0.5861,0.5823,0.5556,0.0,0.0,0.4464,0.4648,0.5099,0.574,0.6698,0.0,0.0,0.0,0.0,0.0,0.0,0.0,0.0,0.0,0.0,0.0,0.0,0.0,0.0,0.0,0.0,0.0,0.0,0.0,0.0,0.0,0.0,0.0,0.0,0.0,0.0,0.0,0.0,0.0,0.0,0.0,0.0,0.0,0.0,0.0,0.0,0.0,0.0,0.0,0.0,0.0,0.0,0.0,0.0,0.0,0.0,0.0,0.0,0.0,0.0,0.0,0.0,0.0,0.2752,0.2815,0.2919,0.3128,0.3422,0.3127,0.3004,0.3011,0.2643,0.2384,0.0,0.0,0.0,0.0,0.0,0.0,0.0,0.0,0.0,0.0,0.0,0.0,0.0,0.0,0.0,0.0,0.0,0.0,0.0,0.0,0.0,0.0,0.0,0.0,0.0,0.0,0.0,0.0,0.1373,0.1416,0.1324,0.0,0.0,0.0,0.0,0.0,0.0,0.0,0.0,0.0,0.0,0.4688,0.5242,0.5109,0.0,0.0,0.3818,0.3588,0.3665,0.4452,0.5435,0.6504,0.7721,0.0,0.0,0.0,0.0,0.0,0.0,0.0,0.0,0.0,0.0,0.0,0.0,0.0,0.0,0.0,0.0,0.0,0.0,0.0,0.0,0.0,0.0,0.0,0.0,0.0,0.0,0.0,0.0,0.0,0.0,0.0,0.0,0.0,0.0,0.0,0.0,0.0,0.0,0.0,0.0,0.0,0.0,0.0,0.0,0.0,0.0,0.0,0.0,0.0,0.0,0.0,0.0,0.2765,0.2968,0.305,0.3249,0.3593,0.328,0.312,0.3168,0.2739,0.2484,0.0,0.0,0.0,0.0,0.0,0.0,0.0,0.0,0.0,0.0,0.0,0.0,0.0,0.0,0.0,0.0,0.0,0.0,0.0,0.0,0.0,0.0,0.0,0.0,0.0,0.0,0.0,0.0,0.1102,0.1209,0.1177,0.0,0.0,0.0,0.0,0.0,0.0,0.0,0.0,0.0,0.0,0.4355,0.4635,0.4436,0.4059,0.3551,0.3183,0.301,0.3126,0.413,0.5283,0.6428,0.0,0.0,0.0,0.0,0.0,0.0,0.0,0.0,0.0,0.0,0.0,0.0,0.0,0.0,0.0,0.0,0.0,0.0,0.0,0.0,0.0,0.0,0.0,0.0,0.0,0.0,0.0,0.0,0.0,0.0,0.216,0.0,0.0,0.0,0.0,0.0,0.0,0.0,0.0,0.0,0.0,0.0,0.0,0.0,0.0,0.0,0.0,0.0,0.0,0.0,0.0,0.0,0.0,0.2774,0.3082,0.3099,0.3269,0.3587,0.328,0.3162,0.3271,0.2843,0.2627,0.2694,0.0,0.0,0.0,0.0,0.0,0.0,0.0,0.0,0.0,0.0,0.0,0.0,0.0,0.0,0.0,0.0,0.0,0.0,0.0,0.0,0.0,0.0,0.0,0.0,0.0,0.0,0.0704,0.0889,0.1041,0.0,0.0,0.0,0.0,0.0,0.0,0.0,0.0,0.0,0.0,0.3681,0.3984,0.4173,0.3891,0.3553,0.3274,0.2928,0.2845,0.3175,0.4178,0.5314,0.0,0.0,0.0,0.0,0.0,0.0,0.0,0.0,0.0,0.0,0.0,0.0,0.0,0.0,0.0,0.0,0.0,0.0,0.0,0.0,0.0,0.0,0.0,0.0,0.0,0.0,0.0,0.2368,0.2454,0.0,0.0,0.0,0.0,0.0,0.0,0.0,0.0,0.0,0.0,0.0,0.4377,0.4779,0.0,0.0,0.0,0.0,0.0,0.0,0.0,0.0,0.0,0.0,0.0,0.0,0.2857,0.31,0.3121,0.3249,0.3587,0.3364,0.3282,0.3355,0.3136,0.3011,0.3032,0.0,0.0,0.0,0.0,0.0,0.0,0.0,0.0,0.0,0.0,0.0,0.0,0.0,0.0,0.0,0.0,0.0,0.0,0.0,0.0,0.0,0.0,0.0,0.0,0.0,0.0457,0.0,0.0,0.0,0.0,0.0,0.0,0.0,0.0,0.0,0.0,0.0,0.3192,0.3613,0.3796,0.3918,0.3989,0.3761,0.3553,0.0,0.0,0.0,0.0,0.0,0.0,0.0,0.0,0.0,0.0,0.0,0.0,0.0,0.0,1.1809,0.9155,0.8211,0.7766,0.753,0.0,0.0,0.0,0.0,0.0,0.0,0.0,0.0,0.0,0.0,0.0,0.0,0.0,0.0,0.0,0.0,0.3205,0.0,0.0,0.0,0.0,0.0,0.0,0.0,0.0,0.4086,0.4552,0.5062,0.5522,0.5752,0.0,0.5865,0.5553,0.0,0.0,0.0,0.0,0.0,0.0,0.0,0.0,0.3117,0.3374,0.3413,0.3567,0.3814,0.3584,0.3494,0.3598,0.3505,0.3403,0.3346,0.3095,0.2925,0.0,0.0,0.0,0.0,0.0,0.0,0.0,0.0,0.0,0.0,0.0,0.0,0.0,0.0,0.0,0.0,0.0,0.0,0.0,0.0,0.0,0.0,0.0,0.0375,0.0,0.0,0.0,0.0,0.0,0.0,0.0,0.0,0.0,0.3079,0.3229,0.3422,0.3615,0.3753,0.3831,0.3826,0.0,0.0,0.0,0.0,0.0,0.0,0.0,0.7534,0.9212,1.0708,1.2575,1.5197,1.6279,1.6577,1.5775,0.0,0.0,1.0796,0.9892,0.9487,0.9329,0.9366,0.945,0.9665,1.0122,1.063,0.0,0.0,0.0,0.0,0.0,0.0,0.0,0.0,0.3829,0.3884,0.0,0.4081,0.0,0.0,0.0,0.0,0.0,0.3853,0.0,0.0,0.4681,0.5073,0.555,0.6128,0.6548,0.67,0.6604,0.6421,0.6179,0.4993,0.0,0.0,0.0,0.0,0.0,0.0,0.3599,0.3921,0.4055,0.4169,0.4278,0.3923,0.3808,0.4003,0.3933,0.3804,0.3637,0.3662,0.3443,0.296,0.3029,0.0,0.0,0.0,0.0,0.0,0.0,0.0,0.0,0.0,0.0,0.0,0.0,0.0,0.0,0.0,0.0,0.0,0.0,0.0,0.0,0.0258,0.0,0.0,0.0,0.0,0.0,0.0,0.0,0.0,0.0,0.0,0.3283,0.3468,0.357,0.3445,0.0,0.0,0.0,0.0,0.4306,0.4911,0.5325,0.5965,0.6999,0.8294,0.9741,1.1461,0.0,0.0,1.6913,1.6957,1.6541,1.5702,1.4995,1.4163,1.3286,1.2513,1.2092,1.2033,1.2023,1.2257,1.2456,1.2499,1.2774,0.5404,0.0,0.0,0.0,0.0,0.4743,0.4698,0.4728,0.4775,0.4867,0.4958,0.5115,0.0,0.0,0.0,0.0,0.0,0.0,0.4916,0.5247,0.5471,0.5784,0.6164,0.669,0.7091,0.727,0.7429,0.7352,0.7041,0.6393,0.5462,0.4307,0.0,0.0,0.0,0.0,0.4389,0.4464,0.4468,0.4487,0.4504,0.4269,0.4173,0.4276,0.4169,0.4072,0.3951,0.3886,0.3656,0.3263,0.3196,0.0,0.0,0.0,0.0,0.0,0.0,0.0,0.0,0.0,0.0,0.0,0.0,0.0,0.0,0.0,0.0,0.0,0.0,0.0,0.0215,0.0306,0.048,0.0,0.0,0.0,0.0,0.0,0.0,0.0,0.0,0.0,0.4172,0.3858,0.3651,0.0,0.0,0.4326,0.4719,0.5305,0.5927,0.6516,0.0,0.0,0.0,0.9975,1.1324,1.2883,1.5321,1.7247,1.7757,1.788,1.7612,1.6718,1.5883,1.508,1.4356,1.3402,1.2719,1.2622,1.2664,1.2775,1.2966,1.3401,1.3827,0.6742,0.6242,0.6047,0.5961,0.5989,0.5853,0.5808,0.5836,0.5864,0.5943,0.609,0.6188,0.6239,0.6217,0.6116,0.0,0.0,0.0,0.6021,0.6256,0.6406,0.6668,0.7016,0.746,0.7766,0.7934,0.8034,0.7961,0.7705,0.7341,0.6686,0.5711,0.0,0.0,0.473,0.498,0.5089,0.5106,0.5132,0.5139,0.5156,0.4868,0.4683,0.455,0.4534,0.4416,0.4176,0.4127,0.3882,0.346,0.3387,0.3324,0.0,0.0,0.0,0.0,0.0,0.0,0.0,0.0,0.0,0.0,0.0,0.169,0.0,0.0,0.0,0.0,0.0714,0.043,0.0322,0.0485,0.0,0.0,0.0,0.0,0.0,0.0,0.0,0.4187,0.4305,0.4483,0.479,0.4554,0.4349,0.4358,0.462,0.5049,0.5627,0.0,0.7301,0.813,0.8939,0.9829,1.0862,1.2114,1.358,1.5425,1.7252,1.8408,1.8322,1.811,1.7555,1.662,1.5754,1.5004,1.4414,1.3637,1.3188,1.3393,1.3524,1.3698,1.3941,1.4342,1.4689,0.7872,0.7943,0.7311,0.7043,0.7018,0.7,0.7,0.7,0.7,0.7067,0.7182,0.7267,0.7196,0.7057,0.7057,0.0,0.6826,0.7044,0.7198,0.7263,0.7402,0.7624,0.7925,0.8256,0.8474,0.8593,0.8479,0.8378,0.8245,0.792,0.7663,0.7457,0.6278,0.5635,0.554,0.5701,0.576,0.5766,0.5935,0.6002,0.5956,0.5609,0.5228,0.484,0.495,0.4786,0.4329,0.4369,0.4123,0.3546,0.3573,0.3488,0.3232,0.0,0.0,0.0,0.0,0.0,0.0,0.0,0.0,0.0,0.0,0.0,0.0,0.0,0.0,0.0,0.092,0.0,0.0578,0.0803,0.0,0.0,0.0,0.2489,0.31,0.3389,0.3811,0.4503,0.0,0.0,0.5231,0.0,0.5457,0.5154,0.5405,0.5882,0.6589,0.7536,0.8539,0.9754,1.0739,1.1814,1.3113,1.4515,1.6149,1.8183,1.9035,1.8963,1.8471,1.7604,1.665,1.5596,1.4782,1.4057,1.3604,1.3285,1.3437,1.3949,1.436,1.4688,1.4939,1.5075,1.5166,0.861,0.8701,0.8455,0.8229,0.8041,0.7944,0.7898,0.7892,0.7898,0.7892,0.7931,0.7892,0.7798,0.7682,0.7574,0.762,0.7769,0.7654,0.7752,0.7951,0.8016,0.8047,0.8156,0.8421,0.8573,0.8593,0.8678,0.8678,0.8632,0.8378,0.8214,0.8138,0.7609,0.7077,0.6628,0.6535,0.6412,0.6322,0.634,0.6177,0.5795,0.5694,0.5471,0.5132,0.5144,0.4907,0.4416,0.4395,0.4123,0.3539,0.3566,0.3578,0.3519,0.3264,0.0,0.0,0.0,0.0,0.0,0.0,0.0,0.0,0.0,0.1831,0.2036,0.0,0.1551,0.0,0.1027,0.0906,0.1088,0.1359,0.0,0.0,0.2565,0.3032,0.3568,0.3821,0.4289,0.515,0.519,0.5379,0.6041,0.6187,0.6421,0.6801,0.6841,0.7152,0.8126,0.9242,1.0393,1.1569,1.2643,1.3756,1.4848,1.6629,1.8138,1.91,1.9154,1.8758,1.7906,1.6715,1.5463,1.4256,1.3299,1.2586,1.2022,1.1944,1.2081,1.2478,1.3331,1.4225,1.458,1.4688,1.4766,0.9084,0.9017,0.899,0.8817,0.856,0.8513,0.846,0.846,0.846,0.8467,0.848,0.8417,0.8362,0.8298,0.821,0.8264,0.8397,0.8274,0.8339,0.846,0.8454,0.846,0.846,0.8613,0.8692,0.8685,0.8778,0.8778,0.8771,0.8644,0.8571,0.8557,0.827,0.797,0.7626,0.7247,0.6952,0.6732,0.6732,0.6521,0.6124,0.5989,0.576,0.5435,0.5312,0.4982,0.4422,0.4395,0.4128,0.3528,0.3573,0.3608,0.3601,0.3349,0.3201,0.0,0.0,0.0,0.0,0.0,0.0,0.0,0.0,0.0,0.0,0.0,0.1705,0.0,0.1378,0.1398,0.1631,0.1931,0.2281,0.2751,0.309,0.3477,0.3996,0.436,0.4796,0.5467,0.5713,0.602,0.656,0.6854,0.7295,0.7949,0.8244,0.8666,0.9406,1.0501,1.1698,1.2925,1.4056,1.5309,1.6661,1.812,1.9146,1.9336,1.9058,1.8328,1.712,1.5662,1.4185,1.2813,1.1781,1.1023,1.0529,1.0501,1.0671,1.1055,1.1746,1.2629,1.3554,1.3802,1.3949,0.9398,0.9162,0.9228,0.9131,0.8918,0.8918,0.8878,0.8778,0.8778,0.8778,0.8778,0.8778,0.8778,0.8778,0.8778,0.8778,0.8778,0.8778,0.8778,0.8778,0.8778,0.8778,0.8778,0.8778,0.8778,0.8778,0.8778,0.8778,0.8778,0.8778,0.8778,0.8798,0.8583,0.8435,0.8375,0.7832,0.7361,0.7006,0.6993,0.688,0.6613,0.6344,0.6048,0.5718,0.5463,0.506,0.4516,0.4435,0.4173,0.3631,0.3625,0.3629,0.3622,0.3403,0.3273,0.0,0.2917,0.0,0.0,0.0,0.0,0.0,0.0,0.0,0.0,0.2287,0.2001,0.1805,0.1884,0.2005,0.2235,0.2566,0.293,0.3376,0.3595,0.393,0.4459,0.4886,0.5306,0.5718,0.6248,0.6686,0.7058,0.7514,0.8088,0.8768,0.9502,1.0147,1.0682,1.16,1.2692,1.3977,1.5184,1.6653,1.8273,1.9148,1.9531,1.9428,1.883,1.7834,1.6358,1.4644,1.2973,1.1475,1.0328,0.9496,0.9038,0.9038,0.9239,0.9624,0.9983,1.0709,1.2123,1.2652,1.2859,0.994,0.9867,0.967,0.9566,0.9519,0.9519,0.9245,0.8778,0.8778,0.8778,0.8778,0.8778,0.8778,0.8778,0.8778,0.8778,0.8778,0.8778,0.8778,0.8778,0.8778,0.8778,0.8778,0.8778,0.8778,0.8778,0.8778,0.8778,0.8778,0.8778,0.8778,0.8778,0.8751,0.8611,0.8395,0.0,0.0,0.0,0.6993,0.688,0.6613,0.6344,0.6073,0.5793,0.5526,0.0,0.499,0.4712,0.4445,0.4164,0.3894,0.0,0.0,0.0,0.0,0.0,0.0,0.0,0.0,0.0,0.0,0.0,0.3,0.2833,0.276,0.2536,0.2387,0.236,0.2448,0.2678,0.3024,0.3369,0.371,0.3998,0.4252,0.4583,0.5007,0.528,0.5708,0.648,0.6812,0.7237,0.7848,0.8342,0.8852,0.959,1.036,1.1284,1.2336,1.2825,1.3601,1.4914,1.6559,1.8098,1.9189,1.9623,1.9707,1.9405,1.8617,1.7387,1.5743,1.395,1.2141,1.0498,0.9101,0.8077,0.7668,0.7591,0.7762,0.8151,0.8464,0.9217,1.0858,1.123,1.1311,1.0254,0.0,0.996,0.982,0.0,0.9715,0.9512,0.9266,0.9266,0.9158,0.8998,0.8991,0.8918,0.8778,0.8778,0.8778,0.8778,0.8778,0.8778,0.8778,0.8778,0.8778,0.8778,0.8778,0.8778,0.8778,0.8778,0.8778,0.8778,0.8778,0.8778,0.8778,0.8778,0.8757,0.868,0.832,0.772,0.7006,0.707,0.7023,0.6916,0.6663,0.6419,0.6208,0.0,0.0,0.0,0.0,0.0,0.0,0.0,0.0,0.0,0.0,0.0,0.3755,0.3774,0.3774,0.3703,0.37,0.37,0.369,0.3512,0.3222,0.2837,0.2763,0.2764,0.2808,0.2964,0.3247,0.3606,0.3899,0.4212,0.452,0.4903,0.5251,0.554,0.599,0.6528,0.7066,0.7487,0.7954,0.8529,0.9042,0.964,1.0398,1.1228,1.22,1.3344,1.3779,1.4537,1.6281,1.7704,1.8904,1.955,1.9816,1.9808,1.9349,1.8406,1.702,1.5346,1.336,1.1438,0.9702,0.8164,0.7015,0.6565,0.641,0.644,0.6756,0.705,0.7452,0.8439,0.9088,0.9645,1.0445,1.0194,1.0194,1.006,0.9869,0.9869,0.9863,0.9863,0.0,0.0,0.0,0.9291,0.9131,0.8858,0.8858,0.8858,0.8778,0.8778,0.8778,0.8778,0.8778,0.8778,0.8778,0.8778,0.8778,0.8778,0.8778,0.8778,0.8778,0.8778,0.8778,0.8811,0.8811,0.8883,0.8977,0.8679,0.8086,0.7277,0.723,0.7251,0.7245,0.7069,0.6912,0.6793,0.6418,0.6089,0.5775,0.565,0.5366,0.4913,0.4854,0.4683,0.4296,0.424,0.4205,0.4129,0.4185,0.4216,0.4121,0.4179,0.4176,0.4045,0.3976,0.3644,0.3013,0.3096,0.3202,0.3292,0.3523,0.3796,0.4119,0.4427,0.4737,0.5045,0.5561,0.5972,0.6166,0.6796,0.7358,0.7706,0.821,0.872,0.9148,0.9717,1.0388,1.1231,1.2057,1.3158,1.4347,1.4918,1.5729,1.7569,1.8619,1.9374,1.9793,1.9937,1.9786,1.9271,1.8198,1.6776,1.4991,1.2964,1.0946,0.9134,0.7487,0.6383,0.5712,0.5437,0.5373,0.5508,0.5717,0.5851,0.5903,0.6739,0.7595,1.0559,1.0526,1.0533,1.0506,1.0466,1.0466,1.0466,1.0425,0.9936,0.9688,0.9626,0.9619,0.9459,0.9151,0.9123,0.9018,0.8785,0.8778,0.8778,0.0,0.8778,0.8778,0.8778,0.8778,0.8778,0.8778,0.8778,0.8778,0.8778,0.8778,0.8778,0.8804,0.891,0.8989,0.9009,0.9166,0.8892,0.8224,0.773,0.7461,0.7454,0.7382,0.7374,0.7441,0.6968,0.6728,0.6771,0.6247,0.5927,0.5884,0.5613,0.5415,0.5299,0.5217,0.5117,0.4947,0.4846,0.471,0.4543,0.4441,0.4312,0.4202,0.4321,0.4164,0.3644,0.3704,0.3855,0.4018,0.4178,0.4391,0.4674,0.514,0.5503,0.576,0.6275,0.6779,0.7123,0.7559,0.8007,0.8463,0.8904,0.9379,0.9873,1.0466,1.1175,1.2015,1.3001,1.4182,1.5908,1.6693,1.7266,1.8278,1.9073,1.9625,1.9961,1.9968,1.9684,1.9144,1.8017,1.6625,1.4907,1.2889,1.0854,0.8958,0.7342,0.6085,0.5265,0.4731,0.4574,0.4604,0.4644,0.4648,0.4574,0.4669,0.4983,1.0586,1.0586,1.0586,1.0586,1.0586,1.0586,1.0586,1.0566,1.0397,1.0211,1.0075,1.0151,1.0045,0.9727,0.9556,0.9384,0.9275,0.9037,0.891,0.891,0.8857,0.8778,0.8778,0.8778,0.8778,0.8778,0.8778,0.8778,0.8804,0.8883,0.891,0.8936,0.9256,0.9489,0.9655,0.9779,0.9628,0.9146,0.8514,0.8127,0.7987,0.7977,0.8023,0.8071,0.761,0.7374,0.7411,0.6889,0.6547,0.642,0.6256,0.6021,0.5743,0.5621,0.5469,0.5282,0.5237,0.5139,0.4995,0.4926,0.4797,0.4621,0.4674,0.4629,0.4365,0.4273,0.4291,0.4425,0.4757,0.5069,0.5236,0.5744,0.6183,0.6424,0.7017,0.7527,0.7902,0.8345,0.8768,0.9164,0.9578,1.003,1.0534,1.1207,1.1966,1.2832,1.4101,1.5691,1.722,1.7892,1.8412,1.8963,1.9478,1.9829,2.0055,1.9899,1.9478,1.886,1.77,1.627,1.4595,1.267,1.0764,0.8936,0.7217,0.5872,0.4961,0.4312,0.3935,0.3668,0.3646,0.358,0.3359,0.3092,0.3328,1.0814,1.0782,1.0746,1.0688,1.0656,1.0719,1.0688,1.0681,1.0832,1.0826,1.07,1.0732,1.0617,1.0349,1.0102,0.9945,0.9769,0.9381,0.9156,0.9087,0.8956,0.8883,0.8857,0.8857,0.8831,0.8811,0.8831,0.8857,0.8857,0.9008,0.914,0.9271,0.9744,1.0138,1.0403,1.0491,1.0346,1.0004,0.9523,0.9017,0.8512,0.8602,0.8683,0.8656,0.8312,0.8079,0.7979,0.7561,0.7183,0.6906,0.6832,0.6616,0.6223,0.6079,0.593,0.5739,0.5698,0.5618,0.5414,0.5381,0.5272,0.509,0.5064,0.5073,0.5129,0.4954,0.4857,0.4928,0.539,0.5742,0.5926,0.6435,0.6904,0.7177,0.7813,0.8348,0.8671,0.914,0.9547,0.9825,1.0225,1.0687,1.1226,1.1898,1.2793,1.3985,1.5498,1.6928,1.7934,1.8745,1.9276,1.9568,1.9858,2.0013,2.0047,1.9734,1.9226,1.8483,1.7321,1.5911,1.4275,1.2479,1.0666,0.8933,0.7245,0.5899,0.4853,0.4092,0.3542,0.3167,0.2968,0.2699,0.2368,0.2099,0.2164,1.14,1.1397,1.1153,1.0933,1.08,1.0996,1.0965,1.087,1.1115,1.1365,1.1439,1.1322,1.1112,1.0883,1.0923,1.0682,1.0175,0.9919,0.9658,0.9382,0.9237,0.9087,0.9008,0.8982,0.8929,0.8857,0.8936,0.8982,0.9015,0.9237,0.955,0.9914,1.0385,1.0769,1.1015,1.1375,1.1228,1.0638,1.0664,1.0082,0.8864,0.9068,0.925,0.9206,0.9122,0.8901,0.8537,0.8201,0.7834,0.7466,0.74,0.7308,0.7092,0.7022,0.6875,0.6661,0.6438,0.6151,0.5791,0.5594,0.5543,0.5604,0.5565,0.5635,0.5844,0.5853,0.5816,0.5812,0.607,0.6383,0.6702,0.7273,0.7777,0.806,0.8699,0.9266,0.9476,0.9904,1.0273,1.0505,1.0859,1.1319,1.1891,1.2602,1.3687,1.5301,1.6444,1.7574,1.8526,1.9201,1.9724,2.0,2.0181,2.0088,1.9923,1.9532,1.8908,1.8072,1.6938,1.555,1.3988,1.2352,1.0639,0.8933,0.7439,0.6091,0.5048,0.4158,0.3458,0.2951,0.2549,0.2055,0.1634,0.1456,0.1655,1.2053,1.1873,1.1743,1.1514,1.1324,1.1373,1.1373,1.131,1.1615,1.1809,1.1941,1.2174,1.2104,1.1745,1.1795,1.1547,1.1079,1.0705,1.0295,0.9877,0.964,0.9484,0.9361,0.9283,0.9211,0.9159,0.9133,0.9159,0.929,0.9655,1.0095,1.0539,1.0964,1.1301,1.1569,1.1877,1.172,1.104,1.1047,1.0569,0.9656,0.9556,0.9646,0.9718,0.9526,0.9325,0.9149,0.8615,0.8187,0.8029,0.7718,0.7515,0.7456,0.7264,0.7101,0.6969,0.6658,0.6314,0.5998,0.6005,0.5977,0.5882,0.5956,0.6064,0.6115,0.6326,0.648,0.6598,0.6789,0.7031,0.7304,0.7959,0.8523,0.8863,0.9378,0.9843,1.0167,1.0457,1.0774,1.1086,1.1412,1.1854,1.2555,1.3607,1.4871,1.6242,1.7232,1.8157,1.9036,1.9606,1.9981,2.019,2.0164,2.0001,1.9775,1.9263,1.8554,1.764,1.6473,1.5111,1.3641,1.2077,1.0453,0.887,0.7494,0.6234,0.5161,0.4224,0.3435,0.2884,0.2172,0.159,0.1366,0.1254,0.1366,1.2957,1.2722,1.2548,1.2236,1.1872,1.184,1.184,1.1848,1.2151,1.2313,1.2406,1.2958,1.3072,1.2787,1.2731,1.2506,1.2096,1.1622,1.1129,1.0631,1.0236,0.995,0.9829,0.9673,0.9569,0.951,0.9472,0.9543,0.9777,1.0241,1.071,1.1124,1.1519,1.1828,1.2085,1.2308,1.212,1.1515,1.1366,1.0958,1.0316,1.0037,0.999,1.006,0.9848,0.9692,0.9583,0.9043,0.862,0.842,0.8026,0.7743,0.7588,0.7403,0.7301,0.7254,0.6964,0.6726,0.6538,0.6618,0.6597,0.6403,0.6486,0.6527,0.6573,0.6797,0.7054,0.7247,0.7467,0.7697,0.7968,0.857,0.9142,0.9529,0.9981,1.04,1.0755,1.101,1.1311,1.1653,1.1982,1.2502,1.3344,1.4593,1.5854,1.6897,1.7828,1.866,1.9381,1.9881,2.0203,2.0285,2.0128,1.9912,1.9614,1.9059,1.8262,1.7282,1.6135,1.4828,1.3343,1.185,1.0426,0.9019,0.7597,0.6425,0.548,0.4504,0.3432,0.2702,0.2036,0.1547,0.1435,0.1299,0.1411,1.4328,1.4181,1.3591,1.3003,1.2467,1.249,1.239,1.2336,1.2644,1.2836,1.3019,1.3528,1.383,1.389,1.3786,1.3517,1.3087,1.2582,1.2141,1.1729,1.1036,1.0573,1.037,1.0223,1.0061,0.9873,0.9914,1.018,1.0616,1.1049,1.1402,1.1669,1.2051,1.2323,1.2455,1.2578,1.2503,1.2099,1.1752,1.1316,1.0868,1.0468,1.0225,1.0137,1.0196,1.002,0.9679,0.9591,0.9201,0.8434,0.8385,0.8133,0.7695,0.7627,0.7643,0.7678,0.7612,0.7583,0.7575,0.7446,0.7339,0.7281,0.7136,0.7146,0.725,0.7321,0.7452,0.7654,0.8057,0.8423,0.8701,0.9147,0.9657,1.0147,1.0621,1.0954,1.1263,1.1616,1.192,1.2198,1.2638,1.3378,1.4525,1.5489,1.6486,1.749,1.836,1.9101,1.9702,2.01,2.0282,2.0303,2.0147,1.9859,1.9461,1.8858,1.8058,1.7091,1.5987,1.4735,1.3338,1.1951,1.0577,0.9235,0.7941,0.679,0.5862,0.4805,0.3668,0.2854,0.2261,0.1837,0.177,0.1636,0.1791,1.542,1.5239,1.448,1.399,1.3698,1.3447,1.3246,1.3086,1.3398,1.3588,1.37,1.4151,1.4389,1.4458,1.4636,1.4355,1.3797,1.3614,1.3141,1.2447,1.2026,1.1601,1.1124,1.0964,1.0761,1.0523,1.0462,1.0667,1.1065,1.1477,1.1803,1.2076,1.2397,1.2578,1.2661,1.2759,1.2642,1.2233,1.2051,1.1641,1.0986,1.0752,1.0546,1.0235,1.0264,1.0215,1.0059,0.9767,0.9447,0.918,0.8909,0.8694,0.8516,0.8448,0.8408,0.8408,0.8302,0.8213,0.8158,0.809,0.7934,0.769,0.7671,0.764,0.762,0.7704,0.7842,0.8064,0.8496,0.8906,0.929,0.9657,1.005,1.0515,1.101,1.1423,1.1774,1.2102,1.2401,1.2791,1.3421,1.4317,1.5213,1.6142,1.7054,1.8031,1.8816,1.9457,1.9938,2.0251,2.0371,2.0313,2.0136,1.9825,1.9339,1.8698,1.7938,1.6959,1.5881,1.4645,1.3309,1.2022,1.0663,0.9394,0.8154,0.7049,0.6054,0.4901,0.3825,0.3142,0.2526,0.2373,0.2217,0.2281,0.2521,1.6318,1.6063,1.5346,1.4921,1.4657,1.4221,1.3941,1.3872,1.4091,1.4219,1.433,1.4666,1.4872,1.4893,1.5167,1.5023,1.4535,1.4402,1.3978,1.3298,1.2844,1.2388,1.1983,1.169,1.1393,1.1167,1.1074,1.12,1.1502,1.1902,1.2209,1.2421,1.2652,1.2774,1.2783,1.2847,1.2715,1.2447,1.2291,1.1892,1.1346,1.1024,1.0791,1.0518,1.0371,1.0322,1.0293,0.999,0.9747,0.9583,0.9338,0.9133,0.9016,0.8945,0.8979,0.9031,0.8947,0.8925,0.8894,0.8816,0.8613,0.8273,0.8246,0.8193,0.8057,0.8152,0.8283,0.8455,0.8814,0.9268,0.9637,1.0089,1.0495,1.0886,1.1375,1.1859,1.2228,1.2532,1.297,1.3535,1.4216,1.5032,1.5886,1.6733,1.7616,1.8539,1.9223,1.977,2.0134,2.0344,2.0409,2.0334,2.0145,1.9812,1.9342,1.876,1.798,1.7023,1.6063,1.4766,1.3476,1.2171,1.087,0.9573,0.8371,0.7294,0.6161,0.5009,0.4202,0.3517,0.3211,0.3037,0.3012,0.3078,0.3404,1.7088,1.6855,1.6239,1.5772,1.5359,1.4798,1.4517,1.4478,1.4617,1.4686,1.4725,1.5029,1.5176,1.5205,1.5332,1.5371,1.5216,1.483,1.4589,1.4351,1.3476,1.2952,1.2805,1.2362,1.1954,1.1703,1.1678,1.1769,1.1927,1.2274,1.2554,1.2686,1.2798,1.2881,1.2881,1.2905,1.2895,1.2788,1.248,1.2203,1.2106,1.1404,1.0986,1.084,1.0537,1.0361,1.0303,1.0283,1.0059,0.9708,0.964,0.9408,0.918,0.9104,0.9238,0.9562,0.9557,0.9667,0.9896,0.9641,0.9376,0.9127,0.8947,0.8765,0.8683,0.8704,0.8744,0.8854,0.9136,0.9487,0.9843,1.0438,1.0973,1.13,1.1737,1.2204,1.2597,1.3005,1.3539,1.431,1.4909,1.5592,1.6462,1.7274,1.8096,1.8863,1.9495,1.9944,2.023,2.0398,2.0447,2.0375,2.0182,1.9858,1.9378,1.8836,1.801,1.7181,1.6198,1.508,1.3837,1.2558,1.1251,0.9944,0.8509,0.7384,0.6295,0.5226,0.477,0.4198,0.3961,0.3807,0.3869,0.4001,0.4408,1.7726,1.7605,1.7166,1.6645,1.6119,1.5628,1.5205,1.4862,1.499,1.5068,1.5088,1.5254,1.5342,1.5371,1.5391,1.542,1.54,1.5206,1.5011,1.4719,1.4355,1.3803,1.3265,1.3004,1.2654,1.2196,1.2092,1.2175,1.2323,1.2529,1.27,1.2832,1.2881,1.2915,1.2915,1.2915,1.2915,1.2886,1.2778,1.2539,1.2242,1.194,1.1565,1.1091,1.0923,1.0755,1.0506,1.038,1.0234,1.0087,1.0078,1.001,0.9921,0.9929,1.0063,1.0238,1.0258,1.0298,1.035,1.0196,0.9922,0.9655,0.9439,0.9279,0.9159,0.9199,0.9259,0.9308,0.9567,0.9902,1.0176,1.0725,1.118,1.1423,1.1968,1.2437,1.2878,1.3433,1.4103,1.48,1.5404,1.6094,1.6946,1.774,1.8464,1.915,1.968,2.0054,2.0258,2.0412,2.0449,2.0393,2.0176,1.9941,1.9476,1.8992,1.8294,1.7456,1.6501,1.5432,1.4192,1.2967,1.1662,1.0176,0.8743,0.7558,0.6444,0.5744,0.5308,0.4988,0.4744,0.47,0.4744,0.5043,0.5443,1.8008,1.7969,1.7559,1.7194,1.6767,1.6183,1.5717,1.5397,1.5322,1.5264,1.5284,1.5352,1.542,1.542,1.542,1.542,1.542,1.542,1.5312,1.5105,1.4918,1.45,1.3866,1.352,1.3055,1.2571,1.2455,1.2505,1.2578,1.271,1.2832,1.2881,1.2915,1.2915,1.2915,1.2915,1.2915,1.2915,1.2905,1.2802,1.2547,1.2374,1.2088,1.1737,1.1397,1.1176,1.1021,1.075,1.0525,1.0419,1.038,1.0341,1.0332,1.0408,1.0553,1.0706,1.0753,1.0753,1.0802,1.065,1.039,1.0118,0.9971,0.9805,0.9657,0.9686,0.9725,0.9725,0.9892,1.0108,1.037,1.084,1.1292,1.159,1.215,1.2715,1.3207,1.3838,1.4485,1.5136,1.5795,1.6512,1.7304,1.8066,1.8744,1.9331,1.9764,2.0084,2.0258,2.0417,2.0429,2.0397,2.0247,1.9952,1.9618,1.9113,1.8582,1.7733,1.6847,1.5743,1.4581,1.3389,1.2117,1.0262,0.8699,0.7938,0.6909,0.6477,0.6066,0.5809,0.5593,0.5674,0.5798,0.6122,0.6561,1.8008,1.7959,1.7588,1.7412,1.7256,1.6533,1.6152,1.6016,1.5654,1.543,1.542,1.541,1.542,1.542,1.542,1.542,1.542,1.5449,1.5526,1.5552,1.537,1.5081,1.4763,1.3998,1.332,1.287,1.2739,1.2725,1.2749,1.2856,1.2929,1.292,1.2954,1.2929,1.2954,1.2929,1.2944,1.2954,1.2954,1.2983,1.304,1.2739,1.2574,1.2722,1.2056,1.1715,1.1678,1.1288,1.0886,1.0649,1.0495,1.0438,1.0438,1.0534,1.0736,1.0981,1.1019,1.1113,1.1161,1.1067,1.0859,1.0649,1.0495,1.037,1.0196,1.0137,1.0118,1.0049,1.0108,1.0235,1.0505,1.0916,1.1375,1.1829,1.2401,1.303,1.3778,1.4243,1.4737,1.5389,1.6091,1.6783,1.75,1.8226,1.8857,1.9364,1.9771,2.0034,2.0234,2.0369,2.044,2.0378,2.0298,2.0054,1.9739,1.9341,1.8796,1.8097,1.72,1.614,1.4856,1.3575,1.2248,1.0425,0.9082,0.828,0.7627,0.7189,0.688,0.6641,0.6598,0.6683,0.6938,0.728,0.7755,1.8008,1.7998,1.7891,1.7666,1.7425,1.7142,1.6672,1.6124,1.5977,1.5693,1.5478,1.542,1.542,1.542,1.542,1.542,1.5439,1.5546,1.5691,1.5874,1.6136,1.5764,1.5191,1.4433,1.3821,1.3426,1.3145,1.2978,1.3012,1.3036,1.3089,1.3108,1.3142,1.3132,1.3108,1.3132,1.3132,1.3132,1.3132,1.319,1.33,1.3318,1.3235,1.313,1.3096,1.2772,1.2276,1.1711,1.1244,1.084,1.0677,1.0592,1.0582,1.0725,1.0935,1.1142,1.13,1.1434,1.153,1.1471,1.1319,1.1151,1.1019,1.0897,1.0717,1.0592,1.0515,1.0467,1.0467,1.0515,1.0717,1.1057,1.1616,1.2359,1.2785,1.3271,1.3865,1.4326,1.4845,1.5565,1.6214,1.6891,1.7563,1.8236,1.8858,1.9343,1.9707,2.0017,2.0188,2.0342,2.0418,2.0428,2.0326,2.0118,1.9854,1.9473,1.9008,1.8409,1.7564,1.6604,1.5111,1.3546,1.2106,1.0483,0.9747,0.8961,0.8374,0.7861,0.7662,0.7544,0.7599,0.7737,0.8085,0.8444,0.899,1.8008,1.8008,1.8008,1.7871,1.7627,1.7461,1.6982,1.6387,1.6153,1.585,1.5488,1.542,1.542,1.542,1.5478,1.5507,1.5536,1.5749,1.597,1.6285,1.6786,1.6531,1.5765,1.5085,1.4568,1.3927,1.3661,1.3415,1.3288,1.3282,1.331,1.3372,1.342,1.342,1.3362,1.3443,1.342,1.3386,1.3396,1.3433,1.3644,1.3787,1.3905,1.3846,1.3983,1.3685,1.3154,1.2586,1.1942,1.1338,1.101,1.0897,1.0859,1.0981,1.1169,1.1423,1.1645,1.1804,1.187,1.1866,1.1763,1.1597,1.1497,1.1348,1.118,1.1029,1.0924,1.0783,1.0764,1.0821,1.0964,1.1282,1.1872,1.2538,1.2973,1.3374,1.3898,1.434,1.4891,1.5536,1.6227,1.6894,1.754,1.8193,1.8753,1.9204,1.9586,1.9861,2.0112,2.0259,2.0384,2.0408,2.0381,2.0211,1.9967,1.9625,1.9136,1.8544,1.7659,1.6763,1.5415,1.3729,1.2488,1.1244,1.0446,0.9737,0.9224,0.8804,0.8699,0.8638,0.8679,0.8904,0.9266,0.9672,1.0205,1.8008,1.8052,1.8008,1.8008,1.7973,1.7641,1.7227,1.6736,1.6357,1.5918,1.5576,1.5439,1.541,1.5449,1.5604,1.5701,1.5788,1.6038,1.6446,1.687,1.7363,1.7285,1.6656,1.6149,1.5463,1.466,1.4321,1.3967,1.3759,1.3717,1.3692,1.3787,1.3858,1.3823,1.3813,1.3858,1.381,1.3763,1.3739,1.3847,1.4069,1.4257,1.4445,1.4654,1.4545,1.4453,1.4153,1.3654,1.2884,1.1901,1.1469,1.1274,1.1255,1.13,1.1497,1.1756,1.1957,1.2138,1.221,1.2228,1.221,1.2018,1.192,1.1792,1.1608,1.1449,1.13,1.1151,1.1086,1.1142,1.1274,1.1653,1.2108,1.2644,1.2955,1.3335,1.3812,1.4292,1.4814,1.5433,1.6131,1.6793,1.7429,1.8052,1.8617,1.9053,1.9421,1.9748,1.9998,2.0183,2.0301,2.0391,2.0363,2.031,2.0042,1.9763,1.9221,1.8628,1.7642,1.6668,1.5603,1.4208,1.3082,1.2069,1.1339,1.0712,1.0186,0.9894,0.9786,0.9816,0.9914,1.0186,1.0531,1.0954,1.1447,1.811,1.8236,1.8076,1.811,1.8202,1.7978,1.7627,1.7197,1.6777,1.6369,1.5948,1.5606,1.5537,1.5653,1.5779,1.5875,1.6181,1.6485,1.6916,1.7776,1.8084,1.824,1.7848,1.7227,1.649,1.5814,1.5049,1.4672,1.4537,1.4264,1.4186,1.4361,1.443,1.4432,1.4456,1.4408,1.443,1.435,1.428,1.4326,1.4558,1.4789,1.504,1.5287,1.516,1.5094,1.5012,1.4529,1.4103,1.3583,1.2571,1.1823,1.1719,1.1648,1.1767,1.1966,1.2197,1.2365,1.2455,1.2561,1.2627,1.249,1.233,1.2192,1.2054,1.1902,1.1744,1.1616,1.1542,1.156,1.1708,1.1963,1.2318,1.2703,1.2995,1.3284,1.3661,1.413,1.4704,1.533,1.5992,1.6693,1.7349,1.793,1.8448,1.8866,1.9258,1.9607,1.9865,2.0103,2.0247,2.0363,2.0391,2.0336,2.0134,1.9789,1.9235,1.8682,1.7752,1.6919,1.5858,1.4899,1.3866,1.3026,1.2295,1.1725,1.1228,1.1041,1.0918,1.1041,1.1161,1.1447,1.1757,1.22,1.2554,1.8438,1.8539,1.8506,1.8539,1.8506,1.8395,1.8098,1.7645,1.7387,1.703,1.6646,1.6238,1.6117,1.6215,1.6236,1.6381,1.6712,1.7179,1.776,1.8371,1.8679,1.8801,1.8804,1.8278,1.7663,1.683,1.5997,1.5529,1.5235,1.4964,1.4789,1.4914,1.5028,1.5051,1.5051,1.504,1.4971,1.4914,1.4789,1.4834,1.5097,1.5244,1.5558,1.5834,1.5828,1.5809,1.5847,1.5323,1.5056,1.469,1.3787,1.2949,1.2678,1.2465,1.2407,1.2559,1.2489,1.2615,1.2715,1.2785,1.2838,1.2785,1.265,1.2591,1.249,1.2365,1.2258,1.2138,1.2048,1.2029,1.212,1.2246,1.2508,1.2785,1.3042,1.3267,1.3564,1.397,1.4485,1.5105,1.5738,1.6416,1.7069,1.7726,1.8288,1.8717,1.9146,1.9496,1.9811,2.0053,2.0228,2.0352,2.0424,2.0367,2.018,1.9802,1.9214,1.8646,1.7962,1.7278,1.6512,1.5619,1.476,1.3942,1.3136,1.2812,1.2384,1.2241,1.2111,1.2206,1.2354,1.2646,1.2918,1.3213,1.3557,1.8908,1.8985,1.9131,1.9075,1.8975,1.8908,1.8594,1.8169,1.8015,1.7773,1.7501,1.7144,1.7039,1.7106,1.7138,1.718,1.7512,1.7952,1.856,1.8866,1.9078,1.9198,1.9162,1.901,1.8591,1.7554,1.6968,1.6497,1.6051,1.5661,1.5508,1.5471,1.5546,1.5591,1.5603,1.5568,1.5491,1.5413,1.5266,1.5311,1.5536,1.5669,1.5935,1.625,1.6333,1.6327,1.6295,1.5986,1.5728,1.5691,1.513,1.47,1.4273,1.3635,1.3285,1.3445,1.3161,1.3028,1.3074,1.3029,1.2978,1.2931,1.2873,1.285,1.2803,1.2733,1.2632,1.2561,1.2461,1.2419,1.2455,1.2526,1.2685,1.289,1.306,1.3232,1.348,1.3848,1.4276,1.4845,1.5507,1.6157,1.6831,1.7487,1.8038,1.858,1.8992,1.9385,1.9718,1.9979,2.0176,2.0357,2.0433,2.0366,2.021,1.9926,1.9325,1.8803,1.8178,1.7642,1.7077,1.6383,1.5534,1.4682,1.4014,1.37,1.3479,1.3302,1.3272,1.3357,1.3495,1.371,1.3952,1.4224,1.4472,1.9419,1.9704,1.9572,1.9605,1.966,1.9386,1.9191,1.9,1.8579,1.8404,1.8438,1.8029,1.8103,1.8362,1.8471,1.8558,1.8667,1.8927,1.9062,1.9275,1.9368,1.9434,1.9474,1.9422,1.9204,1.8903,1.8262,1.761,1.705,1.6715,1.6187,1.5975,1.5923,1.5979,1.6001,1.5979,1.5879,1.5846,1.5714,1.5736,1.5891,1.6035,1.6175,1.6457,1.6479,1.6479,1.65,1.6425,1.6353,1.6328,1.6168,1.603,1.5643,1.472,1.4273,1.4157,1.3857,1.3631,1.3686,1.341,1.3221,1.3146,1.3189,1.3129,1.3081,1.3017,1.3069,1.2954,1.2877,1.2793,1.2745,1.2858,1.2903,1.3042,1.3146,1.3254,1.3493,1.3778,1.4127,1.4735,1.5345,1.5936,1.6612,1.7256,1.7848,1.837,1.8832,1.9261,1.9632,1.9889,2.0115,2.0285,2.0438,2.0352,2.0221,1.9922,1.9499,1.9086,1.8536,1.8059,1.7523,1.7035,1.6305,1.552,1.4941,1.4568,1.441,1.4285,1.4319,1.4355,1.454,1.4738,1.4832,1.4939,1.4998,2.0237,2.041,2.0421,2.0421,2.0377,2.0204,2.0074,1.9933,1.9663,1.9608,1.9563,1.9339,1.9302,1.9539,1.9552,1.9576,1.9571,1.9743,1.9691,1.9611,1.9591,1.9642,1.9708,1.9642,1.9617,1.9516,1.9166,1.8485,1.7654,1.7163,1.6718,1.632,1.6241,1.6306,1.634,1.6262,1.6219,1.6175,1.61,1.6078,1.6175,1.6318,1.6414,1.6479,1.6513,1.6513,1.6513,1.6513,1.65,1.6488,1.6466,1.6457,1.623,1.5881,1.5295,1.4999,1.4538,1.4305,1.44,1.4181,1.4118,1.4111,1.4024,1.4031,1.4013,1.4001,1.3846,1.3816,1.381,1.3662,1.3434,1.3409,1.3327,1.3196,1.3275,1.3425,1.3573,1.3804,1.4287,1.4812,1.5251,1.5828,1.6378,1.7023,1.7631,1.8166,1.8716,1.918,1.9652,1.9936,2.0211,2.0277,2.0419,2.0398,2.0261,2.0014,1.9723,1.9313,1.8908,1.8412,1.7999,1.7511,1.706,1.6449,1.5947,1.5477,1.5256,1.5122,1.5227,1.533,1.5374,1.5463,1.5551,1.5624,1.5595,2.1115,2.119,2.1316,2.1285,2.119,2.1115,2.1008,2.0848,2.0805,2.0782,2.0835,2.064,2.0619,2.0736,2.0606,2.0466,2.0269,2.0442,2.0126,1.9756,1.9734,1.9773,1.9798,1.9798,1.9773,1.9747,1.9697,1.917,1.8227,1.7655,1.7127,1.6738,1.6604,1.6513,1.6491,1.6414,1.6426,1.6383,1.6318,1.6318,1.6392,1.6457,1.6513,1.6513,1.6513,1.6513,1.6513,1.6513,1.6513,1.6513,1.6513,1.6513,1.6513,1.65,1.6257,1.5724,1.5177,1.5031,1.5003,1.4846,1.472,1.4695,1.4833,1.4859,1.4833,1.4689,1.4738,1.4755,1.4673,1.4511,1.4156,1.4113,1.387,1.3622,1.3674,1.383,1.4037,1.4345,1.49,1.5261,1.5387,1.5906,1.6649,1.7207,1.7897,1.887,1.9436,1.9596,2.0011,2.0202,2.0394,2.036,2.0406,2.0419,2.0308,2.0138,1.9857,1.9551,1.9198,1.8779,1.8407,1.8012,1.7563,1.7134,1.6805,1.6358,1.6143,1.5936,1.5949,1.5991,1.6077,1.6107,1.6065,1.5982,1.5926,2.1913,2.2018,2.2061,2.2061,2.1987,2.1839,2.1753,2.1721,2.1565,2.1585,2.1702,2.1725,2.182,2.1958,2.1781,2.1461,2.1061,2.0697,2.0293,1.9847,1.9798,1.9798,1.9798,1.9798,1.9798,1.9798,1.9798,1.9459,1.8821,1.8282,1.7754,1.7262,1.6713,1.6513,1.6513,1.65,1.6479,1.6479,1.6457,1.6457,1.6479,1.6479,1.65,1.6513,1.6513,1.6513,1.6513,1.6513,1.6513,1.6513,1.6513,1.6513,1.6513,1.6513,1.6488,1.6274,1.5936,1.5593,1.5542,1.5311,1.5117,1.5142,1.5067,1.4921,1.5111,1.5124,1.5124,1.4884,1.4959,1.4947,1.4859,1.4808,1.4532,1.446,1.45,1.4678,1.4814,1.5071,1.5624,1.6047,1.6288,1.6646,1.7212,1.7701,1.8261,1.926,2.0061,2.0208,2.0366,2.058,2.0473,2.0401,2.0428,2.0447,2.0388,2.0211,2.0033,1.9773,1.9457,1.9107,1.878,1.8426,1.8142,1.7754,1.7452,1.7134,1.6805,1.6638,1.663,1.6604,1.6604,1.6525,1.6445,1.6355,1.6234,2.2531,2.2475,2.2506,2.2463,2.2475,2.2389,2.2347,2.2347,2.2285,2.2285,2.2347,2.2347,2.2469,2.2592,2.2563,2.211,2.1481,2.1134,2.0573,1.991,1.9798,1.9798,1.9798,1.9798,1.9798,1.9798,1.9786,1.9748,1.9246,1.8606,1.7928,1.7423,1.6848,1.6513,1.6513,1.6513,1.6513,1.6513,1.6513,1.6513,1.6513,1.6513,1.6513,1.6513,1.6513,1.6513,1.65,1.6513,1.6513,1.6513,1.6513,1.6513,1.6513,1.6513,1.65,1.6463,1.63,1.6149,1.6099,1.5894,1.5809,1.5863,1.5896,1.6013,1.6016,1.5985,1.5972,1.6056,1.6044,1.5871,1.5591,1.5527,1.5267,1.519,1.5354,1.5491,1.5667,1.5995,1.6351,1.6784,1.7212,1.7584,1.7942,1.8357,1.8833,1.9522,2.0311,2.0693,2.0821,2.0989,2.0747,2.0382,2.0435,2.0487,2.0429,2.0322,2.0171,1.9936,1.9687,1.9374,1.9123,1.8814,1.8524,1.8306,1.8048,1.7726,1.7434,1.7231,1.7122,1.7101,1.7076,1.6952,1.6825,1.6617,1.6488,2.2969,2.28,2.28,2.2787,2.28,2.28,2.28,2.28,2.2787,2.2787,2.28,2.2787,2.2848,2.2939,2.2947,2.2439,2.1506,2.1481,2.079,2.0137,1.9798,1.9798,1.9798,1.9798,1.9798,1.9798,1.9798,1.9773,1.9459,1.8794,1.799,1.7551,1.6851,1.6563,1.6513,1.6513,1.6513,1.6513,1.6513,1.6513,1.6513,1.6513,1.6513,1.6513,1.6513,1.6513,1.6522,1.6556,1.6556,1.6577,1.662,1.6641,1.6641,1.6641,1.6641,1.6629,1.6574,1.6566,1.6532,1.6481,1.6586,1.6675,1.674,1.6638,1.6765,1.6897,1.6905,1.6764,1.6768,1.6584,1.6432,1.6283,1.6054,1.6009,1.6097,1.6268,1.6505,1.6949,1.7408,1.7888,1.8294,1.854,1.8855,1.9123,1.9507,1.9937,2.0475,2.1107,2.1343,2.1512,2.1155,2.0762,2.0532,2.0607,2.0526,2.0443,2.0297,2.0146,1.9889,1.9632,1.9392,1.9149,1.8868,1.868,1.852,1.8343,1.8031,1.7821,1.7618,1.7537,1.7444,1.7325,1.7163,1.6952,1.676,2.3078,2.3078,2.3078,2.3047,2.3047,2.3078,2.3078,2.3047,2.3047,2.3047,2.3047,2.3047,2.3047,2.3078,2.2977,2.2506,2.1521,2.1481,2.0765,2.0125,1.9798,1.9798,1.9798,1.9798,1.9798,1.9798,1.9798,1.9798,1.9572,1.8857,1.8329,1.8016,1.6989,1.6638,1.6534,1.6534,1.6534,1.6556,1.6543,1.6543,1.6522,1.6522,1.6522,1.6522,1.6522,1.6522,1.6509,1.6641,1.6718,1.6718,1.6812,1.6854,1.6854,1.6854,1.6842,1.6854,1.6842,1.6854,1.6854,1.6748,1.6705,1.674,1.6833,1.6981,1.7057,1.7015,1.7002,1.7073,1.7149,1.7123,1.7032,1.7006,1.6809,1.6857,1.6977,1.7254,1.758,1.8111,1.8561,1.9027,1.9253,1.9306,1.9556,1.9759,2.0162,2.0601,2.1415,2.2042,2.1997,2.2058,2.1658,2.1246,2.0856,2.0729,2.0678,2.0635,2.0727,2.0505,2.0214,1.9928,1.9657,1.9411,1.9159,1.9014,1.8851,1.8762,1.8642,1.8365,1.8104,1.7932,1.7794,1.7664,1.7451,1.7211,1.7064,2.3095,2.3095,2.3095,2.3095,2.3095,2.3095,2.3095,2.3095,2.3095,2.3095,2.3095,2.3095,2.3095,2.3095,2.3032,2.2523,2.1622,2.1481,2.074,2.0125,1.9798,1.9798,1.9798,1.9824,1.9798,1.9837,1.9798,1.9798,1.9698,1.8995,1.8519,1.7967,1.7121,1.6663,1.6534,1.6599,1.662,1.6654,1.6684,1.6727,1.662,1.662,1.662,1.6633,1.662,1.6663,1.6748,1.6854,1.6876,1.6939,1.7044,1.7107,1.7128,1.7115,1.7115,1.7128,1.7115,1.7128,1.7086,1.696,1.6876,1.7065,1.7233,1.7357,1.735,1.7461,1.7543,1.7563,1.7543,1.755,1.7591,1.7578,1.7558,1.7664,1.784,1.8115,1.8441,1.8874,1.9128,1.9339,1.9555,1.9659,2.0008,2.035,2.0814,2.1289,2.2167,2.2811,2.2714,2.2633,2.2262,2.2009,2.1655,2.1646,2.1647,2.1465,2.1264,2.0963,2.0676,2.048,2.0257,1.965,1.9415,1.9286,1.919,1.9064,1.8937,1.878,1.8587,1.8341,1.8135,1.7997,1.7749,1.7497,1.7403,2.3258,2.3258,2.3198,2.3138,2.3095,2.3095,2.3095,2.3095,2.3095,2.3095,2.3095,2.3095,2.3095,2.307,2.2869,2.241,2.1619,2.1242,2.0641,2.0177,1.9888,1.9888,1.9914,1.9939,1.9965,1.9914,1.9888,1.9888,1.9914,1.9346,1.8828,1.8183,1.7377,1.6935,1.6599,1.6705,1.6769,1.6825,1.691,1.6931,1.6825,1.6803,1.6803,1.6825,1.6846,1.6939,1.7052,1.7178,1.7227,1.7289,1.7352,1.7447,1.7468,1.7468,1.7488,1.7488,1.7468,1.7447,1.7385,1.7212,1.7115,1.7282,1.7502,1.7645,1.7767,1.7889,1.7942,1.7975,1.8009,1.8029,1.8049,1.8029,1.8075,1.8149,1.8372,1.8612,1.8822,1.9157,1.9343,1.9563,1.9726,1.9922,2.0325,2.0679,2.1197,2.1688,2.2405,2.2994,2.3162,2.3067,2.297,2.2764,2.2584,2.2708,2.2849,2.2449,2.2104,2.2039,2.1727,2.1376,2.1022,2.0423,2.0026,2.0041,1.9859,1.9483,1.9253,1.9149,1.8929,1.867,1.8479,1.8252,1.8114,1.7882,1.7827,2.3586,2.3569,2.3463,2.33,2.3168,2.3095,2.3095,2.3138,2.3138,2.3138,2.3168,2.3168,2.3168,2.3055,2.2728,2.2124,2.1562,2.1033,2.0493,2.0104,2.0029,2.008,2.0156,2.0182,2.0195,2.0156,2.0105,2.0105,2.0169,1.9673,1.9137,1.8608,1.7987,1.7293,1.679,1.6897,1.7002,1.7023,1.7136,1.7149,1.7086,1.7065,1.7065,1.7086,1.7157,1.7269,1.7393,1.7564,1.7646,1.774,1.7882,1.7962,1.7982,1.8075,1.8129,1.8129,1.8022,1.7968,1.7962,1.7604,1.7502,1.7537,1.7754,1.7882,1.7929,1.8103,1.8282,1.8352,1.8358,1.8392,1.8406,1.8425,1.8509,1.8644,1.8851,1.8998,1.9191,1.9358,1.9527,1.9723,1.9902,2.0131,2.0544,2.099,2.1506,2.2079,2.2695,2.3112,2.3361,2.3537,2.346,2.3585,2.3471,2.3593,2.3653,2.3245,2.2969,2.2935,2.2665,2.2188,2.1885,2.1507,2.1183,2.0922,2.0451,2.0017,1.974,1.9518,1.9275,1.9021,1.8717,1.85,1.8381,1.8307,1.8239,2.394,2.394,2.3776,2.37,2.3599,2.3403,2.33,2.33,2.339,2.3437,2.3437,2.3407,2.3437,2.3242,2.2752,2.2166,2.1622,2.1077,2.0547,2.0067,2.0182,2.0271,2.0372,2.0472,2.0498,2.0447,2.0359,2.0359,2.0459,2.0088,1.9789,1.9328,1.855,1.7744,1.7208,1.717,1.7344,1.7365,1.7509,1.7591,1.7488,1.7468,1.7455,1.7455,1.7544,1.7666,1.7808,1.8008,1.8127,1.822,1.8358,1.8422,1.8495,1.8586,1.8586,1.8567,1.8461,1.8378,1.8347,1.8163,1.8016,1.8002,1.8036,1.8202,1.8307,1.8576,1.8711,1.8741,1.8765,1.8817,1.8855,1.8874,1.895,1.9045,1.9191,1.9298,1.9446,1.9545,1.9708,1.9902,2.0093,2.0441,2.0827,2.1182,2.1673,2.2096,2.2647,2.3098,2.3385,2.3785,2.394,2.4294,2.4403,2.449,2.4425,2.4047,2.3878,2.3878,2.3389,2.2739,2.2489,2.2499,2.2031,2.1624,2.1079,2.0554,2.0106,1.9701,1.9592,1.9379,1.9085,1.8824,1.8698,1.8651,1.8623,2.445,2.4421,2.4332,2.4258,2.4141,2.376,2.3611,2.3658,2.3747,2.3763,2.3763,2.3763,2.3763,2.3515,2.2863,2.2344,2.1792,2.0997,2.068,2.0207,2.0409,2.0635,2.0759,2.0858,2.0981,2.0921,2.0847,2.0822,2.0883,2.0747,2.0477,1.9987,1.9229,1.855,1.8022,1.7943,1.7794,1.7855,1.7975,1.8036,1.7942,1.7902,1.7908,1.7928,1.8008,1.8161,1.8299,1.8456,1.863,1.8707,1.8784,1.8879,1.8936,1.8974,1.9007,1.8955,1.8898,1.8798,1.8736,1.8697,1.8553,1.8442,1.8528,1.8595,1.8673,1.8865,1.9017,1.9097,1.9172,1.9191,1.9209,1.9195,1.9232,1.9339,1.9413,1.9501,1.9574,1.9687,1.9833,2.0025,2.0287,2.0662,2.1087,2.1417,2.1811,2.2169,2.2558,2.2975,2.3405,2.379,2.4164,2.4508,2.4807,2.4864,2.4899,2.4877,2.4775,2.4805,2.427,2.3614,2.3641,2.3701,2.3004,2.2269,2.1637,2.0971,2.0269,1.9879,1.9774,1.967,1.9479,1.926,1.9048,1.8972,1.8955,2.5146,2.5033,2.5033,2.4948,2.4763,2.4287,2.4099,2.416,2.416,2.4189,2.4189,2.4205,2.4205,2.3924,2.2867,2.2317,2.2017,2.0927,2.0603,2.0636,2.0833,2.1093,2.1337,2.1506,2.1554,2.1554,2.1482,2.1385,2.141,2.1361,2.1145,2.0713,2.0016,1.9496,1.9112,1.8757,1.8438,1.8394,1.8411,1.845,1.8397,1.8358,1.8344,1.8403,1.85,1.8649,1.8798,1.895,1.9045,1.912,1.9213,1.925,1.9306,1.9376,1.9395,1.9376,1.9288,1.9195,1.9097,1.9045,1.9045,1.8931,1.8851,1.8884,1.896,1.9097,1.9242,1.9354,1.9395,1.9395,1.9413,1.9413,1.9413,1.9487,1.9556,1.9611,1.9665,1.9792,1.994,2.0168,2.0426,2.0762,2.1214,2.1587,2.1901,2.2189,2.2521,2.2829,2.3283,2.3692,2.406,2.4403,2.4721,2.5016,2.511,2.5179,2.5258,2.5147,2.529,2.4883,2.4919,2.4675,2.402,2.3215,2.2242,2.1457,2.0798,2.0313,1.999,1.9873,1.978,1.958,1.9354,1.9316,1.9294,2.5743,2.5647,2.5647,2.5564,2.5425,2.5342,2.5174,2.4907,2.4964,2.5021,2.5049,2.5035,2.4936,2.4757,2.3541,2.2898,2.226,2.1598,2.1057,2.1044,2.1313,2.1602,2.1841,2.203,2.2137,2.2114,2.2053,2.1959,2.1983,2.1959,2.1755,2.132,2.104,2.0638,2.016,1.9733,1.9305,1.8927,1.8913,1.8855,1.8855,1.8836,1.8822,1.886,1.8955,1.9082,1.9157,1.9265,1.9339,1.9431,1.9468,1.9523,1.9581,1.9599,1.9599,1.9556,1.9501,1.945,1.9339,1.9321,1.9321,1.9321,1.9228,1.9191,1.9246,1.9339,1.9483,1.9538,1.9596,1.9614,1.9614,1.9614,1.965,1.9687,1.9741,1.9777,1.9863,2.0025,2.0185,2.046,2.0695,2.1039,2.1465,2.1693,2.2003,2.2234,2.2497,2.2786,2.3116,2.354,2.3931,2.4273,2.4617,2.491,2.5138,2.5234,2.5407,2.5522,2.5581,2.5602,2.5404,2.5095,2.4817,2.4075,2.293,2.2075,2.1377,2.0905,2.0446,2.0173,2.0031,1.9852,1.9695,1.9638,1.9586,2.6367,2.6245,2.6313,2.6245,2.6123,2.6245,2.6152,2.5921,2.5811,2.5769,2.5755,2.5769,2.566,2.5328,2.4171,2.3368,2.3091,2.202,2.1423,2.1554,2.1817,2.2077,2.231,2.2518,2.2632,2.2632,2.2586,2.254,2.2518,2.2558,2.2449,2.2249,2.2149,2.1672,2.1213,2.0837,2.0318,1.9792,1.9436,1.929,1.9228,1.9228,1.9228,1.9246,1.9339,1.9395,1.9413,1.9487,1.956,1.9632,1.9632,1.965,1.969,1.9708,1.9675,1.9632,1.9632,1.9581,1.9527,1.9523,1.9541,1.956,1.956,1.9596,1.9581,1.9636,1.9669,1.9702,1.9759,1.983,1.983,1.983,1.9884,1.9922,1.994,1.999,2.0131,2.0287,2.051,2.0794,2.1087,2.1402,2.1694,2.1903,2.2077,2.2248,2.2446,2.2659,2.2998,2.337,2.3767,2.4118,2.4456,2.4778,2.5005,2.522,2.5325,2.5451,2.5527,2.5553,2.5586,2.5442,2.5092,2.4379,2.3502,2.2802,2.2221,2.1451,2.0917,2.0739,2.0506,2.0192,2.0036,1.9922,1.9885,2.6922,2.6762,2.6922,2.687,2.6788,2.691,2.6977,2.7003,2.6578,2.6404,2.6363,2.6363,2.6297,2.5937,2.4897,2.4137,2.3632,2.2707,2.2132,2.2091,2.2333,2.2563,2.2754,2.2979,2.3061,2.3105,2.3083,2.2971,2.2957,2.3001,2.3068,2.312,2.2723,2.2342,2.2153,2.1767,2.1248,2.0654,2.0019,1.9623,1.9476,1.9431,1.9428,1.9431,1.9538,1.9611,1.9614,1.9669,1.9726,1.9726,1.9708,1.9708,1.9708,1.9723,1.969,1.969,1.969,1.969,1.9672,1.9672,1.9744,1.978,1.9833,1.9922,1.9957,1.9869,1.9848,1.9902,1.999,2.0025,2.0025,2.0043,2.0078,2.0133,2.0185,2.0272,2.041,2.0628,2.0876,2.1135,2.1371,2.1679,2.1875,2.2065,2.2123,2.2279,2.2405,2.2582,2.2812,2.317,2.3533,2.3921,2.4238,2.4564,2.4821,2.5024,2.5177,2.5309,2.5421,2.5496,2.5507,2.5419,2.5312,2.4703,2.4103,2.3719,2.316,2.2358,2.1774,2.1662,2.1318,2.0672,2.0417,2.0369,2.0118,2.7222,2.7089,2.713,2.713,2.7104,2.7248,2.7299,2.7299,2.7321,2.7137,2.6997,2.6985,2.6907,2.6579,2.5817,2.507,2.4265,2.3569,2.3082,2.2761,2.2791,2.2949,2.3127,2.326,2.3385,2.3422,2.34,2.3304,2.3238,2.3319,2.3422,2.3392,2.316,2.3046,2.2745,2.2402,2.2078,2.1455,2.0893,2.021,1.9856,1.9692,1.9617,1.9636,1.9705,1.9759,1.9795,1.9866,1.9902,1.9919,1.9815,1.9762,1.9726,1.9708,1.9723,1.9723,1.9744,1.9777,1.9797,1.9833,1.9904,2.003,2.0133,2.0222,2.0222,2.0098,2.008,2.0166,2.0218,2.0235,2.0252,2.027,2.0304,2.0373,2.0443,2.0579,2.0729,2.0974,2.1246,2.1449,2.1663,2.1844,2.2036,2.2154,2.2211,2.2296,2.2349,2.2487,2.2636,2.291,2.3271,2.3639,2.3981,2.4292,2.4578,2.4814,2.4968,2.5124,2.5244,2.5333,2.5437,2.5407,2.5338,2.5184,2.4803,2.4414,2.3925,2.3258,2.2804,2.2642,2.2126,2.1474,2.1194,2.1103,2.0658,2.7437,2.7372,2.7372,2.7372,2.7412,2.7463,2.7488,2.7488,2.7575,2.7524,2.7397,2.7386,2.731,2.7093,2.6463,2.5717,2.4864,2.4285,2.3614,2.3221,2.315,2.3275,2.3407,2.3494,2.3501,2.3523,2.3538,2.3494,2.3436,2.348,2.3523,2.3545,2.3543,2.343,2.3092,2.3047,2.2763,2.2164,2.1734,2.1229,2.0527,2.0167,1.984,1.9815,1.9887,1.9922,1.9975,2.0061,2.0113,2.0096,2.0025,1.9957,1.9922,1.9904,1.9889,1.9889,1.9889,1.9904,1.994,2.001,2.0115,2.0306,2.0444,2.0562,2.0778,2.0678,2.0579,2.0645,2.0596,2.0596,2.0663,2.068,2.0745,2.0811,2.0876,2.0974,2.1151,2.1356,2.1541,2.1676,2.1857,2.1974,2.2152,2.2268,2.2338,2.2377,2.2446,2.2487,2.2609,2.2716,2.3035,2.3342,2.3692,2.4029,2.4301,2.454,2.473,2.4885,2.5059,2.5182,2.5284,2.5362,2.5341,2.5232,2.5164,2.5083,2.4566,2.399,2.3742,2.3571,2.2967,2.2285,2.207,2.1875,2.1499,2.76,2.7585,2.76,2.7585,2.7585,2.7585,2.7585,2.76,2.7585,2.7585,2.756,2.7575,2.7499,2.7239,2.6832,2.6031,2.5361,2.4855,2.4146,2.3526,2.3444,2.3473,2.3501,2.3545,2.3573,2.3573,2.3588,2.3588,2.3551,2.3573,2.3573,2.3595,2.3595,2.358,2.3595,2.3535,2.3251,2.2888,2.2555,2.2395,2.1631,2.0711,2.0313,2.0175,2.0144,2.0168,2.0187,2.0272,2.0356,2.0339,2.0289,2.0202,2.0168,2.0135,2.015,2.015,2.015,2.0168,2.022,2.0323,2.0494,2.0662,2.0778,2.0958,2.1199,2.123,2.1119,2.1087,2.1055,2.0991,2.1039,2.1071,2.1151,2.123,2.1294,2.1373,2.1557,2.1724,2.1842,2.1957,2.2061,2.2178,2.2276,2.2391,2.246,2.2511,2.2552,2.2579,2.2632,2.2738,2.294,2.3157,2.3399,2.3714,2.4029,2.4256,2.4472,2.467,2.4828,2.4993,2.5135,2.5226,2.5301,2.5348,2.5295,2.5241,2.5192,2.4782,2.4602,2.4383,2.3764,2.3127,2.2975,2.2763,2.2465,2.7585,2.7585,2.7585,2.7585,2.7585,2.7585,2.7585,2.7585,2.7585,2.7585,2.7585,2.7585,2.7575,2.7549,2.746,2.6753,2.5691,2.5288,2.4492,2.3716,2.3589,2.3581,2.3588,2.361,2.3595,2.3616,2.3616,2.3616,2.3674,2.3638,2.3595,2.3616,2.3616,2.3616,2.3616,2.3586,2.3541,2.3284,2.3103,2.2854,2.2655,2.1816,2.1054,2.0796,2.0584,2.0519,2.0529,2.0629,2.0712,2.0729,2.0662,2.0544,2.0494,2.0477,2.046,2.0477,2.0477,2.051,2.0578,2.0678,2.0844,2.1055,2.1198,2.1355,2.1526,2.1632,2.1602,2.1616,2.1554,2.1416,2.1415,2.14,2.1447,2.1586,2.1663,2.1751,2.1899,2.2032,2.2163,2.2248,2.2332,2.2429,2.2525,2.2605,2.2685,2.2751,2.2799,2.2842,2.2829,2.2855,2.2889,2.3052,2.3235,2.3422,2.3724,2.3971,2.4192,2.4391,2.4586,2.4782,2.4942,2.5088,2.5165,2.5216,2.5281,2.5282,2.522,2.5185,2.5185,2.4913,2.4411,2.3969,2.3839,2.3603,2.3281]}]]